[[{"header":{"parameterUnit":"m.s-1","parameterCategory":1,"la1":30.6,"la2":28.766,"lo1":-90.7593,"lo2":-88.6598,"dy":0.0162,"dx":0.0183,"nx":116,"ny":114,"refTime":"2023-06-10T18:00:00:Z","depth":0,"parameterNumber":2,"parameterNumberName":"U-component_of_WINDS"},"data":[0.0,0.0,0.0,0.0,0.0,0.0,0.0,0.0,0.0,0.0,0.0,0.0,0.0,0.0,0.0,0.0,0.0,0.0,0.0,0.0,0.0,0.0,0.0,0.0,0.0,0.0,0.0,0.0,0.0,0.0,0.0,0.0,0.0,0.0,0.0,0.0,0.0,0.0,0.0,0.0,0.0,0.0,0.0,0.0,0.0,0.0,0.0,0.0,0.0,0.0,0.0,0.0,0.0,0.0,0.0,0.0,0.0,0.0,0.0,0.0,0.0,0.0,0.0,0.0,0.0,0.0,0.0,0.0,0.0,0.0,0.0,0.0,0.0,0.0,0.0,0.0,0.0,0.0,0.0,0.0,0.0,0.0,0.0,0.0,0.0,0.0,0.0,0.0,0.0,0.0,0.0,0.0,0.0,0.0,0.0,0.0,0.0,0.0,0.0,0.0,0.0,0.0,0.0,0.0,0.0,0.0,0.0,0.0,0.0,0.0,0.0,0.0,0.0,0.0,0.0,0.0,0.0,0.0,0.0,0.0,0.0,0.0,0.0,0.0,0.0,0.0,0.0,0.0,0.0,0.0,0.0,0.0,0.0,0.0,0.0,0.0,0.0,0.0,0.0,0.0,0.0,0.0,0.0,0.0,0.0,0.0,0.0,0.0,0.0,0.0,0.0,0.0,0.0,0.0,0.0,0.0,0.0,0.0,0.0,0.0,0.0,0.0,0.0,0.0,0.0,0.0,0.0,0.0,0.0,0.0,0.0,0.0,0.0,0.0,0.0,0.0,0.0,0.0,0.0,0.0,0.0,0.0,0.0,0.0,0.0,0.0,0.0,0.0,0.0,0.0,0.0,0.0,0.0,0.0,0.0,0.0,0.0,0.0,0.0,0.0,0.0,0.0,0.0,0.0,0.0,0.0,0.0,0.0,0.0,0.0,0.0,0.0,0.0,0.0,0.0,0.0,0.0,0.0,0.0,0.0,0.0,0.0,0.0,0.0,0.0,0.0,0.0,0.0,0.0,0.0,0.0,0.0,0.0,0.0,0.0,0.0,0.0,0.0,0.0,0.0,0.0,0.0,0.0,0.0,0.0,0.0,0.0,0.0,0.0,0.0,0.0,0.0,0.0,0.0,0.0,0.0,0.0,0.0,0.0,0.0,0.0,0.0,0.0,0.0,0.0,0.0,0.0,0.0,0.0,0.0,0.0,0.0,0.0,0.0,0.0,0.0,0.0,0.0,0.0,0.0,0.0,0.0,0.0,0.0,0.0,0.0,0.0,0.0,0.0,0.0,0.0,0.0,0.0,0.0,0.0,0.0,0.0,0.0,0.0,0.0,0.0,0.0,0.0,0.0,0.0,0.0,0.0,0.0,0.0,0.0,0.0,0.0,0.0,0.0,0.0,0.0,0.0,0.0,0.0,0.0,0.0,0.0,0.0,0.0,0.0,0.0,0.0,0.0,0.0,0.0,0.0,0.0,0.0,0.0,0.0,0.0,0.0,0.0,0.0,0.0,0.0,0.0,0.0,0.0,0.0,0.0,0.0,0.0,0.0,0.0,0.0,0.0,0.0,0.0,0.0,0.0,0.0,0.0,0.0,0.0,0.0,0.0,0.0,0.0,0.0,0.0,0.0,0.0,0.0,0.0,0.0,0.0,0.0,0.0,0.0,0.0,0.0,0.0,0.0,0.0,0.0,0.0,0.0,0.0,0.0,0.0,0.0,0.0,0.0,0.0,0.0,0.0,0.0,0.0,0.0,0.0,0.0,0.0,0.0,0.0,0.0,0.0,0.0,0.0,0.0,0.0,0.0,0.0,0.0,0.0,0.0,0.0,0.0,0.0,0.0,0.0,0.0,0.0,0.0,0.0,0.0,0.0,0.0,0.0,0.0,0.0,0.0,0.0,0.0,0.0,0.0,0.0,0.0,0.0,0.0,0.0,0.0,0.0,0.0,0.0,0.0,0.0,0.0,0.0,0.0,0.0,0.0,0.0,0.0,0.0,0.0,0.0,0.0,0.0,0.0,0.0,0.0,0.0,0.0,0.0,0.0,0.0,0.0,0.0,0.0,0.0,0.0,0.0,0.0,0.0,0.0,0.0,0.0,0.0,0.0,0.0,0.0,0.0,0.0,0.0,0.0,0.0,0.0,0.0,0.0,0.0,0.0,0.0,0.0,0.0,0.0,0.0,0.0,0.0,0.0,0.0,0.0,0.0,0.0,0.0,0.0,0.0,0.0,0.0,0.0,0.0,0.0,0.0,0.0,0.0,0.0,0.0,0.0,0.0,0.0,0.0,0.0,0.0,0.0,0.0,0.0,0.0,0.0,0.0,0.0,0.0,0.0,0.0,0.0,0.0,0.0,0.0,0.0,0.0,0.0,0.0,0.0,0.0,0.0,0.0,0.0,0.0,0.0,0.0,0.0,0.0,0.0,0.0,0.0,0.0,0.0,0.0,0.0,0.0,0.0,0.0,0.0,0.0,0.0,0.0,0.0,0.0,0.0,0.0,0.0,0.0,0.0,0.0,0.0,0.0,0.0,0.0,0.0,0.0,0.0,0.0,0.0,0.0,0.0,0.0,0.0,0.0,0.0,0.0,0.0,0.0,0.0,0.0,0.0,0.0,0.0,0.0,0.0,0.0,0.0,0.0,0.0,0.0,0.0,0.0,0.0,0.0,0.0,0.0,0.0,0.0,0.0,0.0,0.0,0.0,0.0,0.0,0.0,0.0,0.0,0.0,0.0,0.0,0.0,0.0,0.0,0.0,0.0,0.0,0.0,0.0,0.0,0.0,0.0,0.0,0.0,0.0,0.0,0.0,0.0,0.0,0.0,0.0,0.0,0.0,0.0,0.0,0.0,0.0,0.0,0.0,0.0,0.0,0.0,0.0,0.0,0.0,0.0,0.0,0.0,0.0,0.0,0.0,0.0,0.0,0.0,0.0,0.0,0.0,0.0,0.0,0.0,0.0,0.0,0.0,0.0,0.0,0.0,0.0,0.0,0.0,0.0,0.0,0.0,0.0,0.0,0.0,0.0,0.0,0.0,0.0,0.0,0.0,0.0,0.0,0.0,0.0,0.0,0.0,0.0,0.0,0.0,0.0,0.0,0.0,0.0,0.0,0.0,0.0,0.0,0.0,0.0,0.0,0.0,0.0,0.0,0.0,0.0,0.0,0.0,0.0,0.0,0.0,0.0,0.0,0.0,0.0,0.0,0.0,0.0,0.0,0.0,0.0,0.0,0.0,0.0,0.0,0.0,0.0,0.0,0.0,0.0,0.0,0.0,0.0,0.0,0.0,0.0,0.0,0.0,0.0,0.0,0.0,0.0,0.0,0.0,0.0,0.0,0.0,0.0,0.0,0.0,0.0,0.0,0.0,0.0,0.0,0.0,0.0,0.0,0.0,0.0,0.0,0.0,0.0,0.0,0.0,0.0,0.0,0.0,0.0,0.0,0.0,0.0,0.0,0.0,0.0,0.0,0.0,0.0,0.0,0.0,0.0,0.0,0.0,0.0,0.0,0.0,0.0,0.0,0.0,0.0,0.0,0.0,0.0,0.0,0.0,0.0,0.0,0.0,0.0,0.0,0.0,0.0,0.0,0.0,0.0,0.0,0.0,0.0,0.0,0.0,0.0,0.0,0.0,0.0,0.0,0.0,0.0,0.0,0.0,0.0,0.0,0.0,0.0,0.0,0.0,0.0,0.0,0.0,0.0,0.0,0.0,0.0,0.0,0.0,0.0,0.0,0.0,0.0,0.0,0.0,0.0,0.0,0.0,0.0,0.0,0.0,0.0,0.0,0.0,0.0,0.0,0.0,0.0,0.0,0.0,0.0,0.0,0.0,0.0,0.0,0.0,0.0,0.0,0.0,0.0,0.0,0.0,0.0,0.0,0.0,0.0,0.0,0.0,0.0,0.0,0.0,0.0,0.0,0.0,0.0,0.0,0.0,0.0,0.0,0.0,0.0,0.0,0.0,0.0,0.0,0.0,0.0,0.0,0.0,0.0,0.0,0.0,0.0,0.0,0.0,0.0,0.0,0.0,0.0,0.0,0.0,0.0,0.0,0.0,0.0,0.0,0.0,0.0,0.0,0.0,0.0,0.0,0.0,0.0,0.0,0.0,0.0,0.0,0.0,0.0,0.0,0.0,0.0,0.0,0.0,0.0,0.0,0.0,0.0,0.0,0.0,0.0,0.0,0.0,0.0,0.0,0.0,0.0,0.0,0.0,0.0,0.0,0.0,0.0,0.0,0.0,0.0,0.0,0.0,0.0,0.0,0.0,0.0,0.0,0.0,0.0,0.0,0.0,0.0,0.0,0.0,0.0,0.0,0.0,0.0,0.0,0.0,0.0,0.0,0.0,0.0,0.0,0.0,0.0,0.0,0.0,0.0,0.0,0.0,0.0,0.0,0.0,0.0,0.0,0.0,0.0,0.0,0.0,0.0,0.0,0.0,0.0,0.0,0.0,0.0,0.0,0.0,0.0,0.0,0.0,0.0,0.0,0.0,0.0,0.0,0.0,0.0,0.0,0.0,0.0,0.0,0.0,0.0,0.0,0.0,0.0,0.0,0.0,0.0,0.0,0.0,0.0,0.0,0.0,0.0,0.0,0.0,0.0,0.0,0.0,0.0,0.0,0.0,0.0,0.0,0.0,0.0,0.0,0.0,0.0,0.0,0.0,0.0,0.0,0.0,0.0,0.0,0.0,0.0,0.0,0.0,0.0,0.0,0.0,0.0,0.0,0.0,0.0,0.0,0.0,0.0,0.0,0.0,0.0,0.0,0.0,0.0,0.0,0.0,0.0,0.0,0.0,0.0,0.0,0.0,0.0,0.0,0.0,0.0,0.0,0.0,0.0,0.0,0.0,0.0,0.0,0.0,0.0,0.0,0.0,0.0,0.0,0.0,0.0,0.0,0.0,0.0,0.0,0.0,0.0,0.0,0.0,0.0,0.0,0.0,0.0,0.0,0.0,0.0,0.0,0.0,0.0,0.0,0.0,0.0,0.0,0.0,0.0,0.0,0.0,0.0,0.0,0.0,0.0,0.0,0.0,0.0,0.0,0.0,0.0,0.0,0.0,0.0,0.0,0.0,0.0,0.0,0.0,0.0,0.0,0.0,0.0,0.0,0.0,0.0,0.0,0.0,0.0,0.0,0.0,0.0,0.0,0.0,0.0,0.0,0.0,0.0,0.0,0.0,0.0,0.0,0.0,0.0,0.0,0.0,0.0,0.0,0.0,0.0,0.0,0.0,0.0,0.0,0.0,0.0,0.0,0.0,0.0,0.0,0.0,0.0,0.0,0.0,0.0,0.0,0.0,0.0,0.0,0.0,0.0,0.0,0.0,0.0,0.0,0.0,0.0,0.0,0.0,0.0,0.0,0.0,0.0,0.0,0.0,0.0,0.0,0.0,0.0,0.0,0.0,0.0,0.0,0.0,0.0,0.0,0.0,0.0,0.0,0.0,0.0,0.0,0.0,0.0,0.0,0.0,0.0,0.0,0.0,0.0,0.0,0.0,0.0,0.0,0.0,0.0,0.0,0.0,0.0,0.0,0.0,0.0,0.0,0.0,0.0,0.0,0.0,0.0,0.0,0.0,0.0,0.0,0.0,0.0,0.0,0.0,0.0,0.0,0.0,0.0,0.0,0.0,0.0,0.0,0.0,0.0,0.0,0.0,0.0,0.0,0.0,0.0,0.0,0.0,0.0,0.0,0.0,0.0,0.0,0.0,0.0,0.0,0.0,0.0,0.0,0.0,0.0,0.0,0.0,0.0,0.0,0.0,0.0,0.0,0.0,0.0,0.0,0.0,0.0,0.0,0.0,0.0,0.0,0.0,0.0,0.0,0.0,0.0,0.0,0.0,0.0,0.0,0.0,0.0,0.0,0.0,0.0,0.0,0.0,0.0,0.0,0.0,0.0,0.0,0.0,0.0,0.0,0.0,0.0,0.0,0.0,0.0,0.0,0.0,0.0,0.0,0.0,0.0,0.0,0.0,0.0,0.0,0.0,0.0,0.0,0.0,0.0,0.0,0.0,0.0,0.0,0.0,0.0,0.0,0.0,0.0,0.0,0.0,0.0,0.0,0.0,0.0,0.0,0.0,0.0,0.0,0.0,0.0,0.0,-6.961,0.0,0.0,0.0,0.0,0.0,0.0,0.0,0.0,0.0,0.0,0.0,0.0,0.0,0.0,0.0,0.0,0.0,0.0,0.0,0.0,0.0,0.0,0.0,0.0,0.0,0.0,0.0,0.0,0.0,0.0,0.0,0.0,0.0,0.0,0.0,0.0,0.0,0.0,0.0,0.0,0.0,0.0,0.0,0.0,0.0,0.0,0.0,0.0,0.0,0.0,0.0,0.0,0.0,0.0,0.0,0.0,0.0,0.0,0.0,0.0,0.0,0.0,0.0,0.0,0.0,0.0,0.0,0.0,0.0,0.0,0.0,0.0,0.0,0.0,0.0,0.0,0.0,0.0,0.0,0.0,0.0,0.0,0.0,0.0,0.0,0.0,0.0,0.0,0.0,0.0,0.0,0.0,0.0,0.0,0.0,0.0,0.0,0.0,0.0,0.0,0.0,0.0,0.0,0.0,0.0,0.0,0.0,0.0,0.0,0.0,0.0,0.0,0.0,0.0,0.0,0.0,-7.0758,0.0,0.0,0.0,0.0,0.0,0.0,0.0,0.0,0.0,0.0,0.0,0.0,0.0,0.0,0.0,0.0,0.0,0.0,0.0,0.0,0.0,0.0,0.0,0.0,0.0,0.0,0.0,0.0,0.0,0.0,0.0,0.0,0.0,0.0,0.0,0.0,0.0,0.0,0.0,0.0,0.0,0.0,0.0,0.0,0.0,0.0,0.0,0.0,0.0,0.0,0.0,0.0,0.0,0.0,0.0,0.0,0.0,0.0,0.0,0.0,0.0,0.0,0.0,0.0,0.0,0.0,0.0,0.0,0.0,0.0,0.0,0.0,0.0,0.0,0.0,0.0,0.0,0.0,0.0,0.0,0.0,0.0,0.0,0.0,0.0,0.0,0.0,0.0,0.0,0.0,0.0,0.0,0.0,0.0,0.0,0.0,0.0,0.0,0.0,0.0,0.0,0.0,0.0,0.0,0.0,0.0,0.0,0.0,-6.9246,-7.0138,-7.1109,-7.121,-7.1207,-7.1161,-7.1988,-7.2199,-7.1963,0.0,0.0,0.0,0.0,0.0,0.0,0.0,0.0,0.0,0.0,0.0,0.0,0.0,0.0,0.0,0.0,0.0,0.0,0.0,0.0,0.0,0.0,0.0,0.0,0.0,0.0,0.0,0.0,0.0,0.0,0.0,0.0,0.0,0.0,0.0,0.0,0.0,0.0,0.0,-6.1127,-6.1119,-6.1119,-6.1119,-6.1119,0.0,0.0,0.0,0.0,0.0,0.0,0.0,0.0,0.0,0.0,0.0,0.0,0.0,0.0,0.0,0.0,0.0,0.0,0.0,0.0,0.0,0.0,0.0,0.0,0.0,0.0,0.0,0.0,0.0,0.0,0.0,0.0,0.0,0.0,0.0,0.0,0.0,0.0,0.0,0.0,0.0,0.0,0.0,-6.2279,-6.2381,0.0,0.0,0.0,0.0,0.0,0.0,0.0,0.0,0.0,0.0,0.0,0.0,0.0,0.0,-6.7633,-6.7734,-6.8208,-6.8987,-6.9132,-6.9562,-7.0364,-7.0088,-7.079,-7.2165,-7.2033,0.0,-7.0135,-7.0766,0.0,0.0,0.0,0.0,0.0,0.0,0.0,0.0,0.0,0.0,0.0,0.0,0.0,0.0,0.0,0.0,0.0,0.0,0.0,0.0,0.0,0.0,0.0,0.0,0.0,0.0,0.0,0.0,0.0,0.0,0.0,0.0,0.0,0.0,0.0,0.0,-6.0953,-6.1119,-6.1119,-6.1119,-6.1119,-6.1119,-6.1119,-6.1119,-6.1119,-6.1119,0.0,0.0,0.0,0.0,0.0,0.0,0.0,0.0,0.0,0.0,0.0,0.0,0.0,0.0,0.0,0.0,0.0,0.0,0.0,0.0,0.0,0.0,0.0,0.0,0.0,0.0,0.0,0.0,0.0,0.0,0.0,0.0,0.0,0.0,0.0,0.0,0.0,0.0,0.0,-6.2753,-6.3024,-6.3024,-6.3666,-6.414,0.0,0.0,0.0,0.0,0.0,0.0,0.0,0.0,0.0,-6.7421,-6.7861,-6.8267,-6.8571,-6.8571,-6.8944,-6.9722,-6.9524,-6.9821,-7.0476,-6.9744,-6.9878,-7.0565,-7.0026,-6.9746,-6.9732,-7.0494,-7.0744,-7.0565,0.0,0.0,0.0,0.0,-7.0157,-6.9763,0.0,0.0,0.0,0.0,0.0,0.0,0.0,0.0,0.0,0.0,0.0,0.0,0.0,0.0,0.0,0.0,0.0,0.0,0.0,0.0,0.0,0.0,0.0,0.0,0.0,0.0,0.0,0.0,-6.1119,-6.1119,-6.1119,-6.1119,-6.1119,-6.1119,-6.1119,-6.1119,-6.1119,-6.1119,-6.1119,0.0,0.0,0.0,0.0,0.0,0.0,0.0,0.0,0.0,0.0,0.0,0.0,0.0,0.0,0.0,0.0,0.0,0.0,0.0,0.0,0.0,0.0,0.0,0.0,0.0,0.0,0.0,0.0,0.0,0.0,0.0,0.0,0.0,0.0,0.0,0.0,0.0,0.0,-6.3328,-6.3802,-6.3802,-6.4444,-6.4884,0.0,0.0,0.0,0.0,0.0,0.0,-6.7083,-6.7793,-6.8199,-6.8199,-6.8808,-6.9049,-6.8997,-6.9218,-6.9691,-7.0344,-7.0389,-7.079,-7.1442,-7.0089,-6.9585,-6.9805,-6.8729,-6.8673,-6.9452,-7.0235,-7.0058,-6.9269,-6.8747,-6.8321,-6.8072,-6.8072,-6.7953,-6.7668,0.0,0.0,0.0,0.0,0.0,0.0,0.0,0.0,0.0,0.0,0.0,0.0,0.0,0.0,0.0,0.0,0.0,0.0,0.0,0.0,0.0,0.0,0.0,0.0,0.0,0.0,0.0,-6.1119,-6.1119,-6.1119,-6.1119,-6.1119,-6.1119,-6.1119,-6.1119,-6.1119,-6.1119,-6.1119,-6.1119,-6.1119,0.0,0.0,0.0,0.0,0.0,0.0,0.0,0.0,0.0,0.0,0.0,0.0,0.0,0.0,0.0,0.0,0.0,0.0,0.0,0.0,0.0,0.0,0.0,0.0,0.0,0.0,0.0,0.0,0.0,0.0,0.0,0.0,0.0,0.0,0.0,0.0,0.0,0.0,0.0,-6.4546,-6.5189,0.0,0.0,0.0,0.0,-6.6745,-6.7421,-6.7827,-6.7827,-6.8605,-6.9045,-6.9045,-6.9079,-6.8942,-6.8619,-6.9648,-7.0354,-7.0789,-7.1787,-7.2687,-7.327,-7.1142,-7.0689,-7.154,-6.9413,-6.8504,-6.8594,-6.9436,-6.9732,-6.9684,-6.9651,-6.8993,-6.8072,-6.8072,-6.7446,-6.6596,0.0,0.0,0.0,0.0,0.0,0.0,0.0,0.0,0.0,0.0,0.0,0.0,0.0,0.0,0.0,0.0,0.0,0.0,0.0,0.0,0.0,0.0,0.0,0.0,0.0,0.0,-6.1119,-6.1119,-6.1119,-6.1119,-6.1119,-6.1119,-6.1119,-6.1119,-6.1119,-6.1119,-6.1119,-6.1119,-6.1119,-6.1119,-6.1119,-6.1119,0.0,0.0,0.0,0.0,0.0,0.0,0.0,0.0,0.0,0.0,0.0,0.0,0.0,0.0,0.0,0.0,0.0,0.0,0.0,0.0,0.0,0.0,0.0,0.0,0.0,0.0,0.0,0.0,0.0,0.0,0.0,0.0,0.0,0.0,0.0,0.0,0.0,-6.529,-6.5967,0.0,0.0,-6.6643,-6.7015,-6.7489,-6.776,-6.8132,-6.8639,-6.9383,-6.9682,-6.9403,-7.0579,-7.1014,-7.0644,-7.1061,-7.1327,-7.1439,-7.0413,-7.0001,-7.0261,-6.8762,-6.8685,-6.9636,-6.8816,-6.887,-6.9551,-6.9863,-6.9124,-6.7926,-6.7926,-6.7657,-6.7308,-6.7308,-6.712,-6.6765,0.0,0.0,0.0,0.0,0.0,0.0,0.0,0.0,0.0,0.0,0.0,0.0,0.0,0.0,0.0,0.0,0.0,0.0,0.0,0.0,0.0,0.0,0.0,0.0,0.0,-6.1119,-6.1119,-6.1119,-6.1119,-6.1119,-6.1119,-6.1119,-6.1119,-6.1119,-6.1119,-6.1119,-6.1119,-6.1119,-6.1119,-6.1119,-6.1119,-6.1119,-6.1119,0.0,0.0,0.0,0.0,0.0,0.0,0.0,0.0,0.0,0.0,0.0,0.0,0.0,0.0,0.0,0.0,0.0,0.0,0.0,0.0,0.0,0.0,0.0,0.0,0.0,0.0,0.0,0.0,0.0,0.0,0.0,0.0,0.0,0.0,0.0,-6.6068,-6.6068,-6.6508,-6.6914,-6.7151,-6.7184,-6.7489,-6.8233,-6.8538,-6.9011,-6.9789,-7.0187,-7.0528,-7.0903,-7.1404,-7.1534,-7.1275,-7.1225,-7.1156,-7.1029,-6.9936,-6.953,-6.9731,-6.8638,-6.8527,-6.9185,-6.8774,-6.902,-6.9699,-6.9699,-6.8886,-6.7592,-6.7497,-6.7229,-6.6919,-6.6919,-6.6919,-6.6919,0.0,0.0,0.0,0.0,0.0,0.0,0.0,0.0,0.0,0.0,0.0,0.0,0.0,0.0,0.0,0.0,0.0,0.0,0.0,0.0,0.0,0.0,0.0,0.0,0.0,-6.1119,-6.1119,-6.1119,-6.1119,-6.1119,-6.1119,-6.1119,-6.1119,-6.1119,-6.1119,-6.1119,-6.1119,-6.1119,-6.1119,-6.1119,-6.1119,-6.1119,-6.1119,0.0,0.0,0.0,0.0,0.0,0.0,0.0,0.0,0.0,0.0,0.0,0.0,0.0,0.0,0.0,0.0,0.0,0.0,0.0,0.0,0.0,0.0,0.0,0.0,0.0,0.0,0.0,0.0,0.0,0.0,0.0,0.0,0.0,-6.5831,-6.6339,-6.6812,-6.6846,-6.6846,-6.7075,-6.7818,-6.7929,-6.8267,-6.9069,-6.9823,-7.0567,-7.1345,-7.0984,-7.1589,-7.343,-7.1308,-7.019,-7.0241,-7.017,-6.9947,-6.9643,-7.0642,-7.1475,-7.2154,-7.1044,-7.0543,-7.0487,-6.9352,-6.8889,-6.8889,-6.8889,-6.8889,-6.8852,-6.8625,-6.7902,-6.6981,-6.6981,-6.6981,-6.6981,0.0,0.0,0.0,0.0,0.0,0.0,0.0,0.0,0.0,0.0,0.0,0.0,0.0,0.0,0.0,0.0,0.0,0.0,0.0,0.0,0.0,0.0,0.0,0.0,0.0,0.0,0.0,-6.1119,-6.1119,-6.1119,-6.1119,-6.1119,-6.1119,-6.1119,-6.1119,-6.1119,-6.1119,-6.1119,-6.1119,-6.1119,-6.1119,-6.1119,-6.1119,0.0,0.0,0.0,0.0,0.0,0.0,0.0,0.0,0.0,0.0,0.0,0.0,0.0,0.0,0.0,0.0,0.0,0.0,0.0,0.0,0.0,0.0,0.0,0.0,0.0,0.0,0.0,0.0,0.0,0.0,0.0,0.0,-6.6745,-6.6542,-6.6677,-6.7015,-6.7523,-6.759,-6.7603,-6.7602,-6.8314,-6.8974,-6.9503,-7.0433,-7.1548,-7.2834,-7.2018,-7.1983,-7.3007,-7.1676,-7.116,-7.1731,-7.0876,-7.0402,-7.0315,-6.9785,-6.9626,-6.9782,-6.9526,-6.9383,-6.9383,-6.9065,-6.8889,-6.8889,-6.8889,-6.8889,-6.8917,-6.8807,-6.8594,-6.8335,-6.8335,-6.8335,-6.8335,0.0,0.0,0.0,0.0,0.0,0.0,0.0,0.0,0.0,0.0,0.0,0.0,0.0,0.0,0.0,0.0,0.0,0.0,0.0,0.0,0.0,0.0,0.0,0.0,0.0,0.0,0.0,0.0,-6.1119,-6.1119,-6.1119,-6.1119,-6.1119,-6.1119,-6.1119,-6.1119,-6.1119,-6.1119,-6.1119,-6.1119,-6.1119,-6.1119,-6.1119,-6.1119,-6.1119,-6.1119,-6.1119,-6.1119,-6.1161,-6.1465,0.0,0.0,0.0,0.0,0.0,0.0,0.0,0.0,0.0,0.0,0.0,0.0,0.0,0.0,0.0,0.0,0.0,0.0,0.0,0.0,0.0,0.0,0.0,0.0,-6.7083,-6.7252,-6.7252,-6.7252,-6.7421,-6.7861,-6.8199,-6.8591,-6.9064,-6.9682,-7.0198,-7.0542,-7.1606,-7.233,-7.2543,-7.2332,-7.2365,-7.2634,-7.154,-7.1144,-7.1561,-7.0431,-6.9896,-6.9896,-6.9209,-6.8889,-6.8889,-6.8889,-6.8889,0.0,-6.8889,-6.8889,-6.8889,-6.8889,-6.8889,0.0,0.0,0.0,0.0,0.0,-6.8889,-6.8889,0.0,0.0,0.0,0.0,0.0,0.0,0.0,0.0,0.0,0.0,0.0,0.0,0.0,0.0,0.0,0.0,0.0,0.0,0.0,0.0,0.0,0.0,0.0,0.0,0.0,0.0,0.0,0.0,0.0,-6.1119,-6.1119,-6.1119,-6.1119,-6.1119,-6.1119,-6.1119,-6.1119,-6.1119,-6.1119,-6.1119,-6.1119,-6.1119,-6.1119,-6.1119,-6.1119,-6.1119,-6.1119,-6.1119,-6.1127,-6.1342,0.0,0.0,0.0,0.0,0.0,0.0,0.0,0.0,0.0,0.0,0.0,0.0,0.0,0.0,0.0,0.0,0.0,0.0,0.0,0.0,0.0,0.0,0.0,0.0,-6.7489,-6.7929,-6.803,-6.8166,-6.8267,-6.8267,-6.891,-6.9881,-7.1233,-7.1367,-7.1539,-7.1885,-7.284,-7.2949,-7.1779,0.0,0.0,0.0,0.0,-7.0487,-7.0599,-6.9468,-6.8889,-6.8889,-6.8889,-6.8889,-6.8889,-6.8889,-6.8889,-6.8889,-6.8889,-6.8889,-6.8889,-6.8889,-6.8889,-6.8889,-6.8889,-6.8889,-6.8889,-6.8889,-6.8889,-6.8889,0.0,0.0,0.0,0.0,0.0,0.0,0.0,0.0,0.0,0.0,0.0,0.0,0.0,0.0,0.0,0.0,0.0,0.0,0.0,0.0,0.0,0.0,0.0,0.0,0.0,0.0,0.0,0.0,0.0,0.0,-6.1119,-6.1119,-6.1119,-6.1119,-6.1119,-6.1119,-6.1119,-6.1119,-6.1119,-6.1119,-6.1119,-6.1119,-6.1119,-6.1119,-6.1119,-6.1119,-6.1119,-6.1119,-6.1161,-6.1506,-6.1669,-6.175,-6.2223,0.0,0.0,0.0,0.0,0.0,0.0,0.0,0.0,0.0,0.0,0.0,0.0,0.0,0.0,0.0,0.0,0.0,0.0,0.0,0.0,-6.759,-6.7793,-6.8132,-6.8774,-6.9891,-7.0635,-7.0635,-7.0804,-7.1096,-7.1708,-7.1745,-7.2014,-7.273,-7.2911,-7.3538,-7.4746,-7.3317,0.0,-7.365,-7.0767,-6.9698,-7.0599,-6.9468,-6.8889,-6.8889,0.0,0.0,-6.8889,-6.8889,-6.8889,-6.8889,-6.8889,-6.8889,-6.8889,-6.8889,-6.8889,-6.8889,-6.8889,-6.8889,-6.8889,-6.8889,-6.8889,-6.8889,0.0,0.0,0.0,0.0,0.0,0.0,0.0,0.0,0.0,0.0,0.0,0.0,0.0,0.0,0.0,0.0,0.0,0.0,0.0,0.0,0.0,0.0,0.0,0.0,0.0,0.0,0.0,0.0,0.0,0.0,0.0,-6.1119,-6.1119,-6.1119,-6.1119,-6.1119,-6.1119,-6.1119,-6.1119,-6.1119,-6.1119,-6.1119,-6.1119,-6.1119,-6.1119,-6.1119,-6.1119,-6.1119,-6.1161,-6.1424,-6.1628,-6.175,-6.211,-6.2302,-6.2516,0.0,0.0,0.0,0.0,0.0,0.0,0.0,0.0,0.0,0.0,0.0,0.0,0.0,0.0,-6.6914,0.0,0.0,-6.759,-6.8368,-6.8808,-6.9316,-7.0094,-7.1142,-7.1718,-7.1345,-7.1954,-7.2431,-7.2381,-7.2382,-7.2431,-7.2649,-7.263,-7.2794,-7.3121,-7.2632,-7.2047,-7.1452,-7.0318,-6.9756,-6.9756,-6.9209,-6.8889,-6.8889,-6.9228,-6.9382,-6.9413,-6.9751,-6.9905,-6.9905,-6.9905,-6.9905,-6.9874,-6.9536,-6.9197,-6.8889,-6.8889,-6.8889,-6.8889,-6.8889,-6.8889,-6.8889,0.0,0.0,0.0,0.0,0.0,0.0,0.0,0.0,0.0,0.0,0.0,0.0,0.0,0.0,0.0,0.0,0.0,0.0,0.0,0.0,0.0,0.0,0.0,0.0,0.0,0.0,0.0,0.0,0.0,0.0,0.0,0.0,-6.1119,-6.1119,-6.1119,-6.1119,-6.1119,-6.1119,-6.1119,-6.1119,-6.1119,-6.1119,-6.1119,-6.1119,-6.1119,-6.1119,-6.1119,-6.1119,-6.1161,-6.1375,-6.1547,-6.175,-6.1997,-6.233,-6.2753,-6.3497,-6.4241,0.0,0.0,0.0,0.0,0.0,0.0,0.0,0.0,0.0,-6.6812,-6.6812,-6.6914,-6.7218,-6.7793,-6.803,-6.8402,-6.918,-6.9925,-7.0669,-7.1413,-7.2076,-7.2367,-7.1977,-7.3003,-7.3575,-7.3177,-7.3094,-7.2973,-7.2652,-7.242,-7.1886,-7.0989,-7.1561,-7.1123,-6.9267,-6.9896,-6.9901,-6.9074,-6.9074,-6.9135,-6.9289,-6.9843,-7.009,-7.012,-7.0644,-7.089,-7.089,-7.089,-7.089,-7.0859,-7.0305,-6.9782,-6.9289,-6.9289,-6.9289,-6.9259,-6.8982,-6.8889,-6.8889,0.0,0.0,0.0,0.0,0.0,0.0,0.0,0.0,0.0,0.0,0.0,0.0,0.0,0.0,0.0,0.0,0.0,0.0,0.0,0.0,0.0,0.0,0.0,0.0,0.0,0.0,0.0,0.0,0.0,0.0,0.0,0.0,0.0,-6.1119,-6.1119,-6.1119,-6.1119,-6.1119,-6.1119,-6.1119,-6.1119,-6.1119,-6.1119,-6.1119,-6.1119,-6.1119,-6.1119,-6.1119,-6.1161,-6.1506,-6.1669,-6.179,-6.2223,-6.2854,-6.3531,-6.4275,0.0,-6.573,-6.6474,-6.6745,0.0,-6.6812,-6.6812,-6.6812,0.0,0.0,-6.6812,-6.6812,-6.732,-6.7793,-6.7895,-6.847,-6.9214,-6.9958,-7.0703,-7.1447,-7.2191,-7.261,-7.3171,-7.4114,-7.439,-7.4301,-7.394,-7.3906,-7.3889,-7.3803,-7.2842,-7.2261,-7.21,-7.1288,-7.0655,-7.0431,-6.9526,-6.9343,-6.9782,-6.9782,-7.009,-7.0675,-7.0767,-7.0798,-7.0798,-7.0859,-7.089,-7.089,-7.089,-7.089,-7.089,-7.0828,-7.0736,-7.0675,-7.0675,-7.0675,-7.0521,-6.932,-6.8889,-6.8889,0.0,0.0,0.0,0.0,0.0,0.0,0.0,0.0,0.0,0.0,0.0,0.0,0.0,0.0,0.0,0.0,0.0,0.0,0.0,0.0,0.0,0.0,0.0,0.0,0.0,0.0,0.0,0.0,0.0,0.0,0.0,0.0,0.0,-6.1119,-6.1119,-6.1119,-6.1119,-6.1119,-6.1119,-6.1119,-6.1119,-6.1119,-6.1119,-6.1119,-6.1119,-6.1119,-6.1252,-6.1293,0.0,0.0,-6.1877,-6.1951,-6.2302,-6.2922,-6.3666,-6.4377,-6.5121,0.0,-6.6609,0.0,0.0,0.0,-6.6812,-6.6812,-6.6812,-6.6812,-6.6948,-6.7354,-6.7692,-6.8166,-6.9079,-6.9519,-7.0128,0.0,-7.1751,-7.236,-7.351,-7.3217,-7.2978,-7.3257,-7.3824,-7.3907,-7.307,-7.2998,-7.2737,-7.2047,-7.0989,-7.0599,-7.1319,-7.0237,-6.977,-7.0175,-6.9738,-6.9782,-7.049,-7.049,-7.0613,-7.0921,-7.1321,-7.1536,-7.1536,-7.1937,-7.2121,-7.2121,-7.2121,-7.1875,-7.1536,-7.1536,-7.129,-7.089,-7.089,-7.089,-7.0828,-7.0274,-6.9813,-6.9474,0.0,0.0,0.0,0.0,0.0,0.0,0.0,0.0,0.0,0.0,0.0,0.0,0.0,0.0,0.0,0.0,0.0,0.0,0.0,0.0,0.0,0.0,0.0,0.0,0.0,0.0,0.0,0.0,0.0,0.0,0.0,0.0,0.0,0.0,-6.1119,-6.1119,-6.1119,-6.1119,-6.1119,-6.1119,-6.1119,-6.1119,-6.1119,-6.1119,-6.1127,-6.121,-6.1342,-6.1383,0.0,0.0,-6.1997,-6.207,-6.2539,-6.3226,-6.3971,-6.4681,-6.5425,-6.6102,-6.6677,0.0,0.0,-6.6812,-6.6812,-6.6812,-6.6812,-6.6981,-6.7252,-6.7793,-6.8233,-6.8876,-6.9992,-7.0534,0.0,-7.2225,-7.2732,-7.3375,-7.4458,-7.3785,-7.3208,-7.3276,-7.3701,-7.3548,-7.242,-7.2842,-7.2526,-7.0711,-7.0124,-6.9896,-7.0124,-6.9538,-6.9382,-6.9874,-7.0059,-7.0521,-7.1198,-7.1198,-7.129,-7.1475,-7.1998,-7.2244,-7.2275,-7.2768,-7.2983,-7.2983,-7.2983,-7.2706,-7.2244,-7.2244,-7.1937,-7.1475,-7.1475,-7.1475,-7.1475,-7.1475,-7.0921,-7.0182,0.0,0.0,0.0,0.0,0.0,0.0,0.0,0.0,0.0,0.0,0.0,0.0,0.0,0.0,0.0,0.0,0.0,0.0,0.0,0.0,0.0,0.0,0.0,0.0,0.0,0.0,0.0,0.0,0.0,0.0,0.0,0.0,0.0,0.0,0.0,-6.1119,-6.1119,-6.1119,-6.1119,-6.1119,-6.1119,-6.1119,-6.1119,-6.1119,-6.121,-6.1383,-6.1383,0.0,0.0,0.0,-6.1997,-6.2171,-6.3147,-6.3971,0.0,-6.5425,-6.6203,-6.6779,0.0,0.0,-6.6812,-6.6812,-6.6812,-6.6812,-6.6812,-6.7354,-6.7861,-6.7895,-6.9079,-7.0128,-7.0195,-7.1379,-7.236,-7.2394,-7.3612,-7.4559,-7.4593,-7.4219,-7.4356,-7.5484,-7.4638,-7.3548,0.0,-7.4306,-7.4206,-7.0878,-7.1561,-7.1233,-6.9034,-6.9505,-6.9874,-6.9905,-7.0521,-7.1229,-7.1937,-7.1937,-7.2275,-7.2922,-7.2952,-7.2952,-7.2952,-7.2983,-7.2983,-7.2983,-7.2983,-7.2983,-7.2952,-7.2952,-7.2952,-7.2922,-7.2922,-7.2922,-7.2922,-7.2922,-7.206,-7.089,0.0,0.0,0.0,0.0,0.0,0.0,0.0,0.0,0.0,0.0,0.0,0.0,0.0,0.0,0.0,0.0,0.0,0.0,0.0,0.0,0.0,0.0,0.0,0.0,0.0,0.0,0.0,0.0,0.0,0.0,0.0,0.0,0.0,0.0,0.0,0.0,-6.1119,-6.1119,-6.1119,-6.1119,-6.1119,-6.1119,-6.1119,-6.1252,-6.1342,-6.1424,0.0,0.0,0.0,0.0,0.0,-6.2403,-6.322,-6.4005,-6.485,-6.6068,-6.6609,-6.6812,0.0,0.0,-6.6812,-6.6812,-6.7184,-6.7523,-6.7523,-6.8132,-6.8842,-6.9316,-6.9823,-7.0331,-7.0838,-7.1751,-7.2563,-7.3037,-7.395,-7.4796,-7.527,-7.4553,-7.4139,-7.4539,-7.3599,0.0,0.0,0.0,0.0,-7.0767,-7.0989,-7.1013,-7.0725,-7.0918,-7.1073,-7.1289,-7.1506,-7.1937,-7.2645,-7.2645,-7.2768,-7.2983,-7.2983,-7.2983,-7.2983,-7.2983,-7.2983,-7.2983,-7.2983,-7.2983,-7.2983,-7.2983,-7.2983,-7.2983,-7.2983,-7.2983,-7.2983,-7.2983,-7.2675,-7.2214,0.0,0.0,0.0,0.0,0.0,0.0,0.0,0.0,0.0,0.0,0.0,0.0,0.0,0.0,0.0,0.0,0.0,0.0,0.0,0.0,0.0,0.0,0.0,0.0,0.0,0.0,0.0,0.0,0.0,0.0,0.0,0.0,0.0,0.0,0.0,0.0,-6.1119,-6.1119,-6.1119,-6.1119,-6.1169,-6.121,-6.121,-6.1424,-6.1547,0.0,0.0,0.0,0.0,0.0,0.0,0.0,-6.3599,-6.458,-6.5561,-6.6542,-6.6812,-6.6812,-6.6812,-6.6812,-6.688,-6.7151,-6.7557,-6.7963,-6.8267,-6.8944,-6.962,-7.0094,-7.0398,-7.0737,-7.121,-7.2124,-7.2935,-7.3409,-7.4322,-7.5168,-7.5642,-7.5064,-7.4588,-7.4588,-7.3599,0.0,0.0,0.0,0.0,-7.1233,-7.1044,-7.1168,-7.1554,-7.1688,-7.2058,-7.2604,-7.2428,-7.2768,-7.3661,-7.32,-7.2983,-7.2983,-7.2983,-7.2983,-7.2983,-7.2983,-7.2983,-7.2983,-7.2983,-7.2983,-7.2983,-7.2983,-7.2983,-7.2983,-7.2983,-7.2983,-7.2983,-7.2983,-7.2983,-7.2922,0.0,0.0,0.0,0.0,0.0,0.0,0.0,0.0,0.0,0.0,0.0,0.0,0.0,0.0,0.0,0.0,0.0,0.0,0.0,0.0,0.0,0.0,0.0,0.0,0.0,0.0,0.0,0.0,0.0,0.0,0.0,0.0,0.0,0.0,0.0,0.0,0.0,-6.102,-6.1053,-6.1094,-6.1301,-6.1424,-6.1424,-6.1628,0.0,0.0,0.0,0.0,0.0,0.0,0.0,0.0,0.0,-6.5628,-6.6812,-6.6812,-6.6812,-6.6812,-6.6812,-6.6846,-6.7015,-6.7726,-6.7963,-6.8233,-6.8977,-6.9722,-7.0263,-7.0263,-7.0804,-7.1312,0.0,0.0,-7.3477,-7.3477,-7.4728,-7.5709,-7.5709,-7.5709,-7.5709,0.0,0.0,0.0,0.0,0.0,0.0,-7.2538,0.0,-7.1755,-7.173,-7.2008,-7.2726,-7.3791,-7.3319,-7.36,-7.4771,-7.36,-7.3045,-7.3107,-7.3045,-7.2983,-7.2983,-7.2983,-7.2983,-7.2983,-7.2983,-7.2983,-7.2983,-7.2983,-7.2983,-7.2983,-7.3045,-7.3045,-7.2983,-7.3045,-7.3045,-7.2983,0.0,0.0,0.0,0.0,0.0,0.0,0.0,0.0,0.0,0.0,0.0,0.0,0.0,0.0,0.0,0.0,0.0,0.0,0.0,0.0,0.0,0.0,0.0,0.0,0.0,0.0,0.0,0.0,0.0,0.0,0.0,0.0,0.0,0.0,0.0,0.0,0.0,-6.0229,-6.0503,-6.0577,0.0,-6.1628,-6.1628,0.0,0.0,0.0,0.0,0.0,0.0,0.0,0.0,0.0,0.0,-6.5628,-6.6812,-6.6812,-6.6812,-6.6812,-6.6812,-6.7218,-6.7658,-6.7861,-6.8741,-6.9654,-6.9857,-7.05,-7.1041,-7.1041,-7.1176,-7.1312,0.0,0.0,0.0,-7.3477,-7.4728,0.0,-7.5709,-7.5709,0.0,-7.5709,0.0,-7.434,-7.5161,-7.3464,0.0,0.0,-7.4794,-7.404,-7.3697,-7.4285,-7.462,-7.4545,-7.3568,-7.36,-7.4771,-7.36,-7.3416,-7.4325,-7.3447,-7.2983,-7.2983,-7.2983,-7.2983,-7.2983,-7.2983,-7.2983,-7.2983,-7.2983,-7.2983,-7.3107,-7.3995,-7.3752,-7.3107,-7.3995,-7.3783,-7.2983,0.0,0.0,0.0,0.0,0.0,0.0,0.0,0.0,0.0,0.0,0.0,0.0,0.0,0.0,0.0,0.0,0.0,0.0,0.0,0.0,0.0,0.0,0.0,0.0,0.0,0.0,0.0,0.0,0.0,0.0,0.0,0.0,0.0,0.0,0.0,0.0,0.0,0.0,0.0,0.0,0.0,0.0,0.0,0.0,0.0,0.0,0.0,0.0,0.0,0.0,0.0,-6.4174,-6.4512,-6.5392,-6.6373,-6.6711,0.0,-6.688,-6.7218,-6.759,-6.8064,-6.8741,-6.9553,-7.0263,-7.0601,-7.1007,-7.1312,-7.1312,-7.1312,0.0,0.0,0.0,0.0,0.0,0.0,0.0,-7.5709,-7.5709,-7.5709,0.0,-7.4687,0.0,-7.558,-7.4056,-7.4133,0.0,-7.5635,-7.4841,-7.485,-7.5056,-7.5349,-7.556,-7.3905,-7.3324,-7.3995,-7.3874,-7.4116,-7.4771,-7.4624,-7.4564,-7.4564,-7.3995,-7.3783,-7.3783,0.0,-7.2983,-7.2983,-7.2983,-7.3324,-7.3874,-7.4564,-7.4743,-7.4564,-7.4743,-7.4385,-7.3722,0.0,0.0,0.0,0.0,0.0,0.0,0.0,0.0,0.0,0.0,0.0,0.0,0.0,0.0,0.0,0.0,0.0,0.0,0.0,0.0,0.0,0.0,0.0,0.0,0.0,0.0,0.0,0.0,0.0,0.0,0.0,0.0,0.0,0.0,0.0,0.0,0.0,0.0,0.0,0.0,0.0,0.0,0.0,0.0,0.0,0.0,0.0,0.0,0.0,0.0,-6.2888,-6.3632,-6.4377,-6.5121,-6.5831,-6.6576,-6.6812,-6.6981,-6.7692,-6.7996,-6.8402,-6.9823,-7.0263,-7.05,-7.1176,-7.1312,-7.1312,-7.1312,0.0,-7.1312,-7.1312,0.0,-7.3375,-7.3477,0.0,-7.5574,-7.5676,-7.5709,-7.5709,-7.5709,-7.4819,-7.4588,-7.558,-7.4886,-7.5139,-7.6913,-7.5856,-7.5256,-7.5709,-7.5291,-7.5475,-7.6338,-7.4476,-7.3539,-7.3722,-7.4445,-7.4889,-7.5066,-7.611,-7.6508,-7.6338,-7.53,-7.4889,-7.4948,0.0,0.0,-7.3508,-7.3508,-7.4116,-7.5066,-7.5242,-7.5707,-7.6281,-7.5359,-7.483,-7.4385,0.0,0.0,0.0,0.0,0.0,0.0,0.0,0.0,0.0,0.0,-5.7025,-5.668,0.0,0.0,0.0,0.0,0.0,0.0,0.0,0.0,0.0,0.0,0.0,0.0,0.0,0.0,0.0,0.0,0.0,0.0,0.0,0.0,0.0,0.0,0.0,0.0,0.0,0.0,0.0,0.0,0.0,0.0,0.0,0.0,0.0,0.0,0.0,0.0,0.0,0.0,-6.2888,-6.3632,-6.4377,-6.5121,-6.5831,-6.6576,-6.6812,-6.6981,-6.7692,-6.8402,-6.9113,-6.9958,-7.0669,-7.1142,-7.1278,-7.1312,0.0,0.0,0.0,-7.1312,-7.1312,-7.2022,0.0,-7.3375,0.0,0.0,0.0,0.0,-7.5709,0.0,0.0,0.0,0.0,0.0,0.0,0.0,0.0,0.0,-7.702,-7.6535,-7.5938,-7.5125,-7.565,-7.6451,-7.7456,-7.5675,-7.53,-7.6281,-7.6508,-7.611,-7.5125,-7.4889,-7.5359,-7.6224,0.0,0.0,-7.5995,-7.5995,-7.611,-7.6395,-7.7401,-7.6701,-7.5183,-7.5995,-7.5039,-7.3262,0.0,0.0,0.0,0.0,0.0,0.0,0.0,-5.8209,-5.7884,-5.7625,-5.7063,-5.6834,-5.7139,-5.6872,0.0,0.0,0.0,0.0,0.0,0.0,0.0,0.0,0.0,0.0,0.0,0.0,0.0,0.0,0.0,0.0,0.0,0.0,0.0,0.0,0.0,0.0,0.0,0.0,0.0,0.0,0.0,0.0,0.0,0.0,0.0,0.0,0.0,0.0,0.0,0.0,-6.2618,-6.3125,-6.4241,-6.485,-6.5358,-6.6474,-6.6812,-6.7049,-6.8199,-6.8808,-6.9383,-7.05,-7.1041,-7.1312,-7.1312,0.0,0.0,0.0,0.0,-7.1312,-7.1312,0.0,0.0,0.0,0.0,0.0,0.0,0.0,0.0,0.0,0.0,0.0,0.0,0.0,0.0,0.0,0.0,0.0,-7.7901,-7.7642,-7.6734,-7.483,-7.6589,-7.7511,-7.7456,-7.6925,-7.6925,-7.7566,-7.8164,-7.7839,-7.6645,-7.6645,-7.6645,-7.6565,-7.5995,0.0,-7.565,-7.565,-7.6053,-7.6677,-7.7236,-7.7511,-7.7588,-7.7566,-7.6813,-7.5707,0.0,0.0,0.0,0.0,0.0,0.0,0.0,-5.8351,-5.7772,-5.7772,-5.7252,-5.7063,-5.7551,-5.7063,-5.6757,0.0,0.0,0.0,0.0,0.0,0.0,0.0,0.0,0.0,0.0,0.0,0.0,0.0,0.0,0.0,0.0,0.0,0.0,0.0,0.0,0.0,0.0,0.0,0.0,0.0,0.0,0.0,0.0,0.0,0.0,0.0,0.0,0.0,0.0,0.0,-6.2381,-6.2651,-6.414,-6.4613,-6.4884,-6.6373,-6.6812,-6.7117,-6.847,-6.8842,-6.918,-7.05,-7.0838,-7.0872,-7.1041,-7.1075,0.0,0.0,-7.1312,-7.1312,-7.1312,0.0,0.0,0.0,0.0,0.0,0.0,0.0,0.0,0.0,0.0,0.0,0.0,0.0,0.0,0.0,0.0,0.0,0.0,-7.8624,-7.7785,-7.5618,-7.7401,-7.8056,-7.7401,-7.8089,-7.8411,-7.8411,-7.9632,-7.958,-7.8411,-7.8411,-7.8002,-7.7346,-7.7125,0.0,0.0,-7.5963,-7.6532,-7.7401,-7.7401,-7.8358,-7.9683,-7.873,-7.825,-7.7893,0.0,0.0,0.0,0.0,0.0,0.0,0.0,-5.8386,-5.8351,-5.8351,-5.7848,-5.7551,-5.7588,-5.7063,-5.6911,0.0,0.0,0.0,0.0,0.0,0.0,0.0,0.0,0.0,0.0,0.0,0.0,0.0,0.0,0.0,0.0,0.0,0.0,0.0,0.0,0.0,0.0,0.0,0.0,0.0,0.0,0.0,0.0,0.0,0.0,0.0,0.0,0.0,0.0,0.0,0.0,-6.2651,-6.414,-6.4613,-6.4884,-6.6373,0.0,0.0,-6.7793,-6.7996,-6.8233,-6.9079,-6.9316,-6.9485,-7.0128,0.0,0.0,0.0,-7.1312,-7.1312,-7.1312,-7.1379,0.0,0.0,0.0,0.0,0.0,0.0,0.0,0.0,0.0,0.0,0.0,0.0,0.0,0.0,0.0,0.0,0.0,-7.9425,-7.9425,-7.811,-7.8304,-7.8836,-7.987,-7.8922,-7.8411,-7.8411,-7.9632,-7.958,-7.8411,-7.8411,-7.8974,-7.9819,0.0,0.0,0.0,-7.9683,-7.9734,-7.987,-7.987,-7.934,-7.8571,-7.8465,-7.773,-7.6734,0.0,0.0,0.0,0.0,0.0,0.0,-5.8978,-5.8632,-5.828,-5.7957,-5.7735,-5.7588,-5.7588,-5.7402,-5.7176,-5.7063,0.0,0.0,0.0,0.0,0.0,0.0,0.0,0.0,0.0,0.0,0.0,0.0,0.0,0.0,0.0,0.0,0.0,0.0,0.0,0.0,0.0,0.0,0.0,0.0,0.0,0.0,0.0,0.0,0.0,0.0,0.0,0.0,0.0,0.0,0.0,0.0,-6.414,-6.4613,0.0,0.0,-6.6812,-6.6981,-6.7692,-6.7895,-6.8098,-6.891,-6.9113,-6.9282,-7.0026,0.0,0.0,-7.1142,-7.1312,-7.1312,-7.1312,-7.1312,-7.1785,0.0,0.0,0.0,0.0,0.0,0.0,0.0,0.0,0.0,0.0,0.0,0.0,0.0,0.0,0.0,0.0,-7.9921,-7.9632,-7.8465,-7.9131,-7.9683,-8.0209,-7.9734,-7.9477,-7.9477,-7.9972,-7.958,-7.8411,-7.9131,-7.9373,-7.9131,0.0,0.0,0.0,-7.9131,-7.9131,-7.9131,-7.9131,-7.9236,-7.9477,-7.9477,-7.9184,-7.873,0.0,0.0,0.0,0.0,0.0,-5.9551,-5.9551,-5.9046,-5.8457,-5.7884,-5.7698,-5.7551,-5.7364,-5.7327,-5.7176,-5.6719,-5.6872,0.0,0.0,0.0,0.0,0.0,0.0,0.0,0.0,0.0,-5.7252,-5.7402,-5.7439,0.0,0.0,0.0,0.0,0.0,0.0,0.0,0.0,0.0,0.0,0.0,0.0,0.0,0.0,0.0,0.0,0.0,0.0,0.0,0.0,0.0,0.0,0.0,0.0,0.0,0.0,0.0,-6.6812,-6.6914,-6.7455,-6.7557,-6.7726,-6.8267,-6.8436,-6.8673,0.0,0.0,0.0,-7.1109,-7.1312,-7.1312,-7.1312,-7.1312,-7.1718,0.0,0.0,0.0,0.0,0.0,0.0,0.0,0.0,0.0,0.0,0.0,0.0,0.0,0.0,0.0,0.0,0.0,-7.9819,-7.8974,-7.9734,-8.0209,-8.0209,-8.0209,-8.0209,-8.0209,-8.0209,-7.9734,-7.8974,-7.9819,-7.9768,-7.8974,0.0,0.0,0.0,-7.8922,-7.8922,-7.8922,-7.8922,-7.9477,-8.0209,-8.0209,-8.0209,-8.0209,0.0,0.0,0.0,0.0,0.0,0.0,-6.0107,-5.965,-5.908,-5.8492,-5.792,-5.7364,-5.6757,-5.6719,-5.6719,-5.668,-5.7252,0.0,0.0,0.0,0.0,0.0,0.0,0.0,0.0,0.0,-5.7588,-5.7588,-5.7808,-5.7881,-5.7881,0.0,0.0,0.0,0.0,0.0,0.0,0.0,0.0,0.0,0.0,0.0,0.0,0.0,0.0,0.0,0.0,0.0,0.0,0.0,0.0,0.0,0.0,0.0,0.0,0.0,-6.6812,-6.6812,-6.6812,-6.6812,-6.6812,-6.6846,-6.6846,-6.7252,0.0,0.0,0.0,-7.1007,-7.1312,-7.1312,-7.1312,-7.1312,-7.1548,-7.2293,0.0,0.0,0.0,0.0,0.0,0.0,0.0,0.0,0.0,0.0,0.0,0.0,0.0,0.0,0.0,0.0,-8.0209,-8.0209,-8.0209,-8.0209,-8.0209,-8.0209,-8.0209,-8.0209,-8.0209,-8.0209,-8.0209,-8.0209,-8.0209,0.0,0.0,0.0,0.0,-8.0209,-8.0209,-8.0209,-8.0209,-8.0209,-8.0209,-8.0209,-8.0209,-8.0209,0.0,0.0,0.0,0.0,0.0,0.0,0.0,-5.9943,-5.965,-5.908,-5.8527,-5.792,-5.7364,-5.7327,-5.7139,-5.6719,-5.6872,0.0,0.0,0.0,0.0,0.0,0.0,0.0,0.0,0.0,-5.7588,-5.7588,-5.7808,-5.7881,-5.7881,-5.7881,-5.7881,0.0,0.0,0.0,0.0,0.0,0.0,0.0,0.0,0.0,0.0,0.0,0.0,0.0,0.0,0.0,0.0,0.0,0.0,0.0,0.0,0.0,0.0,0.0,0.0,0.0,-6.6812,-6.6812,-6.6812,-6.6812,-6.6812,-6.7218,-6.8741,0.0,0.0,0.0,-7.1312,-7.1312,-7.1312,-7.1312,-7.1548,-7.2293,-7.3003,0.0,0.0,0.0,0.0,0.0,0.0,0.0,0.0,0.0,0.0,0.0,0.0,0.0,0.0,0.0,-8.0209,-8.0209,-8.0209,-8.0209,-8.0209,-8.0209,-8.0209,-8.0209,-8.0209,-8.0209,-8.0209,-8.0209,0.0,0.0,0.0,0.0,0.0,-8.0209,-8.0209,-8.0209,-8.0209,-8.0209,-8.0209,-8.0209,-8.0209,-8.0209,0.0,0.0,0.0,0.0,0.0,0.0,0.0,-6.0107,-5.9911,-5.9385,-5.8771,-5.8209,-5.7662,-5.7588,-5.7364,-5.6757,-5.6911,0.0,0.0,0.0,0.0,0.0,0.0,0.0,-5.7402,-5.7625,-5.7698,-5.7698,-5.7845,-5.7881,-5.7881,-5.7881,-5.7881,-5.7881,-5.7881,0.0,0.0,0.0,0.0,0.0,0.0,0.0,-6.0182,0.0,0.0,0.0,0.0,0.0,0.0,0.0,0.0,0.0,0.0,0.0,0.0,0.0,-6.6812,0.0,0.0,-6.6812,-6.6812,-6.6812,-6.6812,0.0,0.0,0.0,0.0,0.0,0.0,0.0,-7.1312,-7.1312,-7.1447,-7.1921,-7.2834,0.0,0.0,0.0,0.0,0.0,0.0,0.0,0.0,0.0,0.0,0.0,0.0,0.0,0.0,0.0,-7.9363,-7.9363,-7.9904,-8.0209,-8.0209,-8.0209,-8.0209,-8.0209,-8.0209,-8.0209,-8.0209,-8.0209,0.0,0.0,0.0,0.0,0.0,-8.0209,-8.0209,-8.0209,-8.0209,-8.004,-7.9769,-7.9769,-7.96,-7.9363,0.0,0.0,0.0,0.0,0.0,0.0,0.0,-6.0107,-5.9911,-5.9418,-5.8806,-5.8209,-5.7735,-5.7588,-5.7327,-5.6757,0.0,0.0,0.0,0.0,0.0,0.0,0.0,0.0,-5.7625,-5.7808,-5.7881,-5.7881,-5.7881,-5.7881,-5.7881,-5.7881,-5.7881,-5.7881,-5.7881,-5.7881,0.0,0.0,0.0,0.0,0.0,-5.9505,0.0,0.0,0.0,0.0,0.0,0.0,0.0,0.0,0.0,0.0,0.0,0.0,0.0,0.0,0.0,0.0,0.0,0.0,0.0,0.0,0.0,0.0,0.0,0.0,0.0,0.0,0.0,0.0,0.0,-7.1312,-7.1312,-7.1312,-7.2529,0.0,0.0,0.0,0.0,0.0,0.0,0.0,0.0,0.0,0.0,0.0,0.0,0.0,0.0,0.0,0.0,-7.7976,-7.9329,-8.004,-8.004,-8.004,-8.004,-8.004,-8.004,-8.004,-8.004,-8.004,0.0,0.0,0.0,0.0,0.0,-8.004,-8.004,-8.004,-8.004,-7.9634,-7.9025,-7.9025,-7.8585,-7.7976,0.0,0.0,0.0,0.0,0.0,0.0,0.0,0.0,0.0,0.0,-5.9046,-5.8351,-5.8244,-5.7406,-5.6834,0.0,0.0,0.0,0.0,0.0,0.0,0.0,0.0,0.0,-5.7808,-5.7881,-5.7881,-5.7881,-5.7881,-5.7881,-5.7881,-5.7881,-5.7881,-5.7881,-5.7881,-5.7881,0.0,0.0,0.0,0.0,-5.9336,-5.9945,0.0,0.0,0.0,0.0,-6.2381,-6.2381,0.0,0.0,0.0,0.0,0.0,0.0,0.0,0.0,-6.6812,-6.6812,-6.6812,0.0,-6.6812,-6.6812,-6.6812,-6.7049,0.0,0.0,0.0,0.0,0.0,0.0,0.0,0.0,0.0,0.0,0.0,0.0,0.0,0.0,0.0,0.0,0.0,0.0,0.0,0.0,0.0,0.0,0.0,0.0,0.0,0.0,0.0,-7.7976,-7.8314,-7.8517,-7.8517,-7.8517,-7.8517,-7.8517,-7.8517,-7.8517,-7.8517,-7.8517,0.0,0.0,0.0,0.0,-7.8517,-7.8517,-7.8517,-7.8517,-7.8517,-7.8416,-7.8247,-7.8247,-7.8145,-7.7976,0.0,0.0,0.0,0.0,0.0,0.0,0.0,0.0,0.0,0.0,0.0,0.0,0.0,0.0,0.0,0.0,0.0,0.0,0.0,0.0,0.0,0.0,0.0,-5.7698,-5.7881,-5.7881,-5.7881,-5.7881,-5.7881,-5.7881,-5.7881,-5.7881,-5.7881,-5.7881,-5.7881,-5.7881,-5.7881,-5.7881,-5.8084,-5.849,-5.9641,0.0,0.0,0.0,0.0,0.0,-6.2381,-6.2381,0.0,-6.2381,-6.3091,-6.4072,0.0,0.0,0.0,0.0,-6.6812,-6.6812,-6.6812,-6.6812,-6.6812,-6.6812,-6.6812,-6.7015,-6.7726,0.0,0.0,0.0,0.0,0.0,0.0,0.0,0.0,0.0,0.0,0.0,0.0,0.0,0.0,0.0,0.0,0.0,0.0,0.0,0.0,0.0,0.0,0.0,0.0,0.0,0.0,0.0,-7.6927,-7.7266,-7.7976,-7.7976,-7.7976,-7.7976,-7.7976,-7.7976,-7.7976,-7.7976,0.0,0.0,0.0,0.0,-7.7976,-7.7976,-7.7976,-7.7976,-7.7976,-7.7773,-7.7502,-7.7502,-7.7266,-7.6927,0.0,0.0,0.0,0.0,0.0,0.0,0.0,0.0,0.0,0.0,0.0,0.0,0.0,0.0,0.0,0.0,0.0,0.0,0.0,0.0,0.0,0.0,-5.7662,-5.7735,-5.7881,-5.7881,-5.7881,-5.7881,-5.7881,-5.7881,-5.7881,-5.7881,-5.7881,-5.7881,-5.7881,-5.7881,-5.7881,-5.7881,-5.8321,-5.9066,-5.981,0.0,0.0,0.0,0.0,0.0,0.0,0.0,0.0,-6.2381,-6.3362,-6.4613,-6.4613,0.0,0.0,0.0,0.0,0.0,-6.6812,-6.6812,-6.6812,-6.6812,-6.6812,-6.6981,-6.759,0.0,0.0,0.0,0.0,0.0,0.0,0.0,0.0,0.0,0.0,0.0,0.0,0.0,0.0,0.0,0.0,0.0,0.0,0.0,0.0,0.0,0.0,0.0,0.0,0.0,0.0,0.0,-7.5709,-7.6318,-7.7638,-7.7638,-7.7638,-7.7638,-7.7638,-7.7638,-7.7638,-7.7638,-7.7638,0.0,0.0,0.0,-7.7638,-7.7638,-7.7638,-7.7638,-7.7638,-7.7266,-7.6724,-7.6724,-7.6284,-7.5709,0.0,0.0,0.0,0.0,0.0,0.0,0.0,0.0,0.0,0.0,0.0,0.0,0.0,0.0,0.0,0.0,0.0,0.0,0.0,0.0,0.0,-5.7845,-5.7845,-5.7881,-5.7881,-5.7881,-5.7881,-5.7881,-5.7881,-5.7881,-5.7881,-5.7881,-5.7881,-5.7881,-5.7881,-5.7881,-5.7881,-5.7881,-5.8321,-5.9066,-5.981,0.0,0.0,0.0,0.0,0.0,0.0,0.0,0.0,-6.2381,-6.3362,-6.4613,-6.4613,0.0,0.0,0.0,0.0,0.0,-6.6812,-6.6812,-6.6812,-6.6812,-6.6812,-6.6846,-6.6948,0.0,0.0,0.0,0.0,0.0,0.0,0.0,0.0,0.0,0.0,0.0,0.0,0.0,0.0,0.0,0.0,0.0,0.0,0.0,0.0,0.0,0.0,0.0,0.0,0.0,0.0,0.0,0.0,-7.5811,-7.6048,-7.6048,-7.6048,-7.6048,-7.6048,-7.6048,-7.6048,-7.6048,-7.6048,0.0,0.0,-7.6048,-7.6048,-7.6048,-7.6048,-7.6048,-7.6048,-7.598,-7.5879,-7.5879,-7.5811,-7.5709,0.0,0.0,0.0,0.0,0.0,0.0,0.0,0.0,0.0,0.0,0.0,0.0,0.0,0.0,0.0,0.0,0.0,0.0,0.0,0.0,-5.7881,-5.7881,-5.7881,-5.7881,-5.7881,-5.7881,-5.7881,-5.7881,-5.7881,-5.7881,-5.7881,-5.7881,-5.7881,-5.7881,-5.7881,-5.7881,-5.7915,-5.8321,-5.893,-5.9674,0.0,0.0,0.0,0.0,0.0,0.0,0.0,0.0,0.0,0.0,-6.3362,-6.4613,-6.4613,0.0,0.0,0.0,0.0,0.0,-6.6812,-6.6812,-6.6812,-6.6812,-6.6812,-6.677,-6.6643,0.0,0.0,0.0,0.0,0.0,0.0,0.0,0.0,0.0,0.0,0.0,0.0,0.0,0.0,0.0,0.0,0.0,0.0,0.0,0.0,0.0,0.0,0.0,0.0,0.0,0.0,0.0,0.0,-7.5709,-7.5709,-7.5709,-7.5709,-7.5709,-7.5709,-7.5709,-7.5709,-7.5709,-7.5709,-7.5709,0.0,-7.5709,-7.5709,-7.5709,-7.5709,-7.5709,-7.5709,-7.5709,-7.5709,-7.5709,-7.5709,-7.5709,0.0,0.0,0.0,0.0,0.0,0.0,0.0,0.0,0.0,0.0,0.0,0.0,0.0,0.0,0.0,0.0,0.0,0.0,0.0,0.0,-5.7881,-5.7881,-5.7881,-5.7881,-5.7881,-5.7881,-5.7881,-5.7881,-5.7881,-5.7881,-5.7881,-5.7881,-5.7881,-5.7881,-5.7881,-5.7881,-5.7949,-5.8693,-5.9438,-6.0182,0.0,0.0,0.0,0.0,0.0,0.0,0.0,0.0,0.0,0.0,0.0,0.0,0.0,0.0,0.0,-6.6812,-6.6812,-6.6812,-6.6812,-6.6812,-6.6812,-6.6812,0.0,-6.6728,-6.655,-6.7174,0.0,0.0,0.0,0.0,0.0,0.0,0.0,0.0,0.0,0.0,0.0,0.0,0.0,0.0,0.0,0.0,0.0,0.0,0.0,0.0,0.0,0.0,0.0,0.0,0.0,0.0,0.0,0.0,-7.5709,-7.5662,-7.5662,-7.5709,-7.5709,-7.5709,-7.5709,-7.5709,-7.5709,-7.5709,-7.5709,-7.5709,-7.5709,-7.5709,-7.5709,-7.5709,-7.5709,-7.5709,-7.5709,-7.5709,-7.5709,-7.5709,0.0,0.0,0.0,0.0,0.0,0.0,0.0,0.0,0.0,0.0,0.0,0.0,0.0,0.0,0.0,0.0,0.0,0.0,0.0,0.0,-5.7881,-5.7881,-5.7881,-5.7881,-5.7881,-5.7881,-5.7881,-5.7881,-5.7881,-5.7881,-5.7881,-5.7881,-5.7881,-5.7881,-5.7881,-5.7881,-5.7949,-5.8693,-5.9438,-6.0182,-6.0994,0.0,0.0,0.0,0.0,0.0,0.0,0.0,0.0,0.0,0.0,0.0,0.0,0.0,-6.6812,-6.6812,-6.6812,-6.6812,-6.6812,-6.6812,-6.6812,-6.6812,-6.6812,0.0,-6.655,-6.7079,0.0,-6.857,0.0,0.0,0.0,0.0,0.0,0.0,0.0,0.0,0.0,0.0,0.0,0.0,0.0,0.0,0.0,0.0,0.0,0.0,0.0,0.0,0.0,0.0,0.0,0.0,0.0,-7.547,-7.5709,-7.547,-7.547,-7.5709,-7.5709,-7.5709,-7.5709,-7.5709,-7.5709,-7.5709,-7.5709,-7.5709,-7.5709,-7.5709,-7.5709,-7.5709,-7.5709,-7.5709,-7.5709,-7.5709,-7.5709,-7.5709,0.0,0.0,0.0,0.0,0.0,0.0,0.0,0.0,0.0,0.0,0.0,0.0,0.0,0.0,0.0,0.0,0.0,0.0,0.0,-5.7881,-5.7881,-5.7881,-5.7881,-5.7881,-5.7881,-5.7881,-5.7881,-5.7881,-5.7881,-5.7881,-5.7881,-5.7881,-5.7881,-5.7881,-5.7881,-5.8152,-5.8626,-5.937,-6.0148,-6.0926,-6.167,-6.2144,0.0,0.0,0.0,0.0,0.0,0.0,0.0,0.0,-6.3362,-6.4613,0.0,-6.5628,-6.6812,-6.6812,-6.6812,-6.677,-6.6677,-6.6686,-6.677,-6.6643,-6.6686,0.0,0.0,-6.7382,-6.792,-6.9132,-6.9603,0.0,0.0,0.0,0.0,0.0,0.0,0.0,0.0,0.0,0.0,0.0,0.0,0.0,0.0,0.0,0.0,0.0,0.0,0.0,0.0,0.0,0.0,0.0,0.0,-7.5518,-7.547,-7.5518,-7.5614,-7.5709,-7.5709,-7.5709,-7.5709,-7.5709,-7.5709,-7.5709,-7.5709,-7.5709,-7.5709,-7.5709,-7.5709,-7.5709,-7.5709,-7.5709,-7.5709,-7.5709,-7.5709,-7.5709,0.0,0.0,0.0,0.0,0.0,0.0,0.0,0.0,0.0,0.0,0.0,0.0,0.0,0.0,0.0,0.0,0.0,0.0,-5.7881,-5.7881,-5.7881,-5.7881,-5.7881,-5.7881,-5.7881,-5.7881,-5.7881,-5.7881,-5.7881,-5.7881,-5.7881,-5.7881,-5.7881,-5.7915,-5.8118,-5.8524,-5.9066,-6.008,-6.0791,-6.1366,-6.211,-6.2381,0.0,0.0,0.0,0.0,0.0,0.0,0.0,0.0,0.0,0.0,0.0,0.0,0.0,0.0,-6.6728,-6.6677,-6.655,-6.6592,-6.6643,0.0,0.0,0.0,-6.7709,-6.7789,-6.8159,-6.9357,-7.0085,0.0,0.0,0.0,0.0,0.0,0.0,0.0,0.0,0.0,0.0,0.0,0.0,0.0,0.0,0.0,0.0,0.0,0.0,0.0,0.0,0.0,0.0,0.0,0.0,0.0,-7.5422,-7.5518,-7.5566,-7.5566,-7.5662,-7.5709,-7.5709,-7.5709,-7.5709,-7.5709,-7.5709,-7.5709,-7.5709,-7.5709,-7.5709,-7.5709,-7.5709,-7.5709,-7.5709,-7.5709,-7.5709,-7.5709,0.0,0.0,0.0,0.0,0.0,0.0,0.0,0.0,0.0,0.0,0.0,0.0,0.0,0.0,0.0,0.0,0.0,0.0,-5.7881,-5.7881,-5.7881,-5.7881,-5.7881,-5.7881,-5.7881,-5.7881,-5.7881,-5.7881,-5.7881,-5.7881,-5.7881,-5.7881,-5.7881,-5.7915,-5.8693,-5.9032,-5.9133,-6.0655,-6.1298,-6.1366,-6.211,-6.2381,-6.2381,0.0,0.0,0.0,0.0,0.0,0.0,0.0,-6.3396,0.0,0.0,0.0,0.0,0.0,-6.6677,-6.6507,-6.6507,-6.6507,0.0,0.0,0.0,0.0,0.0,0.0,0.0,0.0,0.0,0.0,0.0,0.0,0.0,0.0,0.0,0.0,0.0,0.0,0.0,0.0,0.0,0.0,0.0,0.0,0.0,0.0,0.0,0.0,0.0,0.0,0.0,0.0,0.0,0.0,-7.5709,-7.5422,-7.5325,-7.5325,-7.5566,-7.5709,-7.5709,-7.5709,-7.5709,-7.5709,-7.5709,-7.5709,-7.5709,-7.5709,-7.5709,-7.5709,-7.5709,-7.5709,-7.5709,-7.5709,-7.5709,-7.5709,0.0,0.0,0.0,0.0,0.0,0.0,0.0,0.0,0.0,0.0,0.0,0.0,0.0,0.0,0.0,0.0,0.0,0.0,-5.7881,-5.7881,-5.7881,-5.7881,-5.7881,-5.7881,-5.7881,-5.7881,-5.7881,-5.7881,-5.7881,-5.7881,-5.7881,-5.7881,-5.7881,-5.7915,-5.8693,-5.9302,-5.9844,-6.0858,-6.1603,-6.2076,-6.2313,-6.2381,-6.2381,0.0,0.0,0.0,0.0,0.0,0.0,0.0,0.0,0.0,0.0,0.0,0.0,-6.6812,-6.677,-6.6643,-6.655,0.0,0.0,0.0,0.0,0.0,0.0,0.0,0.0,0.0,0.0,0.0,0.0,0.0,0.0,0.0,0.0,0.0,0.0,0.0,0.0,0.0,0.0,0.0,0.0,0.0,0.0,0.0,0.0,0.0,0.0,0.0,0.0,0.0,0.0,0.0,-7.5213,-7.5277,-7.5325,-7.5325,-7.5228,-7.5277,-7.5422,-7.5614,-7.5709,-7.5709,-7.5709,-7.5709,-7.5709,-7.5709,-7.5709,-7.5709,-7.5709,-7.5709,-7.5709,-7.5709,-7.5709,-7.5709,0.0,0.0,0.0,0.0,0.0,0.0,0.0,0.0,0.0,0.0,-5.8909,-5.8633,0.0,0.0,0.0,0.0,0.0,0.0,0.0,-5.7881,-5.7881,-5.7881,-5.7881,-5.7881,-5.7881,-5.7881,-5.7881,-5.7881,-5.7881,-5.7881,-5.7881,-5.7881,-5.8051,-5.8355,-5.9099,-5.9877,-6.0622,-6.14,-6.1975,-6.2381,-6.2381,-6.2381,-6.2381,0.0,0.0,0.0,0.0,0.0,0.0,0.0,0.0,0.0,0.0,0.0,0.0,-6.6686,-6.6601,-6.6473,-6.6292,0.0,0.0,0.0,0.0,0.0,0.0,0.0,0.0,0.0,0.0,0.0,0.0,0.0,0.0,0.0,0.0,0.0,0.0,0.0,0.0,0.0,0.0,0.0,0.0,0.0,0.0,0.0,0.0,0.0,0.0,0.0,0.0,0.0,0.0,0.0,-7.5018,-7.5115,-7.5131,-7.4984,-7.5018,-7.5067,-7.5179,-7.5422,-7.5566,-7.5566,-7.5662,-7.5709,-7.5709,-7.5709,-7.5709,-7.5709,-7.5709,-7.5709,-7.5709,-7.5709,-7.5709,-7.5709,0.0,0.0,0.0,0.0,0.0,0.0,0.0,0.0,0.0,0.0,-5.8909,-5.8633,0.0,0.0,0.0,0.0,0.0,0.0,0.0,0.0,-5.7881,-5.7881,-5.7881,-5.7881,-5.7881,-5.7881,-5.7881,-5.7881,-5.7881,-5.7881,-5.7881,-5.7949,-5.8355,-5.9066,-5.9844,-6.0622,-6.1366,-6.2076,-6.2381,-6.2381,-6.2381,-6.2381,-6.2381,-6.2381,0.0,0.0,0.0,0.0,0.0,0.0,0.0,0.0,0.0,0.0,0.0,-6.6592,-6.6345,-6.6095,0.0,0.0,0.0,0.0,0.0,0.0,0.0,0.0,0.0,0.0,0.0,0.0,0.0,0.0,0.0,0.0,0.0,0.0,0.0,0.0,0.0,0.0,0.0,0.0,0.0,0.0,0.0,0.0,0.0,0.0,0.0,0.0,0.0,0.0,0.0,0.0,-7.4968,-7.4968,-7.4821,0.0,-7.4821,-7.4968,-7.5018,-7.5179,-7.5325,-7.5373,-7.5614,-7.5709,-7.5709,-7.5709,-7.5709,-7.5709,-7.5709,-7.5709,-7.5709,-7.5709,-7.5709,-7.5709,0.0,0.0,0.0,0.0,0.0,0.0,0.0,0.0,0.0,0.0,0.0,0.0,0.0,0.0,0.0,0.0,0.0,0.0,0.0,0.0,-5.7881,-5.7881,-5.7881,-5.7881,-5.7881,-5.7881,-5.7881,-5.7881,-5.7881,-5.7881,-5.7915,-5.849,-5.8863,-5.9066,-6.0452,-6.1129,-6.1366,-6.2076,-6.2381,-6.2381,-6.2381,-6.2381,-6.2381,-6.2381,-6.2381,0.0,0.0,0.0,0.0,0.0,0.0,0.0,-6.6339,-6.6677,-6.677,-6.6728,-6.6558,0.0,0.0,0.0,0.0,0.0,0.0,0.0,0.0,0.0,0.0,0.0,0.0,0.0,0.0,0.0,0.0,0.0,0.0,0.0,0.0,0.0,0.0,0.0,0.0,0.0,0.0,0.0,0.0,0.0,0.0,0.0,0.0,0.0,0.0,0.0,0.0,-7.487,-7.4705,-7.4705,-7.4656,0.0,-7.4656,-7.4771,-7.5018,-7.5179,-7.5422,-7.5614,-7.5676,-7.5709,-7.5709,-7.5709,-7.5709,-7.5709,-7.5709,-7.5709,-7.5709,-7.5709,-7.5709,-7.5709,0.0,0.0,0.0,0.0,0.0,0.0,0.0,0.0,0.0,0.0,0.0,0.0,0.0,0.0,0.0,0.0,0.0,0.0,0.0,0.0,-5.7881,-5.7881,-5.7881,-5.7881,-5.7881,-5.7881,-5.7881,-5.7881,-5.8254,-5.8423,-5.8457,-5.8829,-5.9404,-6.0148,-6.096,-6.1501,-6.1839,-6.2245,-6.2381,-6.2381,-6.2381,-6.2381,-6.2381,-6.2381,-6.2618,-6.2922,-6.2922,0.0,0.0,0.0,0.0,0.0,0.0,0.0,-6.677,-6.6686,-6.6473,-6.6302,0.0,0.0,0.0,0.0,0.0,0.0,0.0,0.0,0.0,0.0,0.0,0.0,0.0,0.0,0.0,0.0,0.0,0.0,0.0,0.0,0.0,0.0,0.0,0.0,0.0,0.0,0.0,0.0,0.0,0.0,0.0,0.0,0.0,0.0,-7.4672,-7.4573,-7.4423,-7.4423,-7.4423,-7.4423,-7.4423,-7.4622,-7.5018,-7.5179,-7.547,-7.5709,-7.5709,-7.5709,-7.5709,-7.5709,-7.5709,-7.5709,-7.5709,-7.5709,-7.5709,-7.5709,-7.5709,-7.5709,0.0,0.0,0.0,0.0,0.0,0.0,0.0,0.0,0.0,0.0,0.0,0.0,0.0,0.0,0.0,0.0,0.0,0.0,0.0,0.0,0.0,-5.7881,-5.7881,-5.7881,-5.7881,-5.8017,-5.8084,-5.8084,-5.8829,-5.9268,-5.9404,-5.9404,-6.008,-6.1298,-6.1434,-6.1839,-6.2381,-6.2381,-6.2381,-6.2381,-6.2381,-6.2381,-6.2415,-6.2516,-6.2956,-6.3531,-6.3666,-6.4174,-6.4884,-6.5493,0.0,0.0,0.0,0.0,-6.677,-6.6592,-6.6345,-6.6095,0.0,0.0,0.0,0.0,0.0,0.0,0.0,0.0,0.0,0.0,0.0,0.0,0.0,0.0,0.0,0.0,0.0,0.0,0.0,0.0,0.0,0.0,0.0,0.0,0.0,0.0,0.0,0.0,0.0,0.0,0.0,0.0,-7.4523,-7.4523,-7.4322,-7.4221,-7.4221,-7.4221,-7.4221,-7.4221,-7.4272,-7.4622,-7.5115,-7.5277,-7.5518,-7.5709,-7.5709,-7.5709,-7.5709,-7.5709,-7.5709,-7.5709,-7.5709,-7.5709,-7.5676,-7.5574,-7.5506,-7.5473,0.0,0.0,0.0,0.0,0.0,0.0,0.0,0.0,0.0,0.0,-5.8909,-5.8633,0.0,0.0,0.0,0.0,0.0,0.0,0.0,0.0,0.0,-5.7881,-5.7881,-5.7881,-5.7881,-5.8524,-5.8863,-5.8863,-5.9607,-6.0317,-6.0994,-6.0994,-6.1095,-6.1332,-6.1975,-6.2313,-6.2381,-6.2381,-6.2381,-6.2381,-6.2381,-6.2381,-6.2448,-6.3125,-6.3429,-6.3599,-6.4241,-6.4918,-6.5561,-6.5662,-6.6102,0.0,0.0,0.0,-6.677,-6.677,-6.6601,0.0,0.0,0.0,0.0,0.0,0.0,0.0,0.0,0.0,0.0,0.0,0.0,0.0,0.0,0.0,0.0,0.0,0.0,0.0,0.0,0.0,0.0,0.0,0.0,0.0,0.0,0.0,0.0,0.0,0.0,0.0,0.0,-7.4372,-7.4272,-7.4272,-7.4221,-7.4221,-7.4221,-7.4221,-7.4221,-7.4221,-7.4672,-7.5131,-7.5614,-7.5662,-7.5662,-7.5709,-7.5709,-7.5709,-7.5709,-7.5709,-7.5709,-7.5709,-7.5709,-7.5709,-7.5608,-7.4999,-7.4762,-7.4661,0.0,0.0,0.0,0.0,0.0,0.0,0.0,0.0,0.0,0.0,0.0,-5.8244,0.0,0.0,0.0,0.0,0.0,0.0,0.0,0.0,0.0,-5.7881,-5.8287,-5.8524,-5.8524,-5.9235,-5.9641,-5.9641,-6.0385,0.0,0.0,-6.1704,-6.1907,-6.1907,-6.2245,-6.2381,-6.2381,-6.2381,-6.2381,-6.2415,-6.2854,-6.2753,-6.2516,-6.3666,-6.414,-6.4208,-6.4952,-6.5696,-6.6305,-6.6305,-6.6542,-6.6812,-6.6812,0.0,0.0,0.0,-6.6677,0.0,0.0,0.0,0.0,0.0,0.0,0.0,0.0,0.0,0.0,0.0,0.0,0.0,0.0,0.0,0.0,0.0,0.0,0.0,0.0,0.0,0.0,0.0,0.0,0.0,0.0,0.0,0.0,0.0,0.0,0.0,-7.4372,-7.4272,-7.4221,-7.4221,-7.4221,-7.4221,-7.4221,-7.4221,-7.4272,-7.4423,-7.4821,-7.4929,-7.4877,-7.5053,-7.5303,-7.5676,-7.527,-7.51,-7.5067,-7.4627,-7.4458,-7.4458,-7.4458,-7.4458,-7.4424,-7.4086,-7.3984,-7.395,0.0,0.0,0.0,0.0,0.0,0.0,0.0,0.0,0.0,0.0,0.0,0.0,0.0,0.0,0.0,0.0,0.0,0.0,0.0,0.0,0.0,-5.8457,-5.8998,-5.9302,-5.9302,-6.0013,-6.0419,-6.0419,0.0,0.0,-6.1603,-6.2144,-6.2381,0.0,-6.2381,-6.2381,-6.2381,-6.2381,-6.2516,-6.2719,-6.3294,-6.3294,-6.3091,-6.4377,-6.4884,-6.4986,-6.5696,-6.6339,-6.6812,-6.6812,-6.6812,-6.6812,-6.6812,-6.6812,0.0,0.0,0.0,0.0,0.0,0.0,0.0,0.0,0.0,0.0,0.0,0.0,0.0,0.0,0.0,0.0,0.0,0.0,0.0,0.0,0.0,0.0,0.0,0.0,0.0,0.0,0.0,0.0,0.0,0.0,0.0,0.0,0.0,0.0,-7.4221,-7.4221,-7.4221,-7.4221,-7.4221,-7.4221,-7.4221,-7.4073,-7.4123,-7.4405,-7.45,-7.434,-7.4006,-7.4229,-7.4627,-7.51,-7.4559,-7.4322,-7.4289,-7.3713,-7.3477,-7.3477,-7.3477,-7.3477,-7.3477,-7.3274,-7.3206,-7.3172,0.0,0.0,0.0,0.0,0.0,0.0,0.0,0.0,0.0,0.0,0.0,0.0,-5.7881,-5.7881,-5.7881,-5.7881,-5.7881,0.0,0.0,0.0,0.0,-5.9945,-6.0013,0.0,-6.0047,-6.0825,-6.1231,0.0,0.0,0.0,-6.2347,-6.2381,-6.2381,-6.2381,-6.2381,-6.2381,-6.2381,-6.2381,-6.2787,-6.3463,-6.3497,-6.3903,-6.458,-6.5358,-6.5628,-6.573,-6.6474,-6.6779,-6.6812,-6.6812,-6.6812,-6.6812,-6.6812,-6.6812,-6.6812,0.0,0.0,0.0,0.0,0.0,0.0,0.0,0.0,0.0,0.0,0.0,0.0,0.0,0.0,0.0,0.0,0.0,0.0,0.0,0.0,0.0,0.0,0.0,0.0,0.0,0.0,0.0,0.0,0.0,0.0,0.0,0.0,0.0,-7.4221,-7.4221,-7.4221,-7.4221,-7.4221,-7.4221,-7.4221,-7.3691,-7.3571,-7.3849,-7.3433,-7.3299,-7.3544,-7.3544,-7.3578,-7.3612,-7.3544,-7.3544,-7.3544,-7.351,-7.3477,-7.3477,-7.3477,-7.3477,-7.3409,-7.2699,-7.2462,-7.236,0.0,0.0,0.0,0.0,0.0,0.0,0.0,0.0,0.0,0.0,0.0,0.0,0.0,-5.7881,-5.7881,-5.7881,-5.8321,0.0,0.0,0.0,0.0,-6.008,-6.0588,-6.0858,-6.0858,-6.1603,-6.2009,0.0,0.0,-6.2381,-6.2381,-6.2381,-6.2381,-6.2381,-6.2381,-6.2381,-6.2415,-6.2922,-6.326,-6.3599,-6.4546,-6.4783,-6.4749,-6.5933,-6.6102,-6.5797,-6.6542,0.0,0.0,-6.6812,-6.6812,-6.6812,-6.6812,-6.6812,-6.6812,-6.6812,-6.6677,0.0,0.0,0.0,0.0,0.0,0.0,0.0,0.0,0.0,0.0,0.0,0.0,0.0,0.0,0.0,0.0,0.0,0.0,0.0,0.0,0.0,0.0,0.0,0.0,0.0,0.0,0.0,0.0,0.0,0.0,0.0,-7.4221,-7.4221,-7.4221,-7.4221,-7.4221,-7.404,-7.3691,-7.3091,-7.2968,-7.3365,-7.3191,-7.3008,-7.28,-7.28,-7.2529,-7.209,-7.209,-7.236,-7.2766,-7.2293,-7.209,-7.209,-7.209,-7.209,-7.2056,-7.1785,-7.1684,-7.1684,0.0,0.0,0.0,0.0,0.0,0.0,0.0,0.0,-5.8909,-5.8909,0.0,0.0,0.0,0.0,-5.8647,-5.8629,-5.9099,-5.9708,-6.0452,-6.0486,-6.0622,-6.0858,-6.1366,-6.167,-6.167,-6.1907,0.0,0.0,0.0,0.0,0.0,-6.2381,-6.2381,-6.2381,-6.2381,-6.2381,0.0,0.0,0.0,-6.4005,0.0,-6.5527,-6.5459,-6.644,-6.6508,0.0,0.0,0.0,0.0,0.0,-6.6812,-6.6812,-6.6812,-6.6812,-6.6812,-6.6812,-6.6686,0.0,0.0,0.0,0.0,0.0,0.0,0.0,0.0,0.0,0.0,0.0,0.0,0.0,0.0,0.0,0.0,0.0,0.0,0.0,0.0,0.0,0.0,0.0,0.0,0.0,0.0,0.0,0.0,0.0,0.0,0.0,-7.4221,-7.4221,-7.4089,-7.3957,-7.3924,-7.3658,-7.3171,-7.2567,-7.239,-7.272,-7.2544,-7.2312,-7.2022,-7.2022,-7.1751,-7.1312,-7.1312,-7.1582,-7.1988,-7.1515,-7.1312,-7.1312,-7.1312,-7.1312,-7.1312,-7.1312,-7.1312,-7.1312,0.0,0.0,0.0,0.0,0.0,0.0,0.0,0.0,-5.8943,-5.8943,0.0,0.0,0.0,0.0,0.0,-6.0156,-6.0148,-6.0486,-6.1298,-6.1332,-6.1637,-6.2347,0.0,0.0,0.0,0.0,0.0,0.0,0.0,0.0,0.0,0.0,-6.2381,-6.2381,-6.2415,-6.2415,-6.2482,0.0,-6.3971,-6.4681,0.0,-6.617,-6.6812,0.0,0.0,0.0,-6.6812,-6.6812,0.0,-6.6812,0.0,0.0,-6.6812,-6.6812,-6.6812,-6.6812,-6.6812,-6.6728,0.0,0.0,0.0,0.0,0.0,0.0,0.0,0.0,0.0,0.0,0.0,0.0,0.0,0.0,0.0,0.0,0.0,0.0,0.0,0.0,0.0,0.0,0.0,0.0,0.0,0.0,0.0,0.0,0.0,-7.4221,-7.4188,-7.4155,-7.3924,-7.3407,-7.3374,-7.3105,-7.2677,-7.2177,-7.1947,-7.1947,-7.1514,-7.1312,-7.1312,-7.1312,-7.1312,-7.1312,-7.1312,-7.1312,-7.1312,-7.1312,-7.1312,-7.1312,-7.1312,-7.1312,-7.1312,-7.1312,-7.1312,-7.1312,0.0,0.0,0.0,0.0,0.0,-6.172,-6.172,-6.0986,-6.0215,0.0,0.0,0.0,-5.8841,-5.9522,-6.0306,-6.0892,-6.096,-6.1298,-6.2042,-6.2076,-6.2178,-6.2381,-6.2381,-6.2381,-6.2381,0.0,0.0,0.0,0.0,0.0,0.0,0.0,0.0,0.0,-6.2956,-6.3193,-6.326,-6.4005,0.0,0.0,-6.6203,-6.6643,0.0,0.0,0.0,0.0,0.0,-6.6812,-6.6812,0.0,-6.6812,-6.6812,-6.6812,-6.6812,-6.6812,-6.6812,-6.6812,-6.677,-6.6728,0.0,0.0,0.0,0.0,0.0,0.0,0.0,0.0,0.0,0.0,0.0,0.0,0.0,0.0,0.0,0.0,0.0,0.0,0.0,0.0,0.0,0.0,0.0,0.0,0.0,0.0,0.0,-7.4221,-7.3939,-7.3442,-7.311,-7.2907,-7.2916,-7.2381,-7.2156,-7.219,-7.1543,-7.1265,-7.148,-7.1368,-7.1312,-7.1312,-7.1312,-7.1312,-7.1312,-7.1312,-7.1312,-7.1312,-7.1312,-7.1312,-7.1312,-7.1312,-7.1312,-7.1312,-7.1312,-7.1312,-7.1312,0.0,0.0,0.0,0.0,0.0,-6.1664,-6.195,-6.1198,-6.0543,0.0,0.0,0.0,-6.0403,-6.0506,-6.0926,-6.167,-6.1772,-6.1941,-6.2347,-6.2381,-6.2381,-6.2381,-6.2381,-6.2381,-6.2381,-6.211,0.0,0.0,0.0,0.0,0.0,-6.2381,-6.255,0.0,0.0,0.0,0.0,0.0,0.0,0.0,-6.6508,0.0,0.0,-6.6812,-6.6812,0.0,0.0,0.0,-6.732,-6.7658,-6.7557,0.0,0.0,-6.6812,-6.6812,-6.6812,-6.6812,-6.6812,-6.6812,-6.6686,-6.6635,0.0,0.0,0.0,0.0,0.0,0.0,0.0,0.0,0.0,0.0,0.0,0.0,0.0,0.0,0.0,0.0,0.0,0.0,0.0,0.0,0.0,0.0,0.0,0.0,0.0,-7.3542,-7.3276,-7.2943,-7.2689,-7.2481,-7.2418,-7.1982,-7.1753,-7.1727,-7.1288,-7.1176,-7.1312,-7.1312,-7.1312,-7.1312,-7.1312,-7.1312,-7.1312,-7.1312,-7.1312,-7.1312,-7.1312,-7.1312,-7.1312,-7.1312,-7.1312,-7.1312,-7.1312,-7.1312,-7.1312,0.0,0.0,-6.1978,-6.1978,-6.1487,-6.1315,-6.2031,-6.1129,-6.0611,0.0,-6.127,-6.1567,-6.2324,-6.1824,-6.167,-6.2347,-6.2381,-6.2381,-6.2381,-6.2381,-6.2381,-6.2381,-6.2381,-6.2381,-6.2381,-6.1772,-6.1738,0.0,0.0,0.0,0.0,-6.2516,-6.2922,-6.3632,0.0,0.0,0.0,0.0,0.0,-6.5865,-6.6542,-6.6812,0.0,0.0,-6.688,-6.7015,-6.7658,-6.7963,-6.8132,-6.8876,-6.8605,0.0,0.0,0.0,-6.7049,-6.6948,-6.6948,-6.6914,-6.6846,-6.688,-6.6905,-6.6693,0.0,0.0,-6.8652,-6.9771,-7.087,0.0,0.0,0.0,0.0,0.0,0.0,0.0,0.0,0.0,0.0,0.0,0.0,0.0,0.0,0.0,0.0,0.0,-7.3078,-7.3028,-7.261,-7.2419,-7.2625,-7.2558,-7.2317,-7.1926,-7.1926,-7.1727,-7.1312,-7.1312,-7.1312,-7.1312,-7.1312,-7.1312,-7.1312,-7.1312,-7.1312,-7.1312,-7.1312,-7.1312,-7.1312,-7.1312,-7.1312,-7.1312,-7.1312,-7.1312,-7.1312,-7.1312,-7.1312,-7.1312,0.0,-6.1978,-6.1978,-6.1978,-6.1895,-6.2085,-6.2875,-6.2715,-6.2651,-6.2928,-6.2466,-6.2434,-6.3186,-6.2646,-6.2245,-6.2381,-6.2381,-6.2381,-6.2381,-6.2381,-6.2381,-6.2381,-6.2381,-6.2381,-6.2381,-6.2245,-6.2245,-6.2381,0.0,0.0,0.0,-6.3294,-6.37,-6.441,0.0,0.0,0.0,0.0,0.0,-6.6609,-6.6745,0.0,-6.6812,-6.6812,-6.7184,-6.7692,-6.7861,-6.8335,-6.8876,-6.9045,-6.9011,-6.8842,0.0,0.0,0.0,-6.7895,-6.7692,-6.7557,-6.6981,-6.7252,-6.7692,0.0,0.0,0.0,-6.987,-7.058,0.0,0.0,0.0,0.0,0.0,0.0,0.0,0.0,0.0,0.0,0.0,0.0,0.0,0.0,0.0,0.0,0.0,0.0,-7.2768,-7.2768,-7.2147,-7.1855,-7.2123,-7.1598,-7.1286,-7.1424,-7.1424,-7.1402,-7.1312,-7.1312,-7.1312,-7.1312,-7.1312,-7.1312,-7.1312,-7.1312,-7.1312,-7.1312,-7.1312,-7.1312,-7.1312,-7.1312,-7.1312,-7.1312,-7.1312,-7.1312,-7.1312,-7.1312,-7.1312,-7.1312,-6.1978,-6.2331,-6.2585,-6.2585,-6.2947,-6.3345,-6.3744,-6.378,-6.3805,-6.3934,-6.3377,-6.2935,-6.2935,-6.2654,-6.2381,-6.2381,-6.2381,-6.2381,-6.2381,-6.2381,-6.2381,-6.2381,-6.2381,-6.2381,-6.2381,-6.2753,-6.2956,-6.2956,0.0,0.0,0.0,0.0,-6.4444,-6.5155,0.0,0.0,0.0,0.0,-6.6812,-6.6812,-6.6812,0.0,-6.6846,-6.7218,-6.759,-6.7996,-6.8774,-6.9553,-7.0161,-6.9755,-6.9654,0.0,0.0,-6.9113,-6.9011,0.0,-6.8504,-6.8436,0.0,0.0,0.0,-6.8504,0.0,0.0,0.0,-7.077,0.0,0.0,0.0,0.0,0.0,0.0,0.0,0.0,0.0,0.0,0.0,0.0,0.0,0.0,0.0,0.0,0.0,0.0,-7.188,-7.1607,-7.1379,-7.1396,-7.1626,-7.1334,-7.1176,-7.1312,-7.1312,-7.1312,-7.1312,-7.1312,-7.1312,-7.1312,-7.1312,-7.1312,-7.1312,-7.1312,-7.1312,-7.1312,-7.1312,-7.1312,-7.1312,-7.1312,-7.1312,-7.1312,-7.1312,-7.1312,-7.1312,-7.1312,-7.1312,-7.1312,-6.2476,-6.2983,-6.3418,-6.3418,-6.3961,-6.4432,-6.4613,-6.4613,-6.4606,-6.4536,-6.3904,-6.3233,-6.2498,-6.2381,-6.2381,-6.2381,-6.2381,-6.2448,-6.2584,-6.2618,-6.2618,-6.2618,-6.2753,-6.2753,-6.2618,-6.3328,-6.3734,-6.3734,0.0,0.0,0.0,0.0,0.0,0.0,0.0,0.0,0.0,0.0,0.0,-6.6812,0.0,-6.7015,-6.7083,-6.7658,-6.8064,-6.8504,-6.9891,-7.0804,-7.121,-7.0601,-7.0398,-7.0297,-6.9722,-6.9519,0.0,0.0,0.0,0.0,0.0,0.0,0.0,0.0,0.0,-7.0398,0.0,0.0,0.0,0.0,0.0,0.0,0.0,0.0,0.0,0.0,0.0,0.0,0.0,0.0,0.0,0.0,0.0,0.0,0.0,0.0,-7.1125,-7.0675,-7.087,-7.1052,-7.1267,-7.1312,-7.1312,-7.1312,-7.1312,-7.1312,-7.1312,-7.1312,-7.1312,-7.1312,-7.1312,-7.1312,-7.1312,-7.1312,-7.1312,-7.1312,-7.1312,-7.1312,-7.1312,-7.1312,-7.1312,-7.1312,-7.1312,-7.1312,-7.1312,-7.1312,-7.1312,-7.1312,-6.4142,-6.4178,-6.4251,-6.4251,-6.4323,-6.4649,-6.5337,-6.5446,-6.5256,-6.4695,-6.3971,-6.3233,-6.2498,-6.2381,-6.2381,-6.2381,-6.2381,-6.2685,-6.3328,-6.3396,-6.3396,-6.3396,-6.4005,-6.4038,-6.3396,-6.4106,-6.4478,-6.4478,-6.4546,0.0,0.0,0.0,0.0,0.0,-6.6677,0.0,0.0,0.0,-6.6812,0.0,-6.7523,-6.7793,0.0,-6.7861,-6.8741,-7.0026,-7.0872,-7.1244,-7.1312,0.0,-7.1176,-7.1176,0.0,-7.1075,-7.0939,-7.0263,0.0,0.0,0.0,0.0,0.0,0.0,-7.0635,0.0,0.0,0.0,0.0,0.0,0.0,0.0,0.0,0.0,0.0,0.0,0.0,0.0,0.0,0.0,0.0,0.0,0.0,0.0,0.0,0.0,0.0,-7.1222,-7.1222,-7.1267,-7.1312,-7.1312,-7.1312,-7.1312,-7.1312,-7.1312,-7.1312,-7.1312,-7.1312,-7.1312,-7.1312,-7.1312,-7.1312,-7.1312,-7.1312,-7.1312,-7.1312,-7.1312,-7.1312,-7.1312,-7.1312,-7.1312,-7.1312,-7.1312,-7.1312,-7.1312,-7.1312,-7.1312,-6.4577,-6.4758,-6.5084,-6.5084,-6.5482,-6.5917,-6.6243,-6.6315,-6.6025,-6.5335,-6.4601,-6.3861,-6.3121,-6.3028,-6.2854,-6.2415,0.0,-6.3193,0.0,0.0,-6.37,-6.414,-6.4444,-6.4478,-6.414,-6.485,-6.5222,-6.5222,-6.5662,0.0,0.0,0.0,0.0,0.0,-6.6812,0.0,-6.6812,0.0,0.0,0.0,0.0,0.0,0.0,-6.9214,-6.9891,-7.0872,-7.121,-7.1312,-7.1312,0.0,-7.1312,0.0,0.0,0.0,0.0,0.0,0.0,0.0,0.0,0.0,0.0,0.0,0.0,0.0,-7.1312,0.0,-7.1312,0.0,0.0,0.0,0.0,0.0,0.0,0.0,0.0,0.0,0.0,0.0,0.0,0.0,0.0,0.0,0.0,0.0,0.0,0.0,0.0,-7.1312,-7.1312,-7.1312,-7.1312,-7.1312,-7.1312,-7.1312,-7.1312,-7.1312,-7.1312,-7.1312,-7.1312,-7.1312,-7.1312,-7.1312,-7.1312,-7.1312,-7.1312,-7.1312,-7.1312,-7.1312,-7.1312,-7.1312,-7.1312,-7.1312,-7.1312,-7.1312,-7.1312,-7.1312,-6.5301,-6.5518,-6.5917,-6.5917,0.0,-6.6786,-6.6786,-6.6638,-6.633,-6.5792,-6.5251,0.0,-6.4209,-6.4153,0.0,0.0,-6.3617,-6.3903,0.0,0.0,-6.4343,-6.4884,-6.5087,0.0,-6.4918,-6.5628,-6.6,-6.6,-6.6542,-6.6812,0.0,0.0,0.0,0.0,0.0,-6.6812,-6.6812,0.0,0.0,-6.7929,-6.8368,-6.9316,-7.05,-7.05,-7.0838,-7.1312,-7.1312,-7.1312,-7.1312,-7.1312,-7.1312,0.0,-7.1312,0.0,0.0,0.0,0.0,0.0,-7.1312,0.0,0.0,0.0,0.0,0.0,0.0,0.0,0.0,0.0,0.0,0.0,0.0,0.0,0.0,-7.1312,0.0,0.0,0.0,0.0,0.0,0.0,0.0,0.0,0.0,0.0,0.0,0.0,-7.1176,0.0,-7.1312,-7.1312,-7.1312,-7.1312,-7.1312,-7.1312,-7.1312,-7.1312,-7.1312,-7.1312,-7.1312,-7.1312,-7.1312,-7.1312,-7.1312,-7.1312,-7.1312,-7.1312,-7.1312,-7.1312,-7.1312,-7.1312,-7.1312,-7.1312,-7.1312,-7.1312,-7.1312,-7.1312,-6.675,-6.675,-6.675,-6.675,0.0,0.0,0.0,0.0,0.0,0.0,0.0,0.0,0.0,0.0,0.0,0.0,0.0,-6.4884,-6.5561,0.0,-6.5628,0.0,0.0,-6.6406,-6.5662,-6.6406,-6.6779,-6.6779,-6.6812,-6.6812,0.0,0.0,0.0,0.0,0.0,-6.6812,-6.688,-6.7557,-6.7895,-6.803,-6.9519,-7.0567,-7.1278,0.0,-7.1312,-7.1312,-7.1312,0.0,0.0,-7.1312,-7.1312,0.0,0.0,0.0,0.0,0.0,0.0,0.0,0.0,0.0,0.0,-7.1312,0.0,0.0,0.0,0.0,-7.1312,0.0,0.0,0.0,0.0,-7.1312,-7.1312,-7.1312,-7.1312,0.0,0.0,0.0,0.0,0.0,0.0,0.0,0.0,0.0,0.0,0.0,-7.1312,-7.1312,-7.1312,-7.1312,-7.1312,-7.1312,-7.1312,-7.1312,-7.1312,-7.1312,-7.1312,-7.1312,-7.1312,-7.1312,-7.1312,-7.1312,-7.1312,-7.1312,-7.1312,-7.1312,-7.1312,-7.1312,-7.1312,-7.1312,-7.1312,-7.1312,-7.1312,-7.1312,-7.1312,-7.1312,-6.6786,-6.6786,-6.6786,0.0,0.0,0.0,0.0,-6.7041,0.0,0.0,0.0,0.0,0.0,-6.6204,-6.6131,0.0,0.0,-6.5425,-6.5662,-6.5696,0.0,0.0,0.0,-6.6677,0.0,-6.6677,-6.6812,-6.6812,-6.6812,-6.6812,0.0,0.0,0.0,0.0,0.0,-6.7083,0.0,0.0,0.0,0.0,0.0,-7.1075,-7.1312,0.0,0.0,-7.1312,-7.1312,-7.1312,0.0,-7.1312,-7.1312,-7.1312,-7.1312,-7.1312,-7.1312,-7.1312,-7.1312,0.0,0.0,0.0,-7.1312,-7.1312,0.0,0.0,0.0,0.0,0.0,0.0,0.0,0.0,0.0,-7.1312,-7.1312,-7.1312,-7.1312,-7.1312,0.0,0.0,0.0,0.0,0.0,0.0,0.0,0.0,0.0,-7.1312,-7.1312,-7.1312,0.0,-7.1312,-7.1312,-7.1312,-7.1312,-7.1312,-7.1312,-7.1312,-7.1312,-7.1312,-7.1312,-7.1312,-7.1312,-7.1312,-7.1312,-7.1312,-7.1312,-7.1312,-7.1312,-7.1312,-7.1312,-7.1312,-7.1312,-7.1312,-7.1312,-7.1312,-7.1312,-7.1312,-6.6786,-6.6786,0.0,0.0,0.0,0.0,0.0,0.0,0.0,0.0,-6.8407,0.0,-6.7482,0.0,-6.7319,0.0,-6.6133,-6.6102,-6.6102,-6.6102,0.0,-6.6779,-6.6812,0.0,0.0,-6.6812,-6.6812,-6.6812,-6.6812,-6.6812,0.0,0.0,0.0,0.0,0.0,0.0,0.0,0.0,-6.9282,0.0,0.0,-7.1312,0.0,0.0,-7.1312,-7.1312,0.0,-7.1312,-7.1312,-7.1312,-7.1312,-7.1312,-7.1312,-7.1312,-7.1312,-7.1312,-7.1312,-7.1312,-7.1312,-7.1312,0.0,-7.1312,-7.1312,0.0,-7.1312,0.0,0.0,0.0,0.0,0.0,0.0,-7.1312,-7.1312,-7.1312,-7.1312,-7.1312,0.0,-7.1075,0.0,0.0,0.0,0.0,0.0,0.0,-7.1312,-7.1312,-7.1312,-7.1312,0.0,0.0,-7.1312,-7.1312,-7.1312,-7.1312,-7.1312,-7.1312,-7.1312,-7.1312,-7.1312,-7.1312,-7.1312,-7.1312,-7.1312,-7.1312,-7.1312,-7.1312,-7.1312,-7.1312,-7.1312,-7.1312,-7.1312,-7.1312,-7.1312,-7.1312,-7.1312,-7.1312,0.0,0.0,0.0,0.0,-6.6931,0.0,0.0,0.0,-6.838,0.0,-6.9937,-7.0413,-7.0283,-6.9668,-6.9202,-6.9091,-6.7736,0.0,-6.6812,-6.6812,0.0,0.0,-6.6812,-6.6812,-6.6812,0.0,-6.6812,-6.6812,-6.6812,-6.6812,0.0,0.0,0.0,0.0,-6.7557,0.0,-6.8064,-6.9553,-7.0195,-7.0297,-7.1041,-7.1312,-7.1312,-7.1312,-7.1312,-7.1312,-7.1312,-7.1312,-7.1312,-7.1312,-7.1312,-7.1312,-7.1312,-7.1312,-7.1312,-7.1312,-7.1312,-7.1312,-7.1312,-7.1312,-7.1312,-7.1312,0.0,0.0,0.0,0.0,-7.1312,0.0,0.0,0.0,0.0,0.0,-7.1312,-7.1312,-7.1312,-7.1312,-7.1312,-7.0669,-7.0195,0.0,0.0,0.0,0.0,-7.121,-7.121,-7.121,-7.121,-7.121,0.0,0.0,-7.121,-7.121,-7.1244,-7.1278,-7.1278,-7.1312,-7.1312,-7.1312,-7.1312,-7.1312,-7.1312,-7.1312,-7.1312,-7.1312,-7.1312,-7.1312,-7.1312,-7.1312,-7.1312,-7.1312,-7.1312,-7.1312,-7.1312,-7.1312,-7.1312,-7.1312,-6.8452,-6.8561,-6.8561,0.0,-6.8561,-6.8633,0.0,0.0,0.0,0.0,-7.0382,-7.0554,-6.8809,-6.9494,-6.9383,-6.7576,-6.761,0.0,0.0,0.0,0.0,-6.6812,-6.6812,-6.6812,-6.6812,-6.6812,-6.6812,-6.6812,-6.6812,0.0,-6.6812,0.0,0.0,0.0,0.0,0.0,-6.8842,-6.9789,-7.05,-7.1041,-7.1244,-7.1312,0.0,0.0,-7.1312,-7.1312,-7.1312,-7.1312,-7.1312,-7.1312,-7.1312,-7.1312,-7.1312,-7.1312,-7.1312,-7.1312,-7.1312,-7.1312,-7.1312,-7.1312,-7.1312,-7.1312,-7.1312,-7.1312,0.0,0.0,0.0,0.0,0.0,0.0,0.0,0.0,0.0,-7.1312,-7.1312,-7.1312,-7.1312,0.0,0.0,-7.0195,0.0,0.0,0.0,-6.9654,-6.9654,-6.9654,-6.9654,-6.9654,0.0,0.0,0.0,-6.9654,-7.0195,-7.0466,-7.0466,-7.1041,-7.1312,-7.1312,-7.1312,-7.1312,-7.1312,-7.1312,-7.1312,-7.1312,-7.1312,-7.1312,-7.1312,-7.1312,-7.1312,-7.1312,-7.1312,-7.1312,-7.1312,-7.1312,-7.1312,-7.1312,-6.9134,0.0,0.0,-6.975,0.0,0.0,-6.9787,0.0,0.0,-7.0224,-7.0951,0.0,-6.9672,-7.0025,-6.9849,-6.8486,-6.8447,0.0,-6.7366,0.0,0.0,-6.6812,-6.6812,-6.6812,-6.6812,-6.6812,0.0,-6.6812,0.0,0.0,-6.6812,0.0,0.0,0.0,0.0,-6.8842,0.0,-7.0364,-7.0939,-7.1312,-7.1312,0.0,0.0,-7.1312,-7.1312,-7.1312,-7.1312,-7.1312,-7.1312,-7.1312,-7.1312,-7.1312,-7.1312,-7.1312,-7.1312,-7.1312,-7.1312,-7.1312,-7.1312,-7.1312,-7.1312,-7.1312,-7.1312,-7.1312,-7.1312,-7.1312,-7.1312,0.0,0.0,0.0,0.0,0.0,0.0,-7.1312,-7.1312,-7.1312,0.0,0.0,0.0,0.0,-6.8774,0.0,0.0,-6.8707,-6.9113,-6.9113,-6.9113,0.0,0.0,0.0,0.0,-6.9113,-6.9485,-6.9722,-6.9722,-7.0128,-7.0364,-7.0364,-7.0669,-7.0804,-7.0838,-7.1176,-7.1312,-7.1312,-7.1312,-7.1312,-7.1312,-7.1312,-7.1312,-7.1312,-7.1312,-7.1312,-7.1312,-7.1312,-7.1312,-7.1312,0.0,0.0,0.0,0.0,0.0,0.0,0.0,-7.0517,0.0,-7.1422,0.0,-7.1499,-7.1512,-7.1021,-7.062,-7.0415,0.0,-6.9107,-6.8206,-6.8126,-6.7837,-6.7117,-6.7117,-6.7117,-6.7117,-6.7015,-6.6948,0.0,-6.688,-6.6812,0.0,0.0,0.0,0.0,0.0,0.0,0.0,-7.1041,-7.1312,0.0,-7.1312,-7.1312,-7.1312,-7.1312,-7.1312,-7.1312,-7.1312,-7.1312,-7.1312,-7.1312,-7.1312,-7.1312,-7.1312,-7.1312,-7.1312,-7.1312,-7.1312,-7.1312,-7.1312,-7.1312,-7.1312,-7.1312,-7.1312,-7.1312,-7.1312,-7.1312,-7.1312,-7.1312,-7.1312,-7.1312,0.0,0.0,0.0,0.0,0.0,0.0,0.0,0.0,0.0,0.0,0.0,0.0,0.0,0.0,0.0,-6.8808,-6.8808,0.0,0.0,0.0,0.0,-6.8808,-6.8876,0.0,-6.8944,0.0,-6.9113,-6.9113,-6.9857,-7.0195,-7.0229,-7.0973,-7.1312,-7.1312,-7.1312,-7.1312,-7.1312,-7.1312,-7.1312,-7.1312,-7.1312,-7.1312,-7.1312,-7.1312,-7.1312,-7.1312,0.0,0.0,0.0,0.0,0.0,-7.1458,-7.1313,-7.1313,-7.135,-7.1494,-7.1494,-7.1524,-7.1574,-7.2017,-7.1757,-7.041,-7.0791,0.0,0.0,0.0,0.0,-6.8707,-6.8707,-6.8707,-6.8707,-6.8064,-6.7692,0.0,-6.7117,-6.6812,-6.6812,0.0,0.0,0.0,0.0,0.0,-7.1142,-7.1278,0.0,-7.1312,-7.1312,-7.1312,-7.1312,-7.1312,-7.1312,-7.1312,-7.1312,-7.1312,-7.1312,-7.1312,-7.1312,-7.1312,-7.1312,-7.1312,-7.1312,-7.1312,-7.1312,-7.1312,-7.1312,-7.1312,-7.1312,-7.1312,-7.1312,-7.1312,-7.1312,-7.1312,-7.1312,-7.1312,-7.1312,-7.1312,-7.1312,0.0,0.0,0.0,0.0,0.0,0.0,0.0,0.0,0.0,0.0,0.0,0.0,0.0,0.0,0.0,0.0,0.0,0.0,0.0,0.0,0.0,0.0,0.0,0.0,0.0,-6.9113,-6.9113,-6.9857,-7.0195,-7.0229,-7.0973,-7.1312,-7.1312,-7.1312,-7.1312,-7.1312,-7.1312,-7.1312,-7.1312,-7.1312,-7.1312,-7.1312,-7.1312,-7.1312,-7.1312,0.0,0.0,0.0,0.0,0.0,0.0,0.0,-7.1857,0.0,-7.211,-7.211,-7.2308,-7.2736,-7.2708,-7.2368,-7.1598,-7.1482,-7.0937,-6.9746,-6.9696,-6.9518,-6.9113,-6.9113,0.0,-6.9113,-6.8707,-6.8504,-6.8504,-6.8166,-6.7996,-6.7996,0.0,0.0,0.0,0.0,-7.0973,0.0,0.0,0.0,-7.1312,-7.1312,-7.1312,-7.1312,-7.1312,-7.1312,-7.1312,-7.1312,-7.1312,-7.1312,-7.1312,-7.1312,-7.1312,-7.1312,-7.1312,-7.1312,-7.1312,-7.1312,-7.1312,-7.1312,-7.1312,-7.1312,-7.1312,-7.1312,-7.1312,-7.1312,-7.1312,-7.1312,-7.1312,-7.1312,-7.1312,-7.1312,-7.1312,0.0,0.0,0.0,0.0,0.0,0.0,0.0,0.0,0.0,0.0,0.0,0.0,0.0,0.0,0.0,0.0,0.0,0.0,0.0,0.0,0.0,0.0,0.0,0.0,0.0,-6.7929,-6.9079,-6.962,-6.9654,-7.0804,-7.1312,-7.1312,-7.1312,-7.1312,-7.1312,-7.1312,-7.1312,-7.1312,-7.1312,-7.1312,-7.1312,-7.1312,-7.1075,-7.077,0.0,-7.1494,0.0,0.0,-7.1748,0.0,-7.2001,-7.2545,-7.2907,-7.2726,-7.2871,-7.3269,-7.4102,-7.3604,-7.3119,-7.2976,-7.2464,-7.1781,-7.0739,-7.0698,-7.0526,-7.0089,-6.9909,-6.9823,-6.9823,-6.9687,-6.9533,0.0,-6.918,-6.8842,0.0,0.0,0.0,0.0,0.0,0.0,0.0,0.0,-7.1312,-7.1312,-7.1312,-7.1312,-7.1312,-7.1312,-7.1312,-7.1312,-7.1312,-7.1312,-7.1312,-7.1312,-7.1312,-7.1312,-7.1312,-7.1312,-7.1312,-7.1312,-7.1312,-7.1312,-7.1312,-7.1312,-7.1312,-7.1312,-7.1312,-7.1312,-7.1312,-7.1312,-7.1312,-7.1312,-7.1312,-7.1312,-7.1312,-7.1312,0.0,0.0,0.0,0.0,0.0,0.0,0.0,0.0,0.0,0.0,0.0,0.0,0.0,0.0,0.0,-6.6812,-6.6812,-6.6812,0.0,0.0,0.0,-6.6812,-6.6812,0.0,-6.6812,0.0,-6.8368,-6.9113,-6.9147,-7.0635,-7.1312,-7.1312,-7.1312,-7.1312,-7.1312,-7.1312,-7.121,-7.1075,-7.1075,-7.0973,-7.0838,-7.0838,-7.0466,-7.006,0.0,0.0,0.0,0.0,0.0,0.0,0.0,-7.374,-7.3559,-7.2798,-7.3342,-7.4102,-7.4902,-7.4941,-7.4579,-7.3751,-7.4352,-7.4052,-7.2375,-7.2249,-7.2583,-7.3312,-7.2583,-7.2199,-7.2199,-7.1511,-7.0823,0.0,-6.9417,-6.803,0.0,0.0,0.0,0.0,0.0,0.0,0.0,-7.1312,-7.1312,-7.1312,-7.1312,-7.1312,-7.1312,-7.1312,-7.1312,-7.1312,-7.1312,-7.1312,-7.1312,-7.1312,-7.1312,-7.1312,-7.1312,-7.1312,-7.1312,-7.1312,-7.1312,-7.1312,-7.1312,-7.1312,-7.1312,-7.1312,-7.1312,-7.1312,-7.1312,-7.1312,-7.1312,-7.1312,-7.1312,-7.1312,-7.1312,-7.1312,-7.1312,0.0,0.0,0.0,0.0,0.0,0.0,0.0,0.0,0.0,0.0,0.0,0.0,0.0,0.0,-6.6812,-6.6812,-6.6812,-6.6812,-6.6812,0.0,-6.6812,-6.6812,-6.6812,0.0,-6.6846,-6.8368,-6.9113,-6.9147,-7.0635,-7.1312,-7.1312,-7.1312,-7.1312,-7.1312,-7.1312,-7.0906,-7.0297,-7.0297,-6.9891,-6.9316,-6.9316,-6.9248,-6.9214,0.0,0.0,0.0,0.0,0.0,0.0,0.0,-7.4319,-7.4468,-7.4178,-7.4395,-7.4935,-7.5732,-7.5361,-7.4977,-7.4604,-7.4414,-7.4033,-7.3322,-7.3281,-7.3442,-7.3799,-7.3482,-7.3281,-7.3281,-7.2968,-7.2667,0.0,0.0,0.0,0.0,0.0,0.0,0.0,0.0,-7.1312,-7.1312,-7.1312,-7.1312,-7.1312,-7.1312,-7.1312,-7.1312,-7.1312,-7.1312,-7.1312,-7.1312,-7.1312,-7.1312,-7.1312,-7.1312,-7.1312,-7.1312,-7.1312,-7.1312,-7.1312,-7.1312,-7.1312,-7.1312,-7.1312,-7.1312,-7.1312,-7.1312,-7.1312,-7.1312,-7.1312,-7.1312,-7.1312,-7.1312,-7.1312,-7.1312,-7.1312,-7.1312,0.0,0.0,0.0,0.0,0.0,0.0,0.0,0.0,-6.8301,0.0,0.0,0.0,0.0,0.0,0.0,-6.6812,-6.6812,-6.6812,-6.6812,0.0,-6.6812,-6.6812,-6.6812,-6.7015,-6.7489,-6.8571,-6.9316,-6.9789,-7.0838,-7.1312,-7.1312,-7.1312,-7.1075,-7.0635,-7.0635,-7.0195,-6.9553,-6.9553,-6.935,-6.9113,-6.9113,-6.8808,-6.8368,-7.2943,0.0,-7.3305,0.0,-7.425,-7.4356,-7.4573,-7.5116,-7.5478,-7.5478,-7.5478,-7.5659,-7.6239,-7.5795,-7.5335,-7.5118,-7.4752,-7.4416,-7.4187,-7.4149,-7.4264,-7.4529,-7.4302,0.0,-7.4149,-7.4149,-7.4033,-7.3799,-7.32,0.0,0.0,0.0,0.0,0.0,-7.1312,-7.1312,-7.1312,-7.1312,-7.1312,-7.1312,-7.1312,-7.1312,-7.1312,-7.1312,-7.1312,-7.1312,-7.1312,-7.1312,-7.1312,-7.1312,-7.1312,-7.1312,-7.1312,-7.1312,-7.1312,-7.1312,-7.1312,-7.1312,-7.1312,-7.1312,-7.1312,-7.1312,-7.1312,-7.1312,-7.1312,-7.1312,-7.1312,-7.1312,-7.1312,-7.1312,-7.1312,-7.1312,-7.1312,-7.1312,0.0,0.0,0.0,0.0,0.0,0.0,-6.9722,-6.9011,-6.7996,0.0,0.0,0.0,0.0,0.0,0.0,-6.6812,0.0,0.0,0.0,0.0,0.0,-6.6812,-6.7184,-6.7895,-6.8707,-6.9485,-7.0229,-7.0973,-7.1176,-7.0973,-7.0973,-7.0567,-6.9857,-6.9857,-6.9417,-6.8741,-6.8741,-6.8605,-6.8436,-6.8436,-6.8064,-6.759,-7.3885,-7.3885,-7.4138,-7.4938,-7.5083,-7.537,-7.613,-7.6275,-7.6275,-7.6275,-7.6275,-7.6275,-7.6275,-7.6275,-7.5969,-7.5155,-7.5829,-7.5933,-7.5118,-7.5082,-7.5406,0.0,0.0,-7.5082,-7.5082,-7.5082,-7.464,-7.3799,0.0,0.0,-6.9193,0.0,-6.9147,-7.1312,-7.1312,-7.1312,-7.1312,-7.1312,-7.1312,-7.1312,-7.1312,-7.1312,-7.1312,-7.1312,-7.1312,-7.1312,-7.1312,-7.1312,-7.1312,-7.1312,-7.1312,-7.1312,-7.1312,-7.1312,-7.1312,-7.1312,-7.1312,-7.1312,-7.1312,-7.1312,-7.1312,-7.1312,-7.1312,-7.1312,-7.1312,-7.1312,-7.1312,-7.1312,-7.1312,-7.1312,-7.1312,-7.1312,-7.1312,-7.1312,0.0,0.0,0.0,0.0,0.0,0.0,-7.0195,-6.9586,-6.803,0.0,0.0,0.0,0.0,0.0,0.0,0.0,0.0,-6.6812,-6.6812,0.0,-6.6812,-6.6812,-6.7184,-6.7895,-6.8707,-6.9485,-7.0229,-7.0973,-7.0906,-7.0195,-7.0195,-6.9789,-6.9113,-6.9113,-6.8639,-6.7895,-6.7895,-6.7489,-6.6846,-6.6846,-6.6846,-6.6812,-7.4612,-7.4721,-7.4971,-7.5768,-7.5913,-7.5985,-7.6239,-7.6275,-7.6275,-7.6275,-7.6275,-7.6275,-7.6275,-7.6275,-7.6208,0.0,-7.614,-7.6174,0.0,-7.5898,-7.6038,-7.6275,-7.6072,-7.5898,-7.5898,-7.5898,-7.5795,-7.5513,0.0,0.0,0.0,-7.1171,-7.1147,-7.1312,-7.1312,-7.1312,-7.1312,-7.1312,-7.1312,-7.1312,-7.1312,-7.1312,-7.1312,-7.1312,-7.1312,-7.1312,-7.1312,-7.1312,-7.1312,-7.1312,-7.1312,-7.1312,-7.1312,-7.1312,-7.1312,-7.1312,-7.1312,-7.1312,-7.1312,-7.1312,-7.1312,-7.1312,-7.1312,-7.1312,-7.1312,-7.1312,-7.1312,-7.1312,-7.1312,-7.1312,-7.1312,-7.1312,-7.1312,-7.1312,-7.1312,0.0,0.0,0.0,0.0,0.0,-7.05,-6.9992,0.0,-6.8504,0.0,0.0,0.0,0.0,0.0,0.0,0.0,0.0,-6.6812,0.0,-6.6812,-6.732,-6.7929,-6.8741,-6.9485,-7.0229,-7.0973,-7.121,-7.0906,-7.0195,-7.0195,-6.9451,-6.8267,-6.8267,-6.7827,-6.7151,-6.7151,-6.7015,-6.6812,-6.6812,-6.6812,-6.6812,-7.5442,-7.5551,-7.5696,-7.6203,-7.6275,-7.6275,-7.6275,-7.6275,-7.6275,-7.6275,-7.6275,-7.6275,-7.6275,-7.6275,0.0,-7.6275,-7.6275,-7.6275,-7.6275,-7.6275,-7.6275,-7.6275,-7.6275,-7.6275,-7.6275,0.0,0.0,-7.6275,-7.5513,-7.4565,-7.3482,-7.3119,-7.2533,-7.1776,-7.1776,-7.159,-7.1312,-7.1312,-7.1312,-7.1312,-7.1312,-7.1312,-7.1312,-7.1312,-7.1312,-7.1312,-7.1312,-7.1312,-7.1312,-7.1312,-7.1312,-7.1312,-7.1312,-7.1312,-7.1312,-7.1312,-7.1312,-7.1312,-7.1312,-7.1312,-7.1312,-7.1312,-7.1312,-7.1312,-7.1312,-7.1312,-7.1312,-7.1312,-7.1312,-7.1312,-7.1312,-7.1312,-7.1312,-7.1312,-7.1312,-7.1312,-7.1312,0.0,0.0,0.0,0.0,0.0,0.0,-6.9316,0.0,0.0,0.0,0.0,0.0,0.0,0.0,-6.6812,-6.6812,0.0,-6.7218,-6.7658,-6.8436,-6.9519,-7.0263,-7.0872,-7.1312,-7.1007,-7.0466,-6.9755,-6.9451,-6.8639,-6.7489,-6.7489,-6.7218,-6.6812,-6.6812,-6.6812,-6.6812,-6.6812,-6.6812,-6.6812,-7.6275,-7.6275,0.0,0.0,-7.6275,0.0,-7.6275,-7.6275,-7.6275,-7.6275,-7.6275,-7.6275,-7.6275,-7.6275,-7.6275,-7.6275,0.0,0.0,0.0,-7.6275,-7.6275,-7.6275,-7.6275,-7.6275,-7.6275,-7.6275,-7.6275,-7.6275,-7.5549,-7.5155,-7.5082,-7.4299,-7.3442,-7.2617,-7.2617,-7.2142,-7.1401,-7.1401,-7.1401,-7.1401,-7.1401,-7.1446,-7.1457,-7.1401,-7.1401,-7.1401,-7.1312,-7.1312,-7.1312,-7.1312,-7.1312,-7.1312,-7.1312,-7.1312,-7.1312,-7.1312,-7.1312,-7.1312,-7.1312,-7.1312,-7.1312,-7.1312,-7.1312,-7.1312,-7.1312,-7.1312,-7.1312,-7.1312,-7.1312,-7.1312,-7.1312,-7.1312,-7.1312,-7.1312,-7.1312,-7.1312,-7.1312,0.0,0.0,0.0,0.0,0.0,0.0,-7.0229,-6.9891,0.0,0.0,0.0,0.0,0.0,-6.6948,-6.688,-6.688,-6.7252,-6.7963,-6.803,-6.8808,-7.0263,-7.0973,-7.1278,-7.121,-7.05,-6.9755,-6.8977,-6.8233,-6.7489,-6.6812,-6.6812,-6.6812,-6.6812,-6.6812,-6.6812,-6.6812,-6.6812,-6.6812,-6.6812,0.0,0.0,-7.6275,-7.6275,-7.6275,-7.6275,-7.6275,-7.6275,-7.6275,-7.6275,-7.6275,-7.6275,-7.6275,-7.6275,-7.6275,-7.6275,-7.6275,-7.6275,-7.6275,-7.6275,-7.6275,-7.6275,-7.6275,-7.6275,-7.6275,-7.6275,-7.6275,-7.6275,-7.6106,-7.569,-7.5082,-7.4898,-7.4338,-7.3482,-7.3482,-7.2996,-7.2228,-7.2228,-7.2228,-7.2228,-7.2228,-7.2617,-7.3154,-7.2448,-7.2228,-7.2142,-7.1546,-7.1312,-7.1312,-7.1312,-7.1312,-7.1312,-7.1312,-7.1312,-7.1312,-7.1312,-7.1312,-7.1312,-7.1312,-7.1312,-7.1312,-7.1312,-7.1312,-7.1312,-7.1312,-7.1312,-7.1312,-7.1312,-7.1312,-7.1312,-7.1312,-7.1312,-7.1312,-7.1312,-7.1312,-7.1312,-7.1312,-7.1312,0.0,0.0,-7.1312,-7.1244,-7.1075,-7.0534,-7.0128,0.0,0.0,0.0,0.0,-6.8639,-6.8267,-6.7658,-6.7658,-6.803,-6.8808,-6.935,-7.0128,-7.1041,-7.1244,-7.1007,-7.0432,-7.0263,-6.9451,-6.8166,-6.7996,-6.7489,-6.6812,-6.6812,-6.6812,-6.6812,-6.6812,-6.6812,-6.6812,-6.6812,-6.6812,-6.6812,-7.6275,-7.6275,-7.6275,-7.6275,-7.6275,-7.6275,-7.6275,-7.6275,-7.6275,-7.6275,-7.6275,-7.6275,-7.6275,-7.6275,-7.6275,-7.6275,-7.6275,-7.6275,-7.6275,-7.6275,-7.6275,-7.6275,-7.6275,-7.6275,-7.6275,-7.6275,-7.6275,-7.6275,-7.6275,-7.6072,-7.5655,-7.5655,-7.5191,-7.4414,-7.4414,-7.3917,-7.3078,-7.3078,-7.3078,-7.3078,-7.3078,-7.3362,-7.376,-7.3281,-7.3078,-7.2955,-7.2142,-7.183,-7.1786,-7.1412,-7.1312,-7.1312,-7.1312,-7.1312,-7.1312,-7.1312,-7.1312,-7.1312,-7.1312,-7.1312,-7.1312,-7.1312,-7.1312,-7.1312,-7.1312,-7.1312,-7.1312,-7.1312,-7.1312,-7.1312,-7.1312,-7.1312,-7.1312,-7.1312,-7.1312,-7.1312,-7.1312,-7.1312,0.0,-7.1312,-7.1312,-7.1312,-7.1312,-7.0939,-7.0703,-7.0703,-7.0331,0.0,-6.962,-6.9586,-6.9248,-6.847,-6.8436,-6.8808,-6.9586,-7.0331,-7.0737,-7.0804,-7.0804,-7.0398,-6.9688,-6.9316,-6.8673,-6.7895,-6.7557,-6.7184,-6.6812,-6.6812,-6.6812,-6.6812,-6.6812,-6.6812,-6.6812,-6.6812,-6.6812,-6.6812,-7.6311,-7.6275,-7.6275,-7.6275,-7.6275,-7.6275,-7.6275,-7.6275,-7.6275,-7.6275,-7.6275,-7.6275,-7.6275,-7.6275,-7.6275,-7.6275,-7.6275,-7.6275,-7.6275,-7.6275,-7.6275,-7.6275,-7.6275,-7.6275,-7.6275,-7.6275,-7.6275,-7.6275,-7.6275,-7.6275,-7.6275,-7.6275,-7.5969,-7.5263,-7.5263,-7.4789,-7.3994,-7.3994,-7.3994,-7.3994,-7.3994,-7.4072,-7.4149,-7.4033,-7.3994,-7.3878,-7.2996,-7.27,-7.2575,-7.1776,-7.1457,-7.1457,-7.1356,-7.1312,-7.1312,-7.1312,-7.1312,-7.1312,-7.1312,-7.1312,-7.1312,-7.1312,-7.1312,-7.1312,-7.1312,-7.1312,-7.1312,-7.1312,-7.1312,-7.1312,-7.1312,-7.1312,-7.1312,-7.1312,-7.1312,-7.1312,-7.1312,0.0,-7.1312,-7.1312,-7.1312,-7.1312,-7.1312,-7.1312,-7.1312,-7.1312,-7.1312,-7.1041,-7.0398,-7.0364,-7.006,-6.9451,-6.9316,-6.9553,-7.0195,-7.0838,-7.077,-7.0026,-7.0026,-6.962,-6.891,-6.8199,-6.7827,-6.7692,-6.7083,-6.6812,-6.6812,-6.6812,-6.6812,-6.6812,-6.6812,-6.6812,-6.6812,-6.6812,-6.6812,-6.6812,-7.6309,-7.6275,-7.6275,-7.6275,-7.6275,-7.6275,-7.6275,-7.6275,-7.6275,-7.6275,-7.6275,-7.6275,-7.6275,-7.6275,-7.6275,-7.6275,-7.6275,-7.6275,-7.6275,-7.6275,-7.6275,-7.6275,-7.6275,-7.6275,-7.6275,-7.6275,-7.6275,-7.6275,-7.6275,-7.6275,-7.6275,-7.6275,-7.6242,-7.6106,-7.6106,-7.5655,-7.4898,-7.4898,-7.4898,-7.4898,-7.4898,-7.5299,-7.5829,-7.5155,-7.4898,-7.4752,-7.3917,-7.3602,-7.3482,-7.2617,-7.2321,-7.2185,-7.1501,-7.1312,-7.1312,-7.1312,-7.1312,-7.1312,-7.1312,-7.1312,-7.1312,-7.1312,-7.1312,-7.1312,-7.1312,-7.1312,-7.1312,-7.1312,-7.1312,-7.1312,-7.1312,-7.1312,-7.1312,-7.1312,-7.1312,-7.1312,-7.1312,0.0,-7.1312,-7.1312,-7.1312,-7.1312,-7.1312,-7.1312,-7.1312,-7.1312,-7.1312,-7.1278,-7.1142,-7.1142,-7.1075,-7.0973,-7.0331,-7.006,-7.0195,-7.0297,-6.9992,-6.9282,-6.9282,-6.8842,-6.8098,-6.7963,-6.7557,-6.6981,-6.688,-6.6812,-6.6812,-6.6812,-6.6812,-6.6812,-6.6812,-6.6812,-6.6812,-6.6812,-6.6812,-6.6812,-7.6478,-7.6445,-7.6412,-7.6345,-7.6275,-7.6275,-7.6275,-7.6275,-7.6275,-7.6275,-7.6275,-7.6275,-7.6275,-7.6275,-7.6275,-7.6275,-7.6275,-7.6275,-7.6275,-7.6275,-7.6275,-7.6275,-7.6275,-7.6275,-7.6275,-7.6275,-7.6275,-7.6275,-7.6275,-7.6275,-7.6275,-7.6275,-7.6275,-7.6275,-7.6275,-7.6106,-7.576,-7.576,-7.576,-7.576,-7.576,-7.5969,-7.6242,-7.5864,-7.576,-7.5655,-7.4789,-7.4489,-7.4376,-7.3482,-7.32,-7.3037,-7.2228,-7.196,-7.1873,-7.1412,-7.1312,-7.1312,-7.1312,-7.1312,-7.1312,-7.1312,-7.1312,-7.1312,-7.1312,-7.1312,-7.1312,-7.1312,-7.1312,-7.1312,-7.1312,-7.1312,-7.1312,-7.1312,-7.1312,0.0,0.0,-7.1312,-7.1312,-7.1312,-7.1312,-7.1312,-7.1312,-7.1312,-7.1312,-7.1312,-7.1312,-7.1312,-7.1312,-7.0939,-7.0703,-7.0703,-7.0364,-6.9992,-6.962,-6.962,-6.9214,-6.8436,-6.8436,-6.8064,-6.732,-6.732,-6.7117,-6.6812,-6.6812,-6.6812,-6.6812,-6.6812,-6.6812,-6.6812,-6.6812,-6.6812,-6.6812,-6.6812,-6.6812,-6.6812,-7.6676,-7.668,-7.6578,-7.6442,-7.6409,-7.6409,-7.6409,-7.6412,-7.6378,-7.6378,-7.6345,-7.6275,-7.6275,-7.6275,-7.6275,-7.6275,-7.6275,-7.6275,-7.6275,-7.6275,-7.6275,-7.6275,-7.6275,-7.6275,-7.6275,-7.6275,-7.6275,-7.6275,-7.6275,-7.6275,-7.6275,-7.6275,-7.6275,-7.6275,-7.6275,-7.6275,-7.6275,-7.6275,-7.6275,-7.6275,-7.6275,-7.6275,-7.6275,-7.6275,-7.6275,-7.6208,-7.562,-7.5371,-7.5263,-7.4414,-7.4072,-7.3956,-7.3078,-7.279,-7.27,-7.2047,-7.1732,-7.1546,-7.1356,-7.1312,-7.1312,-7.1312,-7.1312,-7.1312,-7.1312,-7.1312,-7.1312,-7.1312,-7.1312,-7.1312,-7.1312,-7.1312,-7.1312,-7.1312,0.0,0.0,0.0,-7.1312,-7.1312,-7.1312,-7.1312,-7.1312,-7.1312,-7.1312,-7.1312,-7.1312,-7.1312,-7.1244,-7.1075,-7.05,-7.0026,-6.9654,-6.9823,-6.9586,-6.8842,-6.8808,-6.8436,-6.7658,-6.7658,-6.7354,-6.6812,-6.6812,-6.6812,-6.6812,-6.6812,-6.6812,-6.6812,-6.6812,-6.6812,-6.6812,-6.6812,-6.6812,-6.6812,-6.6812,-6.6812,-6.6812,-7.6801,-7.6769,-7.6769,-7.6769,-7.6769,-7.6769,-7.6769,-7.6643,-7.6581,-7.6581,-7.6412,-7.6275,-7.6275,-7.6275,-7.6275,-7.6275,-7.6275,-7.6275,-7.6275,-7.6275,-7.6275,-7.6275,-7.6275,-7.6275,-7.6275,-7.6275,-7.6275,-7.6275,-7.6275,-7.6275,-7.6275,-7.6275,-7.6275,-7.6275,-7.6275,-7.6275,-7.6275,-7.6275,-7.6275,-7.6275,-7.6275,-7.6275,-7.6275,-7.6275,-7.6275,-7.6275,-7.6208,-7.6208,-7.6106,-7.5263,-7.5009,-7.4861,-7.3956,-7.3721,-7.3681,-7.3641,-7.3037,-7.227,-7.1501,-7.1312,-7.1312,-7.1312,-7.1312,-7.1312,-7.1312,-7.1312,-7.1312,-7.1312,-7.1312,-7.1312,-7.1312,-7.1312,-7.1312,-7.1312,0.0,0.0,-7.1312,-7.1312,-7.1312,-7.1312,-7.1312,-7.1312,-7.1312,-7.1312,-7.1312,-7.1312,-7.1312,-7.1007,-7.0297,-7.0229,-6.9553,-6.8098,-6.8808,-6.8808,-6.7996,-6.7996,-6.7624,-6.688,-6.688,-6.688,-6.6812,-6.6812,-6.6812,-6.6812,-6.6812,-6.6812,-6.6812,-6.6812,-6.6812,-6.6812,-6.6812,-6.6812,-6.6812,-6.6812,-6.6812,-6.6812,-7.7029,-7.6998,-7.6966,-7.6801,-7.6801,-7.6801,-7.6801,-7.6773,-7.6741,-7.6741,-7.6639,-7.6574,-7.6478,-7.6478,-7.6445,-7.6309,-7.6275,-7.6275,-7.6275,-7.6275,-7.6275,-7.6275,-7.6275,-7.6275,-7.6275,-7.6275,-7.6275,-7.6275,-7.6275,-7.6275,-7.6275,-7.6275,-7.6275,-7.6275,-7.6275,-7.6275,-7.6275,-7.6275,-7.6275,-7.6275,-7.6275,-7.6275,-7.6275,-7.6275,-7.6275,-7.6275,-7.6275,-7.6275,-7.6242,-7.5969,-7.5829,-7.569,-7.4863,-7.4602,-7.4489,-7.3956,-7.3562,-7.3119,-7.227,-7.1688,-7.1412,-7.1917,-7.1644,-7.1312,-7.1312,-7.1312,-7.1312,-7.1312,-7.1312,-7.1312,-7.1312,-7.1312,-7.1312,-7.1312,0.0,-7.1312,-7.1312,-7.1312,-7.1312,-7.1312,-7.1312,-7.1312,-7.1312,-7.1312,-7.1312,-7.1312,-7.0872,-7.05,-7.0195,-6.9282,-6.8301,-6.7252,-6.7523,-6.7523,-6.7218,-6.7218,-6.7083,-6.6812,-6.6812,-6.6812,-6.6812,-6.6812,-6.6812,-6.6812,-6.6812,-6.6812,-6.6812,-6.6812,-6.6812,-6.6812,-6.6812,-6.6812,-6.6812,-6.6812,-6.6812,-6.6812,-7.7186,-7.7155,-7.7124,-7.6961,-7.6961,-7.6961,-7.6961,-7.6897,-7.6866,-7.6866,-7.6834,-7.6737,-7.6676,-7.6643,-7.661,-7.6442,-7.6442,-7.6409,-7.6412,-7.6345,-7.6275,-7.6275,-7.6275,-7.6275,-7.6275,-7.6275,-7.6275,-7.6275,-7.6275,-7.6275,-7.6275,-7.6275,-7.6275,-7.6275,-7.6275,-7.6275,-7.6275,-7.6275,-7.6275,-7.6275,-7.6275,-7.6275,-7.6275,-7.6275,-7.6275,-7.6275,-7.6275,-7.6275,-7.6275,-7.6275,-7.6275,-7.6208,-7.5655,-7.5478,-7.5335,-7.4789,-7.4378,-7.4111,-7.3799,-7.2908,-7.209,-7.2099,-7.1688,-7.1356,-7.16,-7.1457,-7.1401,-7.16,-7.1457,-7.1312,-7.1312,-7.1312,-7.1401,-7.1644,-7.1688,-7.1776,-7.2047,-7.209,-7.209,-7.209,-7.1864,-7.1688,-7.1688,-7.1457,-7.121,-7.0973,-7.0466,-6.9992,-6.9485,-6.8267,-6.732,-6.6846,-6.6812,-6.6812,-6.6812,-6.6812,-6.6812,-6.6812,-6.6812,-6.6812,-6.6812,-6.6812,-6.6812,-6.6812,-6.6812,-6.6812,-6.6812,-6.6812,-6.6812,-6.6812,-6.6812,-6.6812,-6.6812,-6.6812,-6.6812,-6.6812,-7.7273,-7.7273,-7.7273,-7.7273,-7.7273,-7.7273,-7.7273,-7.7186,-7.7092,-7.7092,-7.6934,-7.6801,-7.6801,-7.6801,-7.6801,-7.6801,-7.6801,-7.6741,-7.6614,-7.6412,-7.6275,-7.6275,-7.6275,-7.6275,-7.6275,-7.6275,-7.6275,-7.6275,-7.6275,-7.6275,-7.6275,-7.6275,-7.6275,-7.6275,-7.6275,-7.6275,-7.6275,-7.6275,-7.6275,-7.6275,-7.6275,-7.6275,-7.6275,-7.6275,-7.6275,-7.6275,-7.6275,-7.6275,-7.6275,-7.6275,-7.6275,-7.6275,-7.6275,-7.6275,-7.6275,-7.6275,-7.5725,-7.5263,-7.6072,-7.5083,-7.3402,-7.1732,-7.1312,-7.1546,-7.2321,-7.1873,-7.1546,-7.2321,-7.1873,-7.1312,-7.1312,-7.1312,-7.159,-7.2364,-7.2533,-7.279,-7.3681,-7.3799,-7.3799,-7.3799,-7.3037,-7.249,-7.249,-7.1776,-7.1007,-7.0263,-7.0161,-6.9485,-6.7963,-6.7218,-6.6812,-6.6812,-6.6812,-6.6812,-6.6812,-6.6812,-6.6812,-6.6812,-6.6812,-6.6812,-6.6812,-6.6812,-6.6812,-6.6812,-6.6812,-6.6812,-6.6812,-6.6812,-6.6812,-6.6812,-6.6812,-6.6812,-6.6812,-6.6812,-6.6812,-6.6812,-7.7273,-7.7273,-7.7273,-7.7273,-7.7273,-7.7273,-7.7273,-7.7279,-7.7248,-7.7248,-7.7181,-7.7124,-7.7029,-7.7029,-7.6929,-7.6801,-7.6801,-7.6769,-7.6741,-7.6672,-7.6639,-7.6639,-7.6409,-7.6275,-7.6275,-7.6275,-7.6275,-7.6275,-7.6275,-7.6275,-7.6275,-7.6275,-7.6275,-7.6275,-7.6275,-7.6275,-7.6275,-7.6275,-7.6275,-7.6275,-7.6275,-7.6275,-7.6275,-7.6275,-7.6275,-7.6275,-7.6275,-7.6275,-7.6275,-7.6275,-7.6275,-7.6275,-7.6275,-7.6275,-7.6275,-7.6275,-7.614,-7.5864,-7.5549,-7.5118,-7.4602,-7.4107,-7.3517,-7.3113,-7.3362,-7.32,-7.3154,-7.3362,-7.32,-7.3072,-7.3072,-7.3072,-7.3154,-7.3362,-7.3402,-7.3522,-7.376,-7.3799,-7.3799,-7.3799,-7.3037,-7.249,-7.249,-7.1265,-7.0432,-7.0195,-6.918,-6.8166,-6.7184,-6.6948,-6.6812,-6.6812,-6.6812,-6.6812,-6.6812,-6.6812,-6.6812,-6.6812,-6.6812,-6.6812,-6.6812,-6.6812,-6.6812,-6.6812,-6.6812,-6.6812,-6.6812,-6.6812,-6.6812,-6.6812,-6.6812,-6.6812,-6.6812,-6.6812,-6.6812,-6.6812,-7.7273,-7.7273,-7.7273,-7.7273,-7.7273,-7.7273,-7.7273,-7.7273,-7.7273,-7.7273,-7.7273,-7.7279,-7.7186,-7.7186,-7.7155,-7.6993,-7.6929,-7.6897,-7.6897,-7.6834,-7.6801,-7.6801,-7.6607,-7.6475,-7.6475,-7.6475,-7.6475,-7.6475,-7.6445,-7.6412,-7.6412,-7.6345,-7.6275,-7.6275,-7.6275,-7.6275,-7.6275,-7.6275,-7.6275,-7.6275,-7.6275,-7.6275,-7.6275,-7.6275,-7.6275,-7.6275,-7.6275,-7.6275,-7.6275,-7.6275,-7.6275,-7.6275,-7.6275,-7.6275,-7.6275,-7.6275,-7.6275,-7.6174,-7.569,-7.5584,-7.5584,-7.5584,-7.4677,-7.3878,-7.4261,-7.4033,-7.3878,-7.4226,-7.4033,-7.3799,-7.3799,-7.3799,-7.3917,-7.4226,-7.4302,-7.4452,-7.4716,-7.4789,-7.4789,-7.4789,-7.4033,-7.3382,-7.3103,-7.1918,-7.0896,-7.0312,-6.8815,-6.7885,-6.7771,-6.7154,-6.698,-6.7277,-6.698,-6.6812,-6.6812,-6.6812,-6.6812,-6.6812,-6.6812,-6.6812,-6.6812,-6.6812,-6.6812,-6.6812,-6.6812,-6.6812,-6.6812,-6.6812,-6.6812,-6.6812,-6.6812,-6.6812,-6.6812,-6.6812,-6.6812,-6.6812,-7.7273,-7.7273,-7.7273,-7.7273,-7.7273,-7.7273,-7.7273,-7.7273,-7.7273,-7.7273,-7.7273,-7.7273,-7.7273,-7.7273,-7.7273,-7.7273,-7.7186,-7.7124,-7.7124,-7.6966,-7.6834,-7.6834,-7.6834,-7.6834,-7.6834,-7.6801,-7.6801,-7.6801,-7.6676,-7.6614,-7.6614,-7.6445,-7.6345,-7.6345,-7.6345,-7.6345,-7.6275,-7.6275,-7.6275,-7.6275,-7.6275,-7.6275,-7.6275,-7.6275,-7.6275,-7.6275,-7.6275,-7.6275,-7.6275,-7.6275,-7.6275,-7.6275,-7.6275,-7.6275,-7.6275,-7.6275,-7.6275,-7.6275,-7.6275,-7.6275,-7.6275,-7.6275,-7.5155,-7.4226,-7.5045,-7.4602,-7.4226,-7.5045,-7.4602,-7.4033,-7.4033,-7.4033,-7.4264,-7.5082,-7.5191,-7.5442,-7.6208,-7.6275,-7.6275,-7.6203,-7.5477,-7.4689,-7.3869,-7.2957,-7.1795,-7.0321,-6.8903,-6.8409,-6.9128,-6.7816,-6.7325,-6.8093,-6.7407,-6.6988,-6.6988,-6.6904,-6.6896,-6.6812,-6.6812,-6.6812,-6.6812,-6.6812,-6.6812,-6.6812,-6.6812,-6.6812,-6.6812,-6.6812,-6.6812,-6.6812,-6.6812,-6.6812,-6.6812,-6.6812,-6.6812,-6.6812,-7.7273,-7.7273,-7.7273,-7.7273,-7.7273,-7.7273,-7.7273,-7.7273,-7.7273,-7.7273,-7.7273,-7.7273,-7.7273,-7.7273,-7.7273,-7.7273,-7.7243,-7.7279,-7.7279,-7.7248,-7.7181,-7.7181,-7.7181,-7.7181,-7.7181,-7.6929,-7.6801,-7.6801,-7.6769,-7.6773,-7.6773,-7.6705,-7.6643,-7.6512,-7.6512,-7.6445,-7.6275,-7.6275,-7.6275,-7.6275,-7.6275,-7.6275,-7.6275,-7.6275,-7.6275,-7.6275,-7.6275,-7.6275,-7.6275,-7.6275,-7.6275,-7.6275,-7.6275,-7.6275,-7.6275,-7.6275,-7.6275,-7.6275,-7.6275,-7.6275,-7.6275,-7.6275,-7.6038,-7.5829,-7.6003,-7.5898,-7.5829,-7.6003,-7.5898,-7.576,-7.576,-7.576,-7.5829,-7.6038,-7.6038,-7.6106,-7.6275,-7.6275,-7.6058,-7.5442,-7.4651,-7.3833,-7.3048,-7.165,-7.0426,-6.9516,-6.9122,-6.9052,-6.9165,-6.8903,-6.879,-6.8905,-6.879,-6.8676,-6.8676,-6.8054,-6.7407,-6.6812,-6.6812,-6.6812,-6.6812,-6.6812,-6.6812,-6.6812,-6.6812,-6.6812,-6.6812,-6.6812,-6.6812,-6.6812,-6.6812,-6.6812,-6.6812,-6.6812,-6.6812,-6.6812,-7.7273,-7.7273,-7.7273,-7.7273,-7.7273,-7.7273,-7.7273,-7.7273,-7.7273,-7.7273,-7.7273,-7.7273,-7.7273,-7.7273,-7.7273,-7.7273,-7.7273,-7.7273,-7.7273,-7.7273,-7.7273,-7.7273,-7.7273,-7.7273,-7.7273,-7.7118,-7.7024,-7.7024,-7.6961,-7.6929,-7.6929,-7.6834,-7.6737,-7.6708,-7.6708,-7.6643,-7.6541,-7.6541,-7.6541,-7.6508,-7.6478,-7.6445,-7.6445,-7.6345,-7.6275,-7.6275,-7.6275,-7.6275,-7.6275,-7.6275,-7.6275,-7.6275,-7.6275,-7.6275,-7.6275,-7.6275,-7.6275,-7.6275,-7.6275,-7.6275,-7.6275,-7.6275,-7.6275,-7.6275,-7.6275,-7.6275,-7.6275,-7.6275,-7.6275,-7.6275,-7.6275,-7.6275,-7.6275,-7.6275,-7.6275,-7.6167,-7.5768,-7.5732,-7.5442,-7.4612,-7.4168,-7.357,-7.2782,-7.158,-7.0695,-7.0337,-6.9955,-6.992,-7.0267,-6.96,-6.9383,-6.9743,-6.9419,-6.9202,-6.9202,-6.879,-6.837,-6.7935,-6.7195,-6.6812,-6.6812,-6.6812,-6.6812,-6.6812,-6.6812,-6.6812,-6.6812,-6.6812,-6.6812,-6.6812,-6.6812,-6.6812,-6.6812,-6.6812,-6.6812,-6.6812,-7.7273,-7.7273,-7.7273,-7.7273,-7.7273,-7.7273,-7.7273,-7.7273,-7.7273,-7.7273,-7.7273,-7.7273,-7.7273,-7.7273,-7.7273,-7.7273,-7.7273,-7.7273,-7.7273,-7.7273,-7.7273,-7.7273,-7.7273,-7.7273,-7.7273,-7.7273,-7.7273,-7.7273,-7.7186,-7.7124,-7.7124,-7.6961,-7.6866,-7.6834,-7.6834,-7.6834,-7.6801,-7.6801,-7.6801,-7.6769,-7.6676,-7.661,-7.6647,-7.6478,-7.6342,-7.6378,-7.6378,-7.6345,-7.6275,-7.6275,-7.6275,-7.6275,-7.6275,-7.6275,-7.6275,-7.6275,-7.6275,-7.6275,-7.6275,-7.6275,-7.6275,-7.6275,-7.6275,-7.6275,-7.6275,-7.6275,-7.6275,-7.6275,-7.6275,-7.6275,-7.6275,-7.6275,-7.6275,-7.6275,-7.6167,-7.5877,-7.5192,-7.4974,-7.4576,-7.3812,-7.3595,-7.3233,-7.2581,-7.1893,-7.1494,-7.1494,-7.0943,-7.0845,-7.1463,-7.0302,-6.992,-7.0541,-6.9955,-6.9565,-6.9565,-6.9492,-6.9419,-6.9383,-6.7935,-6.7236,-6.7236,-6.7071,-6.6988,-6.7022,-6.6854,-6.6812,-6.6812,-6.6812,-6.6812,-6.6812,-6.6812,-6.6812,-6.6812,-6.6812,-6.6812,-6.6812,-7.7273,-7.7273,-7.7273,-7.7273,-7.7273,-7.7273,-7.7273,-7.7273,-7.7273,-7.7273,-7.7273,-7.7273,-7.7273,-7.7273,-7.7273,-7.7273,-7.7273,-7.7273,-7.7273,-7.7273,-7.7273,-7.7273,-7.7273,-7.7273,-7.7273,-7.7273,-7.7273,-7.7273,-7.7273,-7.7243,-7.7243,-7.7279,-7.7186,-7.7061,-7.7061,-7.6929,-7.6801,-7.6801,-7.6801,-7.6801,-7.6769,-7.6769,-7.6769,-7.6737,-7.6676,-7.6581,-7.6581,-7.6445,-7.6275,-7.6275,-7.6275,-7.6275,-7.6275,-7.6275,-7.6275,-7.6275,-7.6275,-7.6275,-7.6275,-7.6275,-7.6275,-7.6275,-7.6275,-7.6275,-7.6275,-7.6275,-7.6275,-7.6275,-7.6275,-7.6275,-7.6275,-7.6275,-7.6275,-7.6275,-7.5732,-7.5192,-7.5119,-7.4468,-7.3776,-7.2979,-7.2255,-7.1784,-7.1675,-7.1567,-7.1494,-7.1494,-7.1399,-7.1399,-7.1494,-7.1268,-7.1236,-7.1368,-7.1272,-7.1171,-7.1171,-7.0541,-7.0234,-7.0234,-6.931,-6.8903,-6.883,-6.8137,-6.7816,-6.7776,-6.7112,-6.6812,-6.6812,-6.6812,-6.6812,-6.6812,-6.6812,-6.6812,-6.6812,-6.6812,-6.6812,-6.6812,-7.7273,-7.7273,-7.7273,-7.7273,-7.7273,-7.7273,-7.7273,-7.7273,-7.7273,-7.7273,-7.7273,-7.7273,-7.7273,-7.7273,-7.7273,-7.7273,-7.7273,-7.7273,-7.7273,-7.7273,-7.7273,-7.7273,-7.7273,-7.7273,-7.7273,-7.7273,-7.7273,-7.7273,-7.7273,-7.7273,-7.7273,-7.7273,-7.7279,-7.7217,-7.7217,-7.715,-7.7087,-7.7087,-7.7087,-7.7056,-7.7029,-7.6998,-7.6966,-7.6773,-7.6643,-7.6581,-7.6478,-7.6378,-7.6275,-7.6275,-7.6275,-7.6275,-7.6275,-7.6275,-7.6275,-7.6275,-7.6275,-7.6275,-7.6275,-7.6275,-7.6275,-7.6275,-7.6275,-7.6275,-7.6275,-7.6275,-7.6275,-7.6275,-7.6275,-7.6167,-7.5696,-7.5623,-7.5478,-7.5044,-7.4682,-7.425,-7.3849,-7.345,-7.2943,-7.2146,-7.1712,-7.1494,-7.1494,-7.1494,-7.1494,-7.1494,-7.1494,-7.1494,-7.1494,-7.1494,-7.1494,-7.1494,-7.1494,-7.1494,-7.1494,-7.1171,-7.1009,-7.1009,-7.0642,-6.9814,-6.8524,-6.8172,-6.7736,-6.7319,-6.6946,-6.6812,-6.6812,-6.6812,-6.6812,-6.6812,-6.6812,-6.6812,-6.6812,-6.6812,-6.6812,-6.6812]},{"header":{"parameterUnit":"m.s-1","parameterCategory":1,"la1":30.6,"la2":28.766,"lo1":-90.7593,"lo2":-88.6598,"dy":0.0162,"dx":0.0183,"nx":116,"ny":114,"refTime":"2023-06-10T18:00:00:Z","depth":0,"parameterNumber":3,"parameterNumberName":"V-component_of_WINDS"},"data":[0.0,0.0,0.0,0.0,0.0,0.0,0.0,0.0,0.0,0.0,0.0,0.0,0.0,0.0,0.0,0.0,0.0,0.0,0.0,0.0,0.0,0.0,0.0,0.0,0.0,0.0,0.0,0.0,0.0,0.0,0.0,0.0,0.0,0.0,0.0,0.0,0.0,0.0,0.0,0.0,0.0,0.0,0.0,0.0,0.0,0.0,0.0,0.0,0.0,0.0,0.0,0.0,0.0,0.0,0.0,0.0,0.0,0.0,0.0,0.0,0.0,0.0,0.0,0.0,0.0,0.0,0.0,0.0,0.0,0.0,0.0,0.0,0.0,0.0,0.0,0.0,0.0,0.0,0.0,0.0,0.0,0.0,0.0,0.0,0.0,0.0,0.0,0.0,0.0,0.0,0.0,0.0,0.0,0.0,0.0,0.0,0.0,0.0,0.0,0.0,0.0,0.0,0.0,0.0,0.0,0.0,0.0,0.0,0.0,0.0,0.0,0.0,0.0,0.0,0.0,0.0,0.0,0.0,0.0,0.0,0.0,0.0,0.0,0.0,0.0,0.0,0.0,0.0,0.0,0.0,0.0,0.0,0.0,0.0,0.0,0.0,0.0,0.0,0.0,0.0,0.0,0.0,0.0,0.0,0.0,0.0,0.0,0.0,0.0,0.0,0.0,0.0,0.0,0.0,0.0,0.0,0.0,0.0,0.0,0.0,0.0,0.0,0.0,0.0,0.0,0.0,0.0,0.0,0.0,0.0,0.0,0.0,0.0,0.0,0.0,0.0,0.0,0.0,0.0,0.0,0.0,0.0,0.0,0.0,0.0,0.0,0.0,0.0,0.0,0.0,0.0,0.0,0.0,0.0,0.0,0.0,0.0,0.0,0.0,0.0,0.0,0.0,0.0,0.0,0.0,0.0,0.0,0.0,0.0,0.0,0.0,0.0,0.0,0.0,0.0,0.0,0.0,0.0,0.0,0.0,0.0,0.0,0.0,0.0,0.0,0.0,0.0,0.0,0.0,0.0,0.0,0.0,0.0,0.0,0.0,0.0,0.0,0.0,0.0,0.0,0.0,0.0,0.0,0.0,0.0,0.0,0.0,0.0,0.0,0.0,0.0,0.0,0.0,0.0,0.0,0.0,0.0,0.0,0.0,0.0,0.0,0.0,0.0,0.0,0.0,0.0,0.0,0.0,0.0,0.0,0.0,0.0,0.0,0.0,0.0,0.0,0.0,0.0,0.0,0.0,0.0,0.0,0.0,0.0,0.0,0.0,0.0,0.0,0.0,0.0,0.0,0.0,0.0,0.0,0.0,0.0,0.0,0.0,0.0,0.0,0.0,0.0,0.0,0.0,0.0,0.0,0.0,0.0,0.0,0.0,0.0,0.0,0.0,0.0,0.0,0.0,0.0,0.0,0.0,0.0,0.0,0.0,0.0,0.0,0.0,0.0,0.0,0.0,0.0,0.0,0.0,0.0,0.0,0.0,0.0,0.0,0.0,0.0,0.0,0.0,0.0,0.0,0.0,0.0,0.0,0.0,0.0,0.0,0.0,0.0,0.0,0.0,0.0,0.0,0.0,0.0,0.0,0.0,0.0,0.0,0.0,0.0,0.0,0.0,0.0,0.0,0.0,0.0,0.0,0.0,0.0,0.0,0.0,0.0,0.0,0.0,0.0,0.0,0.0,0.0,0.0,0.0,0.0,0.0,0.0,0.0,0.0,0.0,0.0,0.0,0.0,0.0,0.0,0.0,0.0,0.0,0.0,0.0,0.0,0.0,0.0,0.0,0.0,0.0,0.0,0.0,0.0,0.0,0.0,0.0,0.0,0.0,0.0,0.0,0.0,0.0,0.0,0.0,0.0,0.0,0.0,0.0,0.0,0.0,0.0,0.0,0.0,0.0,0.0,0.0,0.0,0.0,0.0,0.0,0.0,0.0,0.0,0.0,0.0,0.0,0.0,0.0,0.0,0.0,0.0,0.0,0.0,0.0,0.0,0.0,0.0,0.0,0.0,0.0,0.0,0.0,0.0,0.0,0.0,0.0,0.0,0.0,0.0,0.0,0.0,0.0,0.0,0.0,0.0,0.0,0.0,0.0,0.0,0.0,0.0,0.0,0.0,0.0,0.0,0.0,0.0,0.0,0.0,0.0,0.0,0.0,0.0,0.0,0.0,0.0,0.0,0.0,0.0,0.0,0.0,0.0,0.0,0.0,0.0,0.0,0.0,0.0,0.0,0.0,0.0,0.0,0.0,0.0,0.0,0.0,0.0,0.0,0.0,0.0,0.0,0.0,0.0,0.0,0.0,0.0,0.0,0.0,0.0,0.0,0.0,0.0,0.0,0.0,0.0,0.0,0.0,0.0,0.0,0.0,0.0,0.0,0.0,0.0,0.0,0.0,0.0,0.0,0.0,0.0,0.0,0.0,0.0,0.0,0.0,0.0,0.0,0.0,0.0,0.0,0.0,0.0,0.0,0.0,0.0,0.0,0.0,0.0,0.0,0.0,0.0,0.0,0.0,0.0,0.0,0.0,0.0,0.0,0.0,0.0,0.0,0.0,0.0,0.0,0.0,0.0,0.0,0.0,0.0,0.0,0.0,0.0,0.0,0.0,0.0,0.0,0.0,0.0,0.0,0.0,0.0,0.0,0.0,0.0,0.0,0.0,0.0,0.0,0.0,0.0,0.0,0.0,0.0,0.0,0.0,0.0,0.0,0.0,0.0,0.0,0.0,0.0,0.0,0.0,0.0,0.0,0.0,0.0,0.0,0.0,0.0,0.0,0.0,0.0,0.0,0.0,0.0,0.0,0.0,0.0,0.0,0.0,0.0,0.0,0.0,0.0,0.0,0.0,0.0,0.0,0.0,0.0,0.0,0.0,0.0,0.0,0.0,0.0,0.0,0.0,0.0,0.0,0.0,0.0,0.0,0.0,0.0,0.0,0.0,0.0,0.0,0.0,0.0,0.0,0.0,0.0,0.0,0.0,0.0,0.0,0.0,0.0,0.0,0.0,0.0,0.0,0.0,0.0,0.0,0.0,0.0,0.0,0.0,0.0,0.0,0.0,0.0,0.0,0.0,0.0,0.0,0.0,0.0,0.0,0.0,0.0,0.0,0.0,0.0,0.0,0.0,0.0,0.0,0.0,0.0,0.0,0.0,0.0,0.0,0.0,0.0,0.0,0.0,0.0,0.0,0.0,0.0,0.0,0.0,0.0,0.0,0.0,0.0,0.0,0.0,0.0,0.0,0.0,0.0,0.0,0.0,0.0,0.0,0.0,0.0,0.0,0.0,0.0,0.0,0.0,0.0,0.0,0.0,0.0,0.0,0.0,0.0,0.0,0.0,0.0,0.0,0.0,0.0,0.0,0.0,0.0,0.0,0.0,0.0,0.0,0.0,0.0,0.0,0.0,0.0,0.0,0.0,0.0,0.0,0.0,0.0,0.0,0.0,0.0,0.0,0.0,0.0,0.0,0.0,0.0,0.0,0.0,0.0,0.0,0.0,0.0,0.0,0.0,0.0,0.0,0.0,0.0,0.0,0.0,0.0,0.0,0.0,0.0,0.0,0.0,0.0,0.0,0.0,0.0,0.0,0.0,0.0,0.0,0.0,0.0,0.0,0.0,0.0,0.0,0.0,0.0,0.0,0.0,0.0,0.0,0.0,0.0,0.0,0.0,0.0,0.0,0.0,0.0,0.0,0.0,0.0,0.0,0.0,0.0,0.0,0.0,0.0,0.0,0.0,0.0,0.0,0.0,0.0,0.0,0.0,0.0,0.0,0.0,0.0,0.0,0.0,0.0,0.0,0.0,0.0,0.0,0.0,0.0,0.0,0.0,0.0,0.0,0.0,0.0,0.0,0.0,0.0,0.0,0.0,0.0,0.0,0.0,0.0,0.0,0.0,0.0,0.0,0.0,0.0,0.0,0.0,0.0,0.0,0.0,0.0,0.0,0.0,0.0,0.0,0.0,0.0,0.0,0.0,0.0,0.0,0.0,0.0,0.0,0.0,0.0,0.0,0.0,0.0,0.0,0.0,0.0,0.0,0.0,0.0,0.0,0.0,0.0,0.0,0.0,0.0,0.0,0.0,0.0,0.0,0.0,0.0,0.0,0.0,0.0,0.0,0.0,0.0,0.0,0.0,0.0,0.0,0.0,0.0,0.0,0.0,0.0,0.0,0.0,0.0,0.0,0.0,0.0,0.0,0.0,0.0,0.0,0.0,0.0,0.0,0.0,0.0,0.0,0.0,0.0,0.0,0.0,0.0,0.0,0.0,0.0,0.0,0.0,0.0,0.0,0.0,0.0,0.0,0.0,0.0,0.0,0.0,0.0,0.0,0.0,0.0,0.0,0.0,0.0,0.0,0.0,0.0,0.0,0.0,0.0,0.0,0.0,0.0,0.0,0.0,0.0,0.0,0.0,0.0,0.0,0.0,0.0,0.0,0.0,0.0,0.0,0.0,0.0,0.0,0.0,0.0,0.0,0.0,0.0,0.0,0.0,0.0,0.0,0.0,0.0,0.0,0.0,0.0,0.0,0.0,0.0,0.0,0.0,0.0,0.0,0.0,0.0,0.0,0.0,0.0,0.0,0.0,0.0,0.0,0.0,0.0,0.0,0.0,0.0,0.0,0.0,0.0,0.0,0.0,0.0,0.0,0.0,0.0,0.0,0.0,0.0,0.0,0.0,0.0,0.0,0.0,0.0,0.0,0.0,0.0,0.0,0.0,0.0,0.0,0.0,0.0,0.0,0.0,0.0,0.0,0.0,0.0,0.0,0.0,0.0,0.0,0.0,0.0,0.0,0.0,0.0,0.0,0.0,0.0,0.0,0.0,0.0,0.0,0.0,0.0,0.0,0.0,0.0,0.0,0.0,0.0,0.0,0.0,0.0,0.0,0.0,0.0,0.0,0.0,0.0,0.0,0.0,0.0,0.0,0.0,0.0,0.0,0.0,0.0,0.0,0.0,0.0,0.0,0.0,0.0,0.0,0.0,0.0,0.0,0.0,0.0,0.0,0.0,0.0,0.0,0.0,0.0,0.0,0.0,0.0,0.0,0.0,0.0,0.0,0.0,0.0,0.0,0.0,0.0,0.0,0.0,0.0,0.0,0.0,0.0,0.0,0.0,0.0,0.0,0.0,0.0,0.0,0.0,0.0,0.0,0.0,0.0,0.0,0.0,0.0,0.0,0.0,0.0,0.0,0.0,0.0,0.0,0.0,0.0,0.0,0.0,0.0,0.0,0.0,0.0,0.0,0.0,0.0,0.0,0.0,0.0,0.0,0.0,0.0,0.0,0.0,0.0,0.0,0.0,0.0,0.0,0.0,0.0,0.0,0.0,0.0,0.0,0.0,0.0,0.0,0.0,0.0,0.0,0.0,0.0,0.0,0.0,0.0,0.0,0.0,0.0,0.0,0.0,0.0,0.0,0.0,0.0,0.0,0.0,0.0,0.0,0.0,0.0,0.0,0.0,0.0,0.0,0.0,0.0,0.0,0.0,0.0,0.0,0.0,0.0,0.0,0.0,0.0,0.0,0.0,0.0,0.0,0.0,0.0,0.0,0.0,0.0,0.0,0.0,0.0,0.0,0.0,0.0,0.0,0.0,0.0,0.0,0.0,0.0,0.0,0.0,0.0,0.0,0.0,0.0,0.0,0.0,0.0,0.0,0.0,0.0,0.0,0.0,0.0,0.0,0.0,0.0,0.0,0.0,0.0,0.0,0.0,0.0,0.0,0.0,0.0,0.0,0.0,0.0,0.0,0.0,0.0,0.0,0.0,0.0,0.0,0.0,0.0,0.0,0.0,0.0,0.0,0.0,0.0,0.0,0.0,0.0,0.0,0.0,0.0,0.0,0.0,0.0,0.0,0.0,0.0,0.0,0.0,0.0,0.0,0.0,0.0,0.0,0.0,0.0,0.0,0.0,0.0,0.0,0.0,0.0,0.0,0.0,0.0,0.0,0.0,0.0,0.0,0.0,0.0,0.0,0.0,0.0,0.0,0.0,0.0,0.0,0.0,0.0,0.0,0.0,0.0,0.0,0.0,0.0,0.0,0.0,0.0,0.0,0.0,0.0,0.0,0.0,0.0,0.0,0.0,0.0,0.0,0.0,0.0,0.0,0.0,-3.9584,0.0,0.0,0.0,0.0,0.0,0.0,0.0,0.0,0.0,0.0,0.0,0.0,0.0,0.0,0.0,0.0,0.0,0.0,0.0,0.0,0.0,0.0,0.0,0.0,0.0,0.0,0.0,0.0,0.0,0.0,0.0,0.0,0.0,0.0,0.0,0.0,0.0,0.0,0.0,0.0,0.0,0.0,0.0,0.0,0.0,0.0,0.0,0.0,0.0,0.0,0.0,0.0,0.0,0.0,0.0,0.0,0.0,0.0,0.0,0.0,0.0,0.0,0.0,0.0,0.0,0.0,0.0,0.0,0.0,0.0,0.0,0.0,0.0,0.0,0.0,0.0,0.0,0.0,0.0,0.0,0.0,0.0,0.0,0.0,0.0,0.0,0.0,0.0,0.0,0.0,0.0,0.0,0.0,0.0,0.0,0.0,0.0,0.0,0.0,0.0,0.0,0.0,0.0,0.0,0.0,0.0,0.0,0.0,0.0,0.0,0.0,0.0,0.0,0.0,0.0,0.0,-4.0646,0.0,0.0,0.0,0.0,0.0,0.0,0.0,0.0,0.0,0.0,0.0,0.0,0.0,0.0,0.0,0.0,0.0,0.0,0.0,0.0,0.0,0.0,0.0,0.0,0.0,0.0,0.0,0.0,0.0,0.0,0.0,0.0,0.0,0.0,0.0,0.0,0.0,0.0,0.0,0.0,0.0,0.0,0.0,0.0,0.0,0.0,0.0,0.0,0.0,0.0,0.0,0.0,0.0,0.0,0.0,0.0,0.0,0.0,0.0,0.0,0.0,0.0,0.0,0.0,0.0,0.0,0.0,0.0,0.0,0.0,0.0,0.0,0.0,0.0,0.0,0.0,0.0,0.0,0.0,0.0,0.0,0.0,0.0,0.0,0.0,0.0,0.0,0.0,0.0,0.0,0.0,0.0,0.0,0.0,0.0,0.0,0.0,0.0,0.0,0.0,0.0,0.0,0.0,0.0,0.0,0.0,0.0,0.0,-3.8879,-3.9682,-4.1055,-4.1113,-4.2049,-4.3714,-4.2722,-4.2211,-4.2073,0.0,0.0,0.0,0.0,0.0,0.0,0.0,0.0,0.0,0.0,0.0,0.0,0.0,0.0,0.0,0.0,0.0,0.0,0.0,0.0,0.0,0.0,0.0,0.0,0.0,0.0,0.0,0.0,0.0,0.0,0.0,0.0,0.0,0.0,0.0,0.0,0.0,0.0,0.0,-3.8104,-3.8191,-3.8191,-3.8191,-3.8191,0.0,0.0,0.0,0.0,0.0,0.0,0.0,0.0,0.0,0.0,0.0,0.0,0.0,0.0,0.0,0.0,0.0,0.0,0.0,0.0,0.0,0.0,0.0,0.0,0.0,0.0,0.0,0.0,0.0,0.0,0.0,0.0,0.0,0.0,0.0,0.0,0.0,0.0,0.0,0.0,0.0,0.0,0.0,-3.5957,-3.6016,0.0,0.0,0.0,0.0,0.0,0.0,0.0,0.0,0.0,0.0,0.0,0.0,0.0,0.0,-3.895,-3.9008,-3.9281,-3.9729,-3.9712,-4.0061,-4.0625,-4.2322,-4.2746,-4.2191,-4.3711,0.0,-4.3295,-4.3685,0.0,0.0,0.0,0.0,0.0,0.0,0.0,0.0,0.0,0.0,0.0,0.0,0.0,0.0,0.0,0.0,0.0,0.0,0.0,0.0,0.0,0.0,0.0,0.0,0.0,0.0,0.0,0.0,0.0,0.0,0.0,0.0,0.0,0.0,0.0,0.0,-3.8088,-3.8191,-3.8191,-3.8191,-3.8191,-3.8191,-3.8191,-3.8191,-3.8191,-3.8191,0.0,0.0,0.0,0.0,0.0,0.0,0.0,0.0,0.0,0.0,0.0,0.0,0.0,0.0,0.0,0.0,0.0,0.0,0.0,0.0,0.0,0.0,0.0,0.0,0.0,0.0,0.0,0.0,0.0,0.0,0.0,0.0,0.0,0.0,0.0,0.0,0.0,0.0,0.0,-3.623,-3.6387,-3.6387,-3.6758,-3.7031,0.0,0.0,0.0,0.0,0.0,0.0,0.0,0.0,0.0,-3.8926,-3.918,-3.9414,-3.959,-3.959,-3.9805,-4.0254,-4.1363,-4.216,-4.2661,-4.4432,-4.4947,-4.4523,-4.515,-4.4647,-4.3573,-4.4049,-4.4313,-4.4523,0.0,0.0,0.0,0.0,-4.4802,-4.5413,0.0,0.0,0.0,0.0,0.0,0.0,0.0,0.0,0.0,0.0,0.0,0.0,0.0,0.0,0.0,0.0,0.0,0.0,0.0,0.0,0.0,0.0,0.0,0.0,0.0,0.0,0.0,0.0,-3.8191,-3.8191,-3.8191,-3.8191,-3.8191,-3.8191,-3.8191,-3.8191,-3.8191,-3.8191,-3.8191,0.0,0.0,0.0,0.0,0.0,0.0,0.0,0.0,0.0,0.0,0.0,0.0,0.0,0.0,0.0,0.0,0.0,0.0,0.0,0.0,0.0,0.0,0.0,0.0,0.0,0.0,0.0,0.0,0.0,0.0,0.0,0.0,0.0,0.0,0.0,0.0,0.0,0.0,-3.6562,-3.6836,-3.6836,-3.7207,-3.7461,0.0,0.0,0.0,0.0,0.0,0.0,-3.873,-3.9141,-3.9375,-3.9375,-3.9726,-4.0167,-4.0643,-4.0266,-4.0541,-4.1436,-4.2503,-4.3274,-4.378,-4.5843,-4.6605,-4.6203,-4.6686,-4.6211,-4.5103,-4.4315,-4.4739,-4.5739,-4.5395,-4.5543,-4.5915,-4.5915,-4.6159,-4.6507,0.0,0.0,0.0,0.0,0.0,0.0,0.0,0.0,0.0,0.0,0.0,0.0,0.0,0.0,0.0,0.0,0.0,0.0,0.0,0.0,0.0,0.0,0.0,0.0,0.0,0.0,0.0,-3.8191,-3.8191,-3.8191,-3.8191,-3.8191,-3.8191,-3.8191,-3.8191,-3.8191,-3.8191,-3.8191,-3.8191,-3.8191,0.0,0.0,0.0,0.0,0.0,0.0,0.0,0.0,0.0,0.0,0.0,0.0,0.0,0.0,0.0,0.0,0.0,0.0,0.0,0.0,0.0,0.0,0.0,0.0,0.0,0.0,0.0,0.0,0.0,0.0,0.0,0.0,0.0,0.0,0.0,0.0,0.0,0.0,0.0,-3.7266,-3.7637,0.0,0.0,0.0,0.0,-3.8535,-3.8926,-3.916,-3.916,-3.9609,-3.9863,-3.9863,-3.9883,-4.0813,-4.2774,-4.1231,-4.1649,-4.4019,-4.2603,-4.2071,-4.2623,-4.587,-4.6566,-4.5248,-4.8379,-4.9657,-4.9267,-4.52,-4.3573,-4.3649,-4.3629,-4.4591,-4.5915,-4.5915,-4.6898,-4.8163,0.0,0.0,0.0,0.0,0.0,0.0,0.0,0.0,0.0,0.0,0.0,0.0,0.0,0.0,0.0,0.0,0.0,0.0,0.0,0.0,0.0,0.0,0.0,0.0,0.0,0.0,-3.8191,-3.8191,-3.8191,-3.8191,-3.8191,-3.8191,-3.8191,-3.8191,-3.8191,-3.8191,-3.8191,-3.8191,-3.8191,-3.8191,-3.8191,-3.8191,0.0,0.0,0.0,0.0,0.0,0.0,0.0,0.0,0.0,0.0,0.0,0.0,0.0,0.0,0.0,0.0,0.0,0.0,0.0,0.0,0.0,0.0,0.0,0.0,0.0,0.0,0.0,0.0,0.0,0.0,0.0,0.0,0.0,0.0,0.0,0.0,0.0,-3.7695,-3.8086,0.0,0.0,-3.8476,-3.8691,-3.8965,-3.9121,-3.9336,-3.9629,-4.0059,-4.0943,-4.2322,-4.1574,-4.2144,-4.4251,-4.3653,-4.3817,-4.4748,-4.6275,-4.7105,-4.728,-4.9501,-4.9674,-4.8196,-4.9426,-4.9351,-4.8249,-4.6681,-4.7286,-4.9125,-4.9125,-4.9494,-5.0033,-5.0033,-5.035,-5.0884,0.0,0.0,0.0,0.0,0.0,0.0,0.0,0.0,0.0,0.0,0.0,0.0,0.0,0.0,0.0,0.0,0.0,0.0,0.0,0.0,0.0,0.0,0.0,0.0,0.0,-3.8191,-3.8191,-3.8191,-3.8191,-3.8191,-3.8191,-3.8191,-3.8191,-3.8191,-3.8191,-3.8191,-3.8191,-3.8191,-3.8191,-3.8191,-3.8191,-3.8191,-3.8191,0.0,0.0,0.0,0.0,0.0,0.0,0.0,0.0,0.0,0.0,0.0,0.0,0.0,0.0,0.0,0.0,0.0,0.0,0.0,0.0,0.0,0.0,0.0,0.0,0.0,0.0,0.0,0.0,0.0,0.0,0.0,0.0,0.0,0.0,0.0,-3.8144,-3.8144,-3.8398,-3.8633,-3.8769,-3.8789,-3.8965,-3.9394,-3.957,-3.9844,-4.0293,-4.124,-4.2273,-4.3237,-4.3542,-4.4374,-4.5736,-4.5814,-4.6209,-4.6902,-4.8516,-4.9367,-4.9624,-5.1255,-5.1404,-5.0382,-5.1007,-5.0608,-4.9601,-4.9601,-5.0856,-5.269,-5.1792,-5.182,-5.2283,-5.2283,-5.2283,-5.2283,0.0,0.0,0.0,0.0,0.0,0.0,0.0,0.0,0.0,0.0,0.0,0.0,0.0,0.0,0.0,0.0,0.0,0.0,0.0,0.0,0.0,0.0,0.0,0.0,0.0,-3.8191,-3.8191,-3.8191,-3.8191,-3.8191,-3.8191,-3.8191,-3.8191,-3.8191,-3.8191,-3.8191,-3.8191,-3.8191,-3.8191,-3.8191,-3.8191,-3.8191,-3.8191,0.0,0.0,0.0,0.0,0.0,0.0,0.0,0.0,0.0,0.0,0.0,0.0,0.0,0.0,0.0,0.0,0.0,0.0,0.0,0.0,0.0,0.0,0.0,0.0,0.0,0.0,0.0,0.0,0.0,0.0,0.0,0.0,0.0,-3.8008,-3.8301,-3.8574,-3.8594,-3.8594,-3.8823,-3.9254,-3.9219,-3.9414,-3.9978,-4.0312,-4.0742,-4.1191,-4.318,-4.3763,-4.2502,-4.5757,-4.7455,-4.7378,-4.7553,-4.8637,-5.0483,-4.9006,-4.8552,-4.9013,-5.0675,-5.137,-5.1447,-5.3096,-5.3822,-5.3822,-5.3822,-5.3822,-5.3552,-5.1012,-5.0936,-5.2331,-5.2331,-5.2331,-5.2331,0.0,0.0,0.0,0.0,0.0,0.0,0.0,0.0,0.0,0.0,0.0,0.0,0.0,0.0,0.0,0.0,0.0,0.0,0.0,0.0,0.0,0.0,0.0,0.0,0.0,0.0,0.0,-3.8191,-3.8191,-3.8191,-3.8191,-3.8191,-3.8191,-3.8191,-3.8191,-3.8191,-3.8191,-3.8191,-3.8191,-3.8191,-3.8191,-3.8191,-3.8191,0.0,0.0,0.0,0.0,0.0,0.0,0.0,0.0,0.0,0.0,0.0,0.0,0.0,0.0,0.0,0.0,0.0,0.0,0.0,0.0,0.0,0.0,0.0,0.0,0.0,0.0,0.0,0.0,0.0,0.0,0.0,0.0,-3.8535,-3.8418,-3.8496,-3.8691,-3.8984,-3.9023,-3.9623,-4.1224,-4.034,-4.0528,-4.2383,-4.1592,-4.1308,-4.2051,-4.3809,-4.4762,-4.4739,-4.677,-4.8111,-4.8383,-4.9628,-5.0566,-5.1087,-5.1874,-5.2348,-5.2465,-5.2869,-5.312,-5.312,-5.3596,-5.3822,-5.3822,-5.3822,-5.3822,-5.3723,-5.3036,-5.2992,-5.3389,-5.3389,-5.3389,-5.3389,0.0,0.0,0.0,0.0,0.0,0.0,0.0,0.0,0.0,0.0,0.0,0.0,0.0,0.0,0.0,0.0,0.0,0.0,0.0,0.0,0.0,0.0,0.0,0.0,0.0,0.0,0.0,0.0,-3.8191,-3.8191,-3.8191,-3.8191,-3.8191,-3.8191,-3.8191,-3.8191,-3.8191,-3.8191,-3.8191,-3.8191,-3.8191,-3.8191,-3.8191,-3.8191,-3.8191,-3.8191,-3.8191,-3.8191,-3.8125,-3.7482,0.0,0.0,0.0,0.0,0.0,0.0,0.0,0.0,0.0,0.0,0.0,0.0,0.0,0.0,0.0,0.0,0.0,0.0,0.0,0.0,0.0,0.0,0.0,0.0,-3.873,-3.8828,-3.8828,-3.8828,-3.8926,-3.918,-3.9375,-4.0101,-4.16,-4.0943,-4.1453,-4.3973,-4.2601,-4.2605,-4.4673,-4.5088,-4.577,-4.6944,-4.8596,-4.9585,-4.9875,-5.1524,-5.2313,-5.2313,-5.3346,-5.3822,-5.3822,-5.3822,-5.3822,0.0,-5.3822,-5.3822,-5.3822,-5.3822,-5.3822,0.0,0.0,0.0,0.0,0.0,-5.3822,-5.3822,0.0,0.0,0.0,0.0,0.0,0.0,0.0,0.0,0.0,0.0,0.0,0.0,0.0,0.0,0.0,0.0,0.0,0.0,0.0,0.0,0.0,0.0,0.0,0.0,0.0,0.0,0.0,0.0,0.0,-3.8191,-3.8191,-3.8191,-3.8191,-3.8191,-3.8191,-3.8191,-3.8191,-3.8191,-3.8191,-3.8191,-3.8191,-3.8191,-3.8191,-3.8191,-3.8191,-3.8191,-3.8191,-3.8191,-3.8104,-3.7683,0.0,0.0,0.0,0.0,0.0,0.0,0.0,0.0,0.0,0.0,0.0,0.0,0.0,0.0,0.0,0.0,0.0,0.0,0.0,0.0,0.0,0.0,0.0,0.0,-3.8965,-3.9219,-3.9277,-3.9355,-3.9414,-3.9414,-3.9785,-4.0447,-4.1542,-4.162,-4.2561,-4.4919,-4.3658,-4.4158,-4.7397,0.0,0.0,0.0,0.0,-5.1447,-5.1293,-5.2944,-5.3822,-5.3822,-5.3822,-5.3822,-5.3822,-5.3822,-5.3822,-5.3822,-5.3822,-5.3822,-5.3822,-5.3822,-5.3822,-5.3822,-5.3822,-5.3822,-5.3822,-5.3822,-5.3822,-5.3822,0.0,0.0,0.0,0.0,0.0,0.0,0.0,0.0,0.0,0.0,0.0,0.0,0.0,0.0,0.0,0.0,0.0,0.0,0.0,0.0,0.0,0.0,0.0,0.0,0.0,0.0,0.0,0.0,0.0,0.0,-3.8191,-3.8191,-3.8191,-3.8191,-3.8191,-3.8191,-3.8191,-3.8191,-3.8191,-3.8191,-3.8191,-3.8191,-3.8191,-3.8191,-3.8191,-3.8191,-3.8191,-3.8191,-3.8125,-3.7415,-3.7146,-3.7011,-3.6287,0.0,0.0,0.0,0.0,0.0,0.0,0.0,0.0,0.0,0.0,0.0,0.0,0.0,0.0,0.0,0.0,0.0,0.0,0.0,0.0,-3.9023,-3.9141,-3.9336,-3.9707,-4.0351,-4.0781,-4.0781,-4.0879,-4.1774,-4.3943,-4.4181,-4.4564,-4.5336,-4.5119,-4.4844,-4.458,-4.6821,0.0,-4.6807,-5.1062,-5.2641,-5.1293,-5.2944,-5.3822,-5.3822,0.0,0.0,-5.3822,-5.3822,-5.3822,-5.3822,-5.3822,-5.3822,-5.3822,-5.3822,-5.3822,-5.3822,-5.3822,-5.3822,-5.3822,-5.3822,-5.3822,-5.3822,0.0,0.0,0.0,0.0,0.0,0.0,0.0,0.0,0.0,0.0,0.0,0.0,0.0,0.0,0.0,0.0,0.0,0.0,0.0,0.0,0.0,0.0,0.0,0.0,0.0,0.0,0.0,0.0,0.0,0.0,0.0,-3.8191,-3.8191,-3.8191,-3.8191,-3.8191,-3.8191,-3.8191,-3.8191,-3.8191,-3.8191,-3.8191,-3.8191,-3.8191,-3.8191,-3.8191,-3.8191,-3.8191,-3.8125,-3.7549,-3.7213,-3.7011,-3.6403,-3.6152,-3.6094,0.0,0.0,0.0,0.0,0.0,0.0,0.0,0.0,0.0,0.0,0.0,0.0,0.0,0.0,-3.8633,0.0,0.0,-3.9023,-3.9473,-3.9726,-4.0019,-4.0469,-4.1074,-4.1406,-4.1191,-4.1543,-4.2665,-4.5009,-4.5229,-4.5811,-4.7066,-4.7166,-4.7273,-4.7486,-4.8302,-4.917,-5.0031,-5.1678,-5.2565,-5.2565,-5.3346,-5.3822,-5.3822,-5.4087,-5.4207,-5.4231,-5.4496,-5.4616,-5.4616,-5.4616,-5.4616,-5.4592,-5.4327,-5.4063,-5.3822,-5.3822,-5.3822,-5.3822,-5.3822,-5.3822,-5.3822,0.0,0.0,0.0,0.0,0.0,0.0,0.0,0.0,0.0,0.0,0.0,0.0,0.0,0.0,0.0,0.0,0.0,0.0,0.0,0.0,0.0,0.0,0.0,0.0,0.0,0.0,0.0,0.0,0.0,0.0,0.0,0.0,-3.8191,-3.8191,-3.8191,-3.8191,-3.8191,-3.8191,-3.8191,-3.8191,-3.8191,-3.8191,-3.8191,-3.8191,-3.8191,-3.8191,-3.8191,-3.8191,-3.8125,-3.7703,-3.7348,-3.7011,-3.6519,-3.6259,-3.623,-3.666,-3.709,0.0,0.0,0.0,0.0,0.0,0.0,0.0,0.0,0.0,-3.8574,-3.8574,-3.8633,-3.8809,-3.9141,-3.9277,-3.9492,-3.9941,-4.0371,-4.0801,-4.123,-4.2034,-4.2309,-4.166,-4.2148,-4.3339,-4.5504,-4.5785,-4.6489,-4.8201,-4.8618,-4.9406,-5.0753,-4.9875,-5.0498,-5.3271,-5.2313,-5.2436,-5.3966,-5.3966,-5.4015,-5.4135,-5.4568,-5.476,-5.4784,-5.5193,-5.5385,-5.5385,-5.5385,-5.5385,-5.5361,-5.4928,-5.452,-5.4135,-5.4135,-5.4135,-5.4111,-5.3894,-5.3822,-5.3822,0.0,0.0,0.0,0.0,0.0,0.0,0.0,0.0,0.0,0.0,0.0,0.0,0.0,0.0,0.0,0.0,0.0,0.0,0.0,0.0,0.0,0.0,0.0,0.0,0.0,0.0,0.0,0.0,0.0,0.0,0.0,0.0,0.0,-3.8191,-3.8191,-3.8191,-3.8191,-3.8191,-3.8191,-3.8191,-3.8191,-3.8191,-3.8191,-3.8191,-3.8191,-3.8191,-3.8191,-3.8191,-3.8125,-3.7415,-3.7146,-3.6944,-3.6287,-3.6289,-3.668,-3.7109,0.0,-3.7949,-3.8379,-3.8535,0.0,-3.8574,-3.8574,-3.8574,0.0,0.0,-3.8574,-3.8574,-3.8867,-3.9141,-3.9199,-3.9531,-3.9961,-4.0391,-4.082,-4.125,-4.168,-4.3737,-4.462,-4.3114,-4.2949,-4.3876,-4.5979,-4.6182,-4.6283,-4.6566,-4.7985,-4.8855,-4.9091,-5.0265,-5.1216,-5.1524,-5.2869,-5.3812,-5.452,-5.452,-5.476,-5.5217,-5.5289,-5.5313,-5.5313,-5.5361,-5.5385,-5.5385,-5.5385,-5.5385,-5.5385,-5.5337,-5.5265,-5.5217,-5.5217,-5.5217,-5.5097,-5.4159,-5.3822,-5.3822,0.0,0.0,0.0,0.0,0.0,0.0,0.0,0.0,0.0,0.0,0.0,0.0,0.0,0.0,0.0,0.0,0.0,0.0,0.0,0.0,0.0,0.0,0.0,0.0,0.0,0.0,0.0,0.0,0.0,0.0,0.0,0.0,0.0,-3.8191,-3.8191,-3.8191,-3.8191,-3.8191,-3.8191,-3.8191,-3.8191,-3.8191,-3.8191,-3.8191,-3.8191,-3.8191,-3.7904,-3.7837,0.0,0.0,-3.6722,-3.6674,-3.6152,-3.6328,-3.6758,-3.7168,-3.7598,0.0,-3.8457,0.0,0.0,0.0,-3.8574,-3.8574,-3.8574,-3.8574,-3.8652,-3.8887,-3.9082,-3.9355,-3.9883,-4.0137,-4.0488,0.0,-4.1426,-4.1777,-4.2441,-4.432,-4.5823,-4.6333,-4.5573,-4.5735,-4.7565,-4.7746,-4.8143,-4.917,-5.0753,-5.1293,-5.0287,-5.1854,-5.2934,-5.3241,-5.3875,-5.452,-5.5073,-5.5073,-5.5169,-5.5409,-5.5722,-5.589,-5.589,-5.6203,-5.6347,-5.6347,-5.6347,-5.6155,-5.589,-5.589,-5.5698,-5.5385,-5.5385,-5.5385,-5.5337,-5.4904,-5.4544,-5.4279,0.0,0.0,0.0,0.0,0.0,0.0,0.0,0.0,0.0,0.0,0.0,0.0,0.0,0.0,0.0,0.0,0.0,0.0,0.0,0.0,0.0,0.0,0.0,0.0,0.0,0.0,0.0,0.0,0.0,0.0,0.0,0.0,0.0,0.0,-3.8191,-3.8191,-3.8191,-3.8191,-3.8191,-3.8191,-3.8191,-3.8191,-3.8191,-3.8191,-3.8104,-3.7971,-3.7683,-3.7616,0.0,0.0,-3.6519,-3.6471,-3.6289,-3.6504,-3.6934,-3.7344,-3.7773,-3.8164,-3.8496,0.0,0.0,-3.8574,-3.8574,-3.8574,-3.8574,-3.8672,-3.8828,-3.9141,-3.9394,-3.9766,-4.041,-4.0723,0.0,-4.1699,-4.1992,-4.2363,-4.2988,-4.4664,-4.6191,-4.7246,-4.6727,-4.6968,-4.8618,-4.7985,-4.846,-5.1139,-5.2007,-5.2313,-5.2007,-5.3238,-5.4207,-5.4592,-5.4736,-5.5097,-5.5626,-5.5626,-5.5698,-5.5842,-5.6251,-5.6444,-5.6468,-5.6852,-5.7021,-5.7021,-5.7021,-5.6804,-5.6444,-5.6444,-5.6203,-5.5842,-5.5842,-5.5842,-5.5842,-5.5842,-5.5409,-5.4832,0.0,0.0,0.0,0.0,0.0,0.0,0.0,0.0,0.0,0.0,0.0,0.0,0.0,0.0,0.0,0.0,0.0,0.0,0.0,0.0,0.0,0.0,0.0,0.0,0.0,0.0,0.0,0.0,0.0,0.0,0.0,0.0,0.0,0.0,0.0,-3.8191,-3.8191,-3.8191,-3.8191,-3.8191,-3.8191,-3.8191,-3.8191,-3.8191,-3.7971,-3.7616,-3.7616,0.0,0.0,0.0,-3.6519,-3.653,-3.6642,-3.6934,0.0,-3.7773,-3.8223,-3.8555,0.0,0.0,-3.8574,-3.8574,-3.8574,-3.8574,-3.8574,-3.8887,-3.918,-3.9199,-3.9883,-4.0488,-4.0527,-4.1211,-4.1777,-4.1797,-4.25,-4.3047,-4.3066,-4.4927,-4.5677,-4.4021,-4.5291,-4.6968,0.0,-4.5758,-4.592,-5.0908,-4.9875,-5.0342,-5.3572,-5.4303,-5.4592,-5.4616,-5.5097,-5.565,-5.6203,-5.6203,-5.6468,-5.6973,-5.6997,-5.6997,-5.6997,-5.7021,-5.7021,-5.7021,-5.7021,-5.7021,-5.6997,-5.6997,-5.6997,-5.6973,-5.6973,-5.6973,-5.6973,-5.6973,-5.6299,-5.5385,0.0,0.0,0.0,0.0,0.0,0.0,0.0,0.0,0.0,0.0,0.0,0.0,0.0,0.0,0.0,0.0,0.0,0.0,0.0,0.0,0.0,0.0,0.0,0.0,0.0,0.0,0.0,0.0,0.0,0.0,0.0,0.0,0.0,0.0,0.0,0.0,-3.8191,-3.8191,-3.8191,-3.8191,-3.8191,-3.8191,-3.8191,-3.7904,-3.7683,-3.7549,0.0,0.0,0.0,0.0,0.0,-3.621,-3.6592,-3.6953,-3.7441,-3.8144,-3.8457,-3.8574,0.0,0.0,-3.8574,-3.8574,-3.8789,-3.8984,-3.8984,-3.9336,-3.9746,-4.0019,-4.0312,-4.0605,-4.0898,-4.1426,-4.1894,-4.2168,-4.2695,-4.3183,-4.3457,-4.5129,-4.6103,-4.5454,-4.6888,0.0,0.0,0.0,0.0,-5.1062,-5.0753,-5.1122,-5.2573,-5.2837,-5.3801,-5.5572,-5.5866,-5.6203,-5.6756,-5.6756,-5.6852,-5.7021,-5.7021,-5.7021,-5.7021,-5.7021,-5.7021,-5.7021,-5.7021,-5.7021,-5.7021,-5.7021,-5.7021,-5.7021,-5.7021,-5.7021,-5.7021,-5.7021,-5.678,-5.6419,0.0,0.0,0.0,0.0,0.0,0.0,0.0,0.0,0.0,0.0,0.0,0.0,0.0,0.0,0.0,0.0,0.0,0.0,0.0,0.0,0.0,0.0,0.0,0.0,0.0,0.0,0.0,0.0,0.0,0.0,0.0,0.0,0.0,0.0,0.0,0.0,-3.8191,-3.8191,-3.8191,-3.8191,-3.8037,-3.7971,-3.7971,-3.7549,-3.7348,0.0,0.0,0.0,0.0,0.0,0.0,0.0,-3.6719,-3.7285,-3.7851,-3.8418,-3.8574,-3.8574,-3.8574,-3.8574,-3.8613,-3.8769,-3.9004,-3.9238,-3.9414,-3.9805,-4.0195,-4.0469,-4.0644,-4.084,-4.1113,-4.1641,-4.2109,-4.2383,-4.291,-4.3398,-4.3672,-4.4658,-4.5373,-4.5373,-4.6888,0.0,0.0,0.0,0.0,-5.0342,-5.1145,-5.1707,-5.2106,-5.3046,-5.4053,-5.5209,-5.608,-5.6343,-5.6013,-5.6678,-5.7021,-5.7021,-5.7021,-5.7021,-5.7021,-5.7021,-5.7021,-5.7021,-5.7021,-5.7021,-5.7021,-5.7021,-5.7021,-5.7021,-5.7021,-5.7021,-5.7021,-5.7021,-5.7021,-5.6973,0.0,0.0,0.0,0.0,0.0,0.0,0.0,0.0,0.0,0.0,0.0,0.0,0.0,0.0,0.0,0.0,0.0,0.0,0.0,0.0,0.0,0.0,0.0,0.0,0.0,0.0,0.0,0.0,0.0,0.0,0.0,0.0,0.0,0.0,0.0,0.0,0.0,-3.8129,-3.815,-3.8083,-3.775,-3.7549,-3.7549,-3.7213,0.0,0.0,0.0,0.0,0.0,0.0,0.0,0.0,0.0,-3.7891,-3.8574,-3.8574,-3.8574,-3.8574,-3.8574,-3.8594,-3.8691,-3.9101,-3.9238,-3.9394,-3.9824,-4.0254,-4.0566,-4.0566,-4.0879,-4.1172,0.0,0.0,-4.2422,-4.2422,-4.3144,-4.3711,-4.3711,-4.3711,-4.3711,0.0,0.0,0.0,0.0,0.0,0.0,-4.8583,0.0,-5.1895,-5.1996,-5.4509,-5.5177,-5.3612,-5.5753,-5.6094,-5.4324,-5.6094,-5.6941,-5.6861,-5.6941,-5.7021,-5.7021,-5.7021,-5.7021,-5.7021,-5.7021,-5.7021,-5.7021,-5.7021,-5.7021,-5.7021,-5.6941,-5.6941,-5.7021,-5.6941,-5.6941,-5.7021,0.0,0.0,0.0,0.0,0.0,0.0,0.0,0.0,0.0,0.0,0.0,0.0,0.0,0.0,0.0,0.0,0.0,0.0,0.0,0.0,0.0,0.0,0.0,0.0,0.0,0.0,0.0,0.0,0.0,0.0,0.0,0.0,0.0,0.0,0.0,0.0,0.0,-3.718,-3.7258,-3.7212,0.0,-3.7213,-3.7213,0.0,0.0,0.0,0.0,0.0,0.0,0.0,0.0,0.0,0.0,-3.7891,-3.8574,-3.8574,-3.8574,-3.8574,-3.8574,-3.8809,-3.9062,-3.918,-3.9687,-4.0215,-4.0332,-4.0703,-4.1016,-4.1016,-4.1094,-4.1172,0.0,0.0,0.0,-4.2422,-4.3144,0.0,-4.3711,-4.3711,0.0,-4.3711,0.0,-4.5779,-4.4494,-4.7027,0.0,0.0,-4.7191,-4.9006,-5.0769,-5.1773,-5.2859,-5.4036,-5.5942,-5.6094,-5.4324,-5.6094,-5.6334,-5.4998,-5.6358,-5.7021,-5.7021,-5.7021,-5.7021,-5.7021,-5.7021,-5.7021,-5.7021,-5.7021,-5.7021,-5.6861,-5.5506,-5.5829,-5.6861,-5.5506,-5.5852,-5.7021,0.0,0.0,0.0,0.0,0.0,0.0,0.0,0.0,0.0,0.0,0.0,0.0,0.0,0.0,0.0,0.0,0.0,0.0,0.0,0.0,0.0,0.0,0.0,0.0,0.0,0.0,0.0,0.0,0.0,0.0,0.0,0.0,0.0,0.0,0.0,0.0,0.0,0.0,0.0,0.0,0.0,0.0,0.0,0.0,0.0,0.0,0.0,0.0,0.0,0.0,0.0,-3.7051,-3.7246,-3.7754,-3.832,-3.8516,0.0,-3.8613,-3.8809,-3.9023,-3.9297,-3.9687,-4.0156,-4.0566,-4.0762,-4.0996,-4.1172,-4.1172,-4.1172,0.0,0.0,0.0,0.0,0.0,0.0,0.0,-4.3711,-4.3711,-4.3711,0.0,-4.521,0.0,-4.3856,-4.6163,-4.6775,0.0,-4.6804,-4.9068,-5.0606,-5.1826,-5.2637,-5.3153,-5.5691,-5.6518,-5.5506,-5.5668,-5.5345,-5.4324,-5.4592,-5.4673,-5.4673,-5.5506,-5.5852,-5.5852,0.0,-5.7021,-5.7021,-5.7021,-5.6518,-5.5668,-5.4673,-5.4429,-5.4673,-5.4429,-5.4917,-5.5933,0.0,0.0,0.0,0.0,0.0,0.0,0.0,0.0,0.0,0.0,0.0,0.0,0.0,0.0,0.0,0.0,0.0,0.0,0.0,0.0,0.0,0.0,0.0,0.0,0.0,0.0,0.0,0.0,0.0,0.0,0.0,0.0,0.0,0.0,0.0,0.0,0.0,0.0,0.0,0.0,0.0,0.0,0.0,0.0,0.0,0.0,0.0,0.0,0.0,0.0,-3.6309,-3.6738,-3.7168,-3.7598,-3.8008,-3.8437,-3.8574,-3.8672,-3.9082,-3.9258,-3.9492,-4.0312,-4.0566,-4.0703,-4.1094,-4.1172,-4.1172,-4.1172,0.0,-4.1172,-4.1172,0.0,-4.2363,-4.2422,0.0,-4.3633,-4.3691,-4.3711,-4.3711,-4.3711,-4.5067,-4.5373,-4.3856,-4.5107,-4.5595,-4.4517,-4.7631,-4.9929,-5.0587,-5.272,-5.3341,-5.2099,-5.4859,-5.6174,-5.5933,-5.4835,-5.4161,-5.3915,-5.2431,-5.1849,-5.2099,-5.3587,-5.4161,-5.4079,0.0,0.0,-5.6278,-5.6278,-5.5345,-5.3915,-5.367,-5.3011,-5.2182,-5.3505,-5.4242,-5.4917,0.0,0.0,0.0,0.0,0.0,0.0,0.0,0.0,0.0,0.0,-3.4859,-3.5418,0.0,0.0,0.0,0.0,0.0,0.0,0.0,0.0,0.0,0.0,0.0,0.0,0.0,0.0,0.0,0.0,0.0,0.0,0.0,0.0,0.0,0.0,0.0,0.0,0.0,0.0,0.0,0.0,0.0,0.0,0.0,0.0,0.0,0.0,0.0,0.0,0.0,0.0,-3.6309,-3.6738,-3.7168,-3.7598,-3.8008,-3.8437,-3.8574,-3.8672,-3.9082,-3.9492,-3.9902,-4.0391,-4.0801,-4.1074,-4.1152,-4.1172,0.0,0.0,0.0,-4.1172,-4.1172,-4.1582,0.0,-4.2363,0.0,0.0,0.0,0.0,-4.3711,0.0,0.0,0.0,0.0,0.0,0.0,0.0,0.0,0.0,-4.8714,-5.0898,-5.268,-5.3834,-5.3093,-5.1932,-5.0421,-5.2988,-5.3587,-5.2182,-5.1849,-5.2431,-5.3834,-5.4161,-5.3505,-5.2265,0.0,0.0,-5.2597,-5.2597,-5.2431,-5.2015,-5.0505,-5.1492,-5.3752,-5.2597,-5.402,-5.6598,0.0,0.0,0.0,0.0,0.0,0.0,0.0,-3.2765,-3.3335,-3.3859,-3.4797,-3.517,-3.4673,-3.5108,0.0,0.0,0.0,0.0,0.0,0.0,0.0,0.0,0.0,0.0,0.0,0.0,0.0,0.0,0.0,0.0,0.0,0.0,0.0,0.0,0.0,0.0,0.0,0.0,0.0,0.0,0.0,0.0,0.0,0.0,0.0,0.0,0.0,0.0,0.0,0.0,-3.6152,-3.6445,-3.709,-3.7441,-3.7734,-3.8379,-3.8574,-3.8711,-3.9375,-3.9726,-4.0059,-4.0703,-4.1016,-4.1172,-4.1172,0.0,0.0,0.0,0.0,-4.1172,-4.1172,0.0,0.0,0.0,0.0,0.0,0.0,0.0,0.0,0.0,0.0,0.0,0.0,0.0,0.0,0.0,0.0,0.0,-4.856,-4.9702,-5.1514,-5.4242,-5.166,-5.0336,-5.0421,-5.1157,-5.1157,-5.0252,-4.9318,-4.9828,-5.1576,-5.1576,-5.1576,-5.1765,-5.2597,0.0,-5.3093,-5.3093,-5.2514,-5.1598,-5.0758,-5.0336,-5.0146,-5.0252,-5.1325,-5.3011,0.0,0.0,0.0,0.0,0.0,0.0,0.0,-3.2511,-3.3607,-3.3607,-3.4485,-3.4797,-3.3985,-3.4797,-3.5294,0.0,0.0,0.0,0.0,0.0,0.0,0.0,0.0,0.0,0.0,0.0,0.0,0.0,0.0,0.0,0.0,0.0,0.0,0.0,0.0,0.0,0.0,0.0,0.0,0.0,0.0,0.0,0.0,0.0,0.0,0.0,0.0,0.0,0.0,0.0,-3.6016,-3.6172,-3.7031,-3.7305,-3.7461,-3.832,-3.8574,-3.875,-3.9531,-3.9746,-3.9941,-4.0703,-4.0898,-4.0918,-4.1016,-4.1035,0.0,0.0,-4.1172,-4.1172,-4.1172,0.0,0.0,0.0,0.0,0.0,0.0,0.0,0.0,0.0,0.0,0.0,0.0,0.0,0.0,0.0,0.0,0.0,0.0,-4.8654,-4.9913,-5.3071,-5.0505,-4.9488,-5.0505,-4.9509,-4.8997,-4.8997,-4.7141,-4.7228,-4.8997,-4.8997,-4.9573,-5.059,-5.0927,0.0,0.0,-5.2575,-5.1743,-5.0505,-5.0505,-4.9082,-4.7054,-4.8482,-4.9253,-4.9743,0.0,0.0,0.0,0.0,0.0,0.0,0.0,-3.2447,-3.2511,-3.2511,-3.3398,-3.3985,-3.3922,-3.4797,-3.5046,0.0,0.0,0.0,0.0,0.0,0.0,0.0,0.0,0.0,0.0,0.0,0.0,0.0,0.0,0.0,0.0,0.0,0.0,0.0,0.0,0.0,0.0,0.0,0.0,0.0,0.0,0.0,0.0,0.0,0.0,0.0,0.0,0.0,0.0,0.0,0.0,-3.6172,-3.7031,-3.7305,-3.7461,-3.832,0.0,0.0,-3.9141,-3.9258,-3.9394,-3.9883,-4.0019,-4.0117,-4.0488,0.0,0.0,0.0,-4.1172,-4.1172,-4.1172,-4.1211,0.0,0.0,0.0,0.0,0.0,0.0,0.0,0.0,0.0,0.0,0.0,0.0,0.0,0.0,0.0,0.0,0.0,-4.7488,-4.7488,-4.9403,-4.9168,-4.8311,-4.6813,-4.8245,-4.8997,-4.8997,-4.7141,-4.7228,-4.8997,-4.8997,-4.8159,-4.69,0.0,0.0,0.0,-4.7054,-4.6967,-4.6813,-4.6813,-4.7554,-4.874,-4.8911,-4.9998,-5.1514,0.0,0.0,0.0,0.0,0.0,0.0,-3.1359,-3.2001,-3.2638,-3.3209,-3.367,-3.3922,-3.3922,-3.4235,-3.461,-3.4797,0.0,0.0,0.0,0.0,0.0,0.0,0.0,0.0,0.0,0.0,0.0,0.0,0.0,0.0,0.0,0.0,0.0,0.0,0.0,0.0,0.0,0.0,0.0,0.0,0.0,0.0,0.0,0.0,0.0,0.0,0.0,0.0,0.0,0.0,0.0,0.0,-3.7031,-3.7305,0.0,0.0,-3.8574,-3.8672,-3.9082,-3.9199,-3.9316,-3.9785,-3.9902,-4.0,-4.043,0.0,0.0,-4.1074,-4.1172,-4.1172,-4.1172,-4.1172,-4.1445,0.0,0.0,0.0,0.0,0.0,0.0,0.0,0.0,0.0,0.0,0.0,0.0,0.0,0.0,0.0,0.0,-4.6726,-4.7141,-4.8911,-4.79,-4.7054,-4.6308,-4.6967,-4.7401,-4.7401,-4.6638,-4.7228,-4.8997,-4.79,-4.7574,-4.79,0.0,0.0,0.0,-4.79,-4.79,-4.79,-4.79,-4.7727,-4.7401,-4.7401,-4.7814,-4.8482,0.0,0.0,0.0,0.0,0.0,-3.0343,-3.0343,-3.123,-3.232,-3.3335,-3.3733,-3.3985,-3.4298,-3.436,-3.461,-3.5356,-3.5108,0.0,0.0,0.0,0.0,0.0,0.0,0.0,0.0,0.0,-3.4485,-3.4235,-3.4173,0.0,0.0,0.0,0.0,0.0,0.0,0.0,0.0,0.0,0.0,0.0,0.0,0.0,0.0,0.0,0.0,0.0,0.0,0.0,0.0,0.0,0.0,0.0,0.0,0.0,0.0,0.0,-3.8574,-3.8633,-3.8945,-3.9004,-3.9101,-3.9414,-3.9512,-3.9648,0.0,0.0,0.0,-4.1055,-4.1172,-4.1172,-4.1172,-4.1172,-4.1406,0.0,0.0,0.0,0.0,0.0,0.0,0.0,0.0,0.0,0.0,0.0,0.0,0.0,0.0,0.0,0.0,0.0,-4.69,-4.8159,-4.6967,-4.6308,-4.6308,-4.6308,-4.6308,-4.6308,-4.6308,-4.6967,-4.8159,-4.69,-4.6987,-4.8159,0.0,0.0,0.0,-4.8245,-4.8245,-4.8245,-4.8245,-4.7401,-4.6308,-4.6308,-4.6308,-4.6308,0.0,0.0,0.0,0.0,0.0,0.0,-2.9316,-3.0148,-3.1166,-3.2256,-3.3272,-3.4298,-3.5294,-3.5356,-3.5356,-3.5418,-3.4485,0.0,0.0,0.0,0.0,0.0,0.0,0.0,0.0,0.0,-3.3922,-3.3922,-3.3544,-3.3418,-3.3418,0.0,0.0,0.0,0.0,0.0,0.0,0.0,0.0,0.0,0.0,0.0,0.0,0.0,0.0,0.0,0.0,0.0,0.0,0.0,0.0,0.0,0.0,0.0,0.0,0.0,-3.8574,-3.8574,-3.8574,-3.8574,-3.8574,-3.8594,-3.8594,-3.8828,0.0,0.0,0.0,-4.0996,-4.1172,-4.1172,-4.1172,-4.1172,-4.1308,-4.1738,0.0,0.0,0.0,0.0,0.0,0.0,0.0,0.0,0.0,0.0,0.0,0.0,0.0,0.0,0.0,0.0,-4.6308,-4.6308,-4.6308,-4.6308,-4.6308,-4.6308,-4.6308,-4.6308,-4.6308,-4.6308,-4.6308,-4.6308,-4.6308,0.0,0.0,0.0,0.0,-4.6308,-4.6308,-4.6308,-4.6308,-4.6308,-4.6308,-4.6308,-4.6308,-4.6308,0.0,0.0,0.0,0.0,0.0,0.0,0.0,-2.9561,-3.0148,-3.1166,-3.2192,-3.3272,-3.4298,-3.436,-3.4673,-3.5356,-3.5108,0.0,0.0,0.0,0.0,0.0,0.0,0.0,0.0,0.0,-3.3922,-3.3922,-3.3544,-3.3418,-3.3418,-3.3418,-3.3418,0.0,0.0,0.0,0.0,0.0,0.0,0.0,0.0,0.0,0.0,0.0,0.0,0.0,0.0,0.0,0.0,0.0,0.0,0.0,0.0,0.0,0.0,0.0,0.0,0.0,-3.8574,-3.8574,-3.8574,-3.8574,-3.8574,-3.8809,-3.9687,0.0,0.0,0.0,-4.1172,-4.1172,-4.1172,-4.1172,-4.1308,-4.1738,-4.2148,0.0,0.0,0.0,0.0,0.0,0.0,0.0,0.0,0.0,0.0,0.0,0.0,0.0,0.0,0.0,-4.6308,-4.6308,-4.6308,-4.6308,-4.6308,-4.6308,-4.6308,-4.6308,-4.6308,-4.6308,-4.6308,-4.6308,0.0,0.0,0.0,0.0,0.0,-4.6308,-4.6308,-4.6308,-4.6308,-4.6308,-4.6308,-4.6308,-4.6308,-4.6308,0.0,0.0,0.0,0.0,0.0,0.0,0.0,-2.9316,-2.9626,-3.0667,-3.1744,-3.2765,-3.3796,-3.3922,-3.4298,-3.5294,-3.5046,0.0,0.0,0.0,0.0,0.0,0.0,0.0,-3.4235,-3.3859,-3.3733,-3.3733,-3.3481,-3.3418,-3.3418,-3.3418,-3.3418,-3.3418,-3.3418,0.0,0.0,0.0,0.0,0.0,0.0,0.0,-3.4746,0.0,0.0,0.0,0.0,0.0,0.0,0.0,0.0,0.0,0.0,0.0,0.0,0.0,-3.8574,0.0,0.0,-3.8574,-3.8574,-3.8574,-3.8574,0.0,0.0,0.0,0.0,0.0,0.0,0.0,-4.1172,-4.1172,-4.125,-4.1523,-4.2051,0.0,0.0,0.0,0.0,0.0,0.0,0.0,0.0,0.0,0.0,0.0,0.0,0.0,0.0,0.0,-4.582,-4.582,-4.6133,-4.6308,-4.6308,-4.6308,-4.6308,-4.6308,-4.6308,-4.6308,-4.6308,-4.6308,0.0,0.0,0.0,0.0,0.0,-4.6308,-4.6308,-4.6308,-4.6308,-4.6211,-4.6055,-4.6055,-4.5957,-4.582,0.0,0.0,0.0,0.0,0.0,0.0,0.0,-2.9316,-2.9626,-3.0602,-3.168,-3.2765,-3.367,-3.3922,-3.436,-3.5294,0.0,0.0,0.0,0.0,0.0,0.0,0.0,0.0,-3.3859,-3.3544,-3.3418,-3.3418,-3.3418,-3.3418,-3.3418,-3.3418,-3.3418,-3.3418,-3.3418,-3.3418,0.0,0.0,0.0,0.0,0.0,-3.4355,0.0,0.0,0.0,0.0,0.0,0.0,0.0,0.0,0.0,0.0,0.0,0.0,0.0,0.0,0.0,0.0,0.0,0.0,0.0,0.0,0.0,0.0,0.0,0.0,0.0,0.0,0.0,0.0,0.0,-4.1172,-4.1172,-4.1172,-4.1875,0.0,0.0,0.0,0.0,0.0,0.0,0.0,0.0,0.0,0.0,0.0,0.0,0.0,0.0,0.0,0.0,-4.5019,-4.5801,-4.6211,-4.6211,-4.6211,-4.6211,-4.6211,-4.6211,-4.6211,-4.6211,-4.6211,0.0,0.0,0.0,0.0,0.0,-4.6211,-4.6211,-4.6211,-4.6211,-4.5976,-4.5625,-4.5625,-4.5371,-4.5019,0.0,0.0,0.0,0.0,0.0,0.0,0.0,0.0,0.0,0.0,-3.123,-3.2511,-3.2702,-3.4153,-3.517,0.0,0.0,0.0,0.0,0.0,0.0,0.0,0.0,0.0,-3.3544,-3.3418,-3.3418,-3.3418,-3.3418,-3.3418,-3.3418,-3.3418,-3.3418,-3.3418,-3.3418,-3.3418,0.0,0.0,0.0,0.0,-3.4258,-3.4609,0.0,0.0,0.0,0.0,-3.6016,-3.6016,0.0,0.0,0.0,0.0,0.0,0.0,0.0,0.0,-3.8574,-3.8574,-3.8574,0.0,-3.8574,-3.8574,-3.8574,-3.8711,0.0,0.0,0.0,0.0,0.0,0.0,0.0,0.0,0.0,0.0,0.0,0.0,0.0,0.0,0.0,0.0,0.0,0.0,0.0,0.0,0.0,0.0,0.0,0.0,0.0,0.0,0.0,-4.5019,-4.5215,-4.5332,-4.5332,-4.5332,-4.5332,-4.5332,-4.5332,-4.5332,-4.5332,-4.5332,0.0,0.0,0.0,0.0,-4.5332,-4.5332,-4.5332,-4.5332,-4.5332,-4.5273,-4.5176,-4.5176,-4.5117,-4.5019,0.0,0.0,0.0,0.0,0.0,0.0,0.0,0.0,0.0,0.0,0.0,0.0,0.0,0.0,0.0,0.0,0.0,0.0,0.0,0.0,0.0,0.0,0.0,-3.3733,-3.3418,-3.3418,-3.3418,-3.3418,-3.3418,-3.3418,-3.3418,-3.3418,-3.3418,-3.3418,-3.3418,-3.3418,-3.3418,-3.3418,-3.3535,-3.3769,-3.4434,0.0,0.0,0.0,0.0,0.0,-3.6016,-3.6016,0.0,-3.6016,-3.6426,-3.6992,0.0,0.0,0.0,0.0,-3.8574,-3.8574,-3.8574,-3.8574,-3.8574,-3.8574,-3.8574,-3.8691,-3.9101,0.0,0.0,0.0,0.0,0.0,0.0,0.0,0.0,0.0,0.0,0.0,0.0,0.0,0.0,0.0,0.0,0.0,0.0,0.0,0.0,0.0,0.0,0.0,0.0,0.0,0.0,0.0,-4.4414,-4.4609,-4.5019,-4.5019,-4.5019,-4.5019,-4.5019,-4.5019,-4.5019,-4.5019,0.0,0.0,0.0,0.0,-4.5019,-4.5019,-4.5019,-4.5019,-4.5019,-4.4902,-4.4746,-4.4746,-4.4609,-4.4414,0.0,0.0,0.0,0.0,0.0,0.0,0.0,0.0,0.0,0.0,0.0,0.0,0.0,0.0,0.0,0.0,0.0,0.0,0.0,0.0,0.0,0.0,-3.3796,-3.367,-3.3418,-3.3418,-3.3418,-3.3418,-3.3418,-3.3418,-3.3418,-3.3418,-3.3418,-3.3418,-3.3418,-3.3418,-3.3418,-3.3418,-3.3672,-3.4101,-3.4531,0.0,0.0,0.0,0.0,0.0,0.0,0.0,0.0,-3.6016,-3.6582,-3.7305,-3.7305,0.0,0.0,0.0,0.0,0.0,-3.8574,-3.8574,-3.8574,-3.8574,-3.8574,-3.8672,-3.9023,0.0,0.0,0.0,0.0,0.0,0.0,0.0,0.0,0.0,0.0,0.0,0.0,0.0,0.0,0.0,0.0,0.0,0.0,0.0,0.0,0.0,0.0,0.0,0.0,0.0,0.0,0.0,-4.3711,-4.4062,-4.4824,-4.4824,-4.4824,-4.4824,-4.4824,-4.4824,-4.4824,-4.4824,-4.4824,0.0,0.0,0.0,-4.4824,-4.4824,-4.4824,-4.4824,-4.4824,-4.4609,-4.4297,-4.4297,-4.4043,-4.3711,0.0,0.0,0.0,0.0,0.0,0.0,0.0,0.0,0.0,0.0,0.0,0.0,0.0,0.0,0.0,0.0,0.0,0.0,0.0,0.0,0.0,-3.3481,-3.3481,-3.3418,-3.3418,-3.3418,-3.3418,-3.3418,-3.3418,-3.3418,-3.3418,-3.3418,-3.3418,-3.3418,-3.3418,-3.3418,-3.3418,-3.3418,-3.3672,-3.4101,-3.4531,0.0,0.0,0.0,0.0,0.0,0.0,0.0,0.0,-3.6016,-3.6582,-3.7305,-3.7305,0.0,0.0,0.0,0.0,0.0,-3.8574,-3.8574,-3.8574,-3.8574,-3.8574,-3.8594,-3.8652,0.0,0.0,0.0,0.0,0.0,0.0,0.0,0.0,0.0,0.0,0.0,0.0,0.0,0.0,0.0,0.0,0.0,0.0,0.0,0.0,0.0,0.0,0.0,0.0,0.0,0.0,0.0,0.0,-4.3769,-4.3906,-4.3906,-4.3906,-4.3906,-4.3906,-4.3906,-4.3906,-4.3906,-4.3906,0.0,0.0,-4.3906,-4.3906,-4.3906,-4.3906,-4.3906,-4.3906,-4.3867,-4.3808,-4.3808,-4.3769,-4.3711,0.0,0.0,0.0,0.0,0.0,0.0,0.0,0.0,0.0,0.0,0.0,0.0,0.0,0.0,0.0,0.0,0.0,0.0,0.0,0.0,-3.3418,-3.3418,-3.3418,-3.3418,-3.3418,-3.3418,-3.3418,-3.3418,-3.3418,-3.3418,-3.3418,-3.3418,-3.3418,-3.3418,-3.3418,-3.3418,-3.3437,-3.3672,-3.4023,-3.4453,0.0,0.0,0.0,0.0,0.0,0.0,0.0,0.0,0.0,0.0,-3.6582,-3.7305,-3.7305,0.0,0.0,0.0,0.0,0.0,-3.8574,-3.8574,-3.8574,-3.8574,-3.8574,-3.8647,-3.8865,0.0,0.0,0.0,0.0,0.0,0.0,0.0,0.0,0.0,0.0,0.0,0.0,0.0,0.0,0.0,0.0,0.0,0.0,0.0,0.0,0.0,0.0,0.0,0.0,0.0,0.0,0.0,0.0,-4.3711,-4.3711,-4.3711,-4.3711,-4.3711,-4.3711,-4.3711,-4.3711,-4.3711,-4.3711,-4.3711,0.0,-4.3711,-4.3711,-4.3711,-4.3711,-4.3711,-4.3711,-4.3711,-4.3711,-4.3711,-4.3711,-4.3711,0.0,0.0,0.0,0.0,0.0,0.0,0.0,0.0,0.0,0.0,0.0,0.0,0.0,0.0,0.0,0.0,0.0,0.0,0.0,0.0,-3.3418,-3.3418,-3.3418,-3.3418,-3.3418,-3.3418,-3.3418,-3.3418,-3.3418,-3.3418,-3.3418,-3.3418,-3.3418,-3.3418,-3.3418,-3.3418,-3.3457,-3.3887,-3.4316,-3.4746,0.0,0.0,0.0,0.0,0.0,0.0,0.0,0.0,0.0,0.0,0.0,0.0,0.0,0.0,0.0,-3.8574,-3.8574,-3.8574,-3.8574,-3.8574,-3.8574,-3.8574,0.0,-3.872,-3.9103,-3.9273,0.0,0.0,0.0,0.0,0.0,0.0,0.0,0.0,0.0,0.0,0.0,0.0,0.0,0.0,0.0,0.0,0.0,0.0,0.0,0.0,0.0,0.0,0.0,0.0,0.0,0.0,0.0,0.0,-4.3711,-4.3793,-4.3793,-4.3711,-4.3711,-4.3711,-4.3711,-4.3711,-4.3711,-4.3711,-4.3711,-4.3711,-4.3711,-4.3711,-4.3711,-4.3711,-4.3711,-4.3711,-4.3711,-4.3711,-4.3711,-4.3711,0.0,0.0,0.0,0.0,0.0,0.0,0.0,0.0,0.0,0.0,0.0,0.0,0.0,0.0,0.0,0.0,0.0,0.0,0.0,0.0,-3.3418,-3.3418,-3.3418,-3.3418,-3.3418,-3.3418,-3.3418,-3.3418,-3.3418,-3.3418,-3.3418,-3.3418,-3.3418,-3.3418,-3.3418,-3.3418,-3.3457,-3.3887,-3.4316,-3.4746,-3.5215,0.0,0.0,0.0,0.0,0.0,0.0,0.0,0.0,0.0,0.0,0.0,0.0,0.0,-3.8574,-3.8574,-3.8574,-3.8574,-3.8574,-3.8574,-3.8574,-3.8574,-3.8574,0.0,-3.9103,-3.9513,0.0,-4.029,0.0,0.0,0.0,0.0,0.0,0.0,0.0,0.0,0.0,0.0,0.0,0.0,0.0,0.0,0.0,0.0,0.0,0.0,0.0,0.0,0.0,0.0,0.0,0.0,0.0,-4.4123,-4.3711,-4.4123,-4.4123,-4.3711,-4.3711,-4.3711,-4.3711,-4.3711,-4.3711,-4.3711,-4.3711,-4.3711,-4.3711,-4.3711,-4.3711,-4.3711,-4.3711,-4.3711,-4.3711,-4.3711,-4.3711,-4.3711,0.0,0.0,0.0,0.0,0.0,0.0,0.0,0.0,0.0,0.0,0.0,0.0,0.0,0.0,0.0,0.0,0.0,0.0,0.0,-3.3418,-3.3418,-3.3418,-3.3418,-3.3418,-3.3418,-3.3418,-3.3418,-3.3418,-3.3418,-3.3418,-3.3418,-3.3418,-3.3418,-3.3418,-3.3418,-3.3574,-3.3848,-3.4277,-3.4726,-3.5176,-3.5605,-3.5879,0.0,0.0,0.0,0.0,0.0,0.0,0.0,0.0,-3.6582,-3.7305,0.0,-3.7891,-3.8574,-3.8574,-3.8574,-3.8647,-3.8885,-3.8793,-3.8647,-3.8865,-3.8793,0.0,0.0,-3.9691,-4.0008,-4.0722,-4.0999,0.0,0.0,0.0,0.0,0.0,0.0,0.0,0.0,0.0,0.0,0.0,0.0,0.0,0.0,0.0,0.0,0.0,0.0,0.0,0.0,0.0,0.0,0.0,0.0,-4.4041,-4.4123,-4.4041,-4.3876,-4.3711,-4.3711,-4.3711,-4.3711,-4.3711,-4.3711,-4.3711,-4.3711,-4.3711,-4.3711,-4.3711,-4.3711,-4.3711,-4.3711,-4.3711,-4.3711,-4.3711,-4.3711,-4.3711,0.0,0.0,0.0,0.0,0.0,0.0,0.0,0.0,0.0,0.0,0.0,0.0,0.0,0.0,0.0,0.0,0.0,0.0,-3.3418,-3.3418,-3.3418,-3.3418,-3.3418,-3.3418,-3.3418,-3.3418,-3.3418,-3.3418,-3.3418,-3.3418,-3.3418,-3.3418,-3.3418,-3.3437,-3.3555,-3.3789,-3.4101,-3.4687,-3.5098,-3.543,-3.5859,-3.6016,0.0,0.0,0.0,0.0,0.0,0.0,0.0,0.0,0.0,0.0,0.0,0.0,0.0,0.0,-3.872,-3.8885,-3.9103,-3.903,-3.8865,0.0,0.0,0.0,-3.9983,-4.023,-4.045,-4.1263,-4.149,0.0,0.0,0.0,0.0,0.0,0.0,0.0,0.0,0.0,0.0,0.0,0.0,0.0,0.0,0.0,0.0,0.0,0.0,0.0,0.0,0.0,0.0,0.0,0.0,0.0,-4.4205,-4.4041,-4.3958,-4.3958,-4.3793,-4.3711,-4.3711,-4.3711,-4.3711,-4.3711,-4.3711,-4.3711,-4.3711,-4.3711,-4.3711,-4.3711,-4.3711,-4.3711,-4.3711,-4.3711,-4.3711,-4.3711,0.0,0.0,0.0,0.0,0.0,0.0,0.0,0.0,0.0,0.0,0.0,0.0,0.0,0.0,0.0,0.0,0.0,0.0,-3.3418,-3.3418,-3.3418,-3.3418,-3.3418,-3.3418,-3.3418,-3.3418,-3.3418,-3.3418,-3.3418,-3.3418,-3.3418,-3.3418,-3.3418,-3.3437,-3.3887,-3.4082,-3.4141,-3.5019,-3.5391,-3.543,-3.5859,-3.6016,-3.6016,0.0,0.0,0.0,0.0,0.0,0.0,0.0,-3.6601,0.0,0.0,0.0,0.0,0.0,-3.8885,-3.9176,-3.9176,-3.9176,0.0,0.0,0.0,0.0,0.0,0.0,0.0,0.0,0.0,0.0,0.0,0.0,0.0,0.0,0.0,0.0,0.0,0.0,0.0,0.0,0.0,0.0,0.0,0.0,0.0,0.0,0.0,0.0,0.0,0.0,0.0,0.0,0.0,0.0,-4.3711,-4.4205,-4.437,-4.437,-4.3958,-4.3711,-4.3711,-4.3711,-4.3711,-4.3711,-4.3711,-4.3711,-4.3711,-4.3711,-4.3711,-4.3711,-4.3711,-4.3711,-4.3711,-4.3711,-4.3711,-4.3711,0.0,0.0,0.0,0.0,0.0,0.0,0.0,0.0,0.0,0.0,0.0,0.0,0.0,0.0,0.0,0.0,0.0,0.0,-3.3418,-3.3418,-3.3418,-3.3418,-3.3418,-3.3418,-3.3418,-3.3418,-3.3418,-3.3418,-3.3418,-3.3418,-3.3418,-3.3418,-3.3418,-3.3437,-3.3887,-3.4238,-3.4551,-3.5137,-3.5566,-3.584,-3.5976,-3.6016,-3.6016,0.0,0.0,0.0,0.0,0.0,0.0,0.0,0.0,0.0,0.0,0.0,0.0,-3.8574,-3.8647,-3.8865,-3.9103,0.0,0.0,0.0,0.0,0.0,0.0,0.0,0.0,0.0,0.0,0.0,0.0,0.0,0.0,0.0,0.0,0.0,0.0,0.0,0.0,0.0,0.0,0.0,0.0,0.0,0.0,0.0,0.0,0.0,0.0,0.0,0.0,0.0,0.0,0.0,-4.4636,-4.4452,-4.437,-4.437,-4.4534,-4.4452,-4.4205,-4.3876,-4.3711,-4.3711,-4.3711,-4.3711,-4.3711,-4.3711,-4.3711,-4.3711,-4.3711,-4.3711,-4.3711,-4.3711,-4.3711,-4.3711,0.0,0.0,0.0,0.0,0.0,0.0,0.0,0.0,0.0,0.0,-3.1322,-3.1835,0.0,0.0,0.0,0.0,0.0,0.0,0.0,-3.3418,-3.3418,-3.3418,-3.3418,-3.3418,-3.3418,-3.3418,-3.3418,-3.3418,-3.3418,-3.3418,-3.3418,-3.3418,-3.3516,-3.3691,-3.4121,-3.457,-3.5,-3.5449,-3.5781,-3.6016,-3.6016,-3.6016,-3.6016,0.0,0.0,0.0,0.0,0.0,0.0,0.0,0.0,0.0,0.0,0.0,0.0,-3.8793,-3.8938,-3.9156,-3.9538,0.0,0.0,0.0,0.0,0.0,0.0,0.0,0.0,0.0,0.0,0.0,0.0,0.0,0.0,0.0,0.0,0.0,0.0,0.0,0.0,0.0,0.0,0.0,0.0,0.0,0.0,0.0,0.0,0.0,0.0,0.0,0.0,0.0,0.0,0.0,-4.4964,-4.48,-4.4698,-4.4944,-4.4964,-4.4882,-4.4616,-4.4205,-4.3958,-4.3958,-4.3793,-4.3711,-4.3711,-4.3711,-4.3711,-4.3711,-4.3711,-4.3711,-4.3711,-4.3711,-4.3711,-4.3711,0.0,0.0,0.0,0.0,0.0,0.0,0.0,0.0,0.0,0.0,-3.1322,-3.1835,0.0,0.0,0.0,0.0,0.0,0.0,0.0,0.0,-3.3418,-3.3418,-3.3418,-3.3418,-3.3418,-3.3418,-3.3418,-3.3418,-3.3418,-3.3418,-3.3418,-3.3457,-3.3691,-3.4101,-3.4551,-3.5,-3.543,-3.584,-3.6016,-3.6016,-3.6016,-3.6016,-3.6016,-3.6016,0.0,0.0,0.0,0.0,0.0,0.0,0.0,0.0,0.0,0.0,0.0,-3.903,-3.9373,-3.9714,0.0,0.0,0.0,0.0,0.0,0.0,0.0,0.0,0.0,0.0,0.0,0.0,0.0,0.0,0.0,0.0,0.0,0.0,0.0,0.0,0.0,0.0,0.0,0.0,0.0,0.0,0.0,0.0,0.0,0.0,0.0,0.0,0.0,0.0,0.0,0.0,-4.5046,-4.5046,-4.5291,0.0,-4.5291,-4.5046,-4.4964,-4.4616,-4.437,-4.4288,-4.3876,-4.3711,-4.3711,-4.3711,-4.3711,-4.3711,-4.3711,-4.3711,-4.3711,-4.3711,-4.3711,-4.3711,0.0,0.0,0.0,0.0,0.0,0.0,0.0,0.0,0.0,0.0,0.0,0.0,0.0,0.0,0.0,0.0,0.0,0.0,0.0,0.0,-3.3418,-3.3418,-3.3418,-3.3418,-3.3418,-3.3418,-3.3418,-3.3418,-3.3418,-3.3418,-3.3437,-3.3769,-3.3984,-3.4101,-3.4902,-3.5293,-3.543,-3.584,-3.6016,-3.6016,-3.6016,-3.6016,-3.6016,-3.6016,-3.6016,0.0,0.0,0.0,0.0,0.0,0.0,0.0,-3.8301,-3.8496,-3.8647,-3.872,-3.9011,0.0,0.0,0.0,0.0,0.0,0.0,0.0,0.0,0.0,0.0,0.0,0.0,0.0,0.0,0.0,0.0,0.0,0.0,0.0,0.0,0.0,0.0,0.0,0.0,0.0,0.0,0.0,0.0,0.0,0.0,0.0,0.0,0.0,0.0,0.0,0.0,-4.5209,-4.5556,-4.5556,-4.5637,0.0,-4.5637,-4.5372,-4.4964,-4.4616,-4.4205,-4.3876,-4.3691,-4.3711,-4.3711,-4.3711,-4.3711,-4.3711,-4.3711,-4.3711,-4.3711,-4.3711,-4.3711,-4.3711,0.0,0.0,0.0,0.0,0.0,0.0,0.0,0.0,0.0,0.0,0.0,0.0,0.0,0.0,0.0,0.0,0.0,0.0,0.0,0.0,-3.3418,-3.3418,-3.3418,-3.3418,-3.3418,-3.3418,-3.3418,-3.3418,-3.3633,-3.373,-3.375,-3.3965,-3.4297,-3.4726,-3.5195,-3.5508,-3.5703,-3.5937,-3.6016,-3.6016,-3.6016,-3.6016,-3.6016,-3.6016,-3.6152,-3.6328,-3.6328,0.0,0.0,0.0,0.0,0.0,0.0,0.0,-3.8647,-3.8793,-3.9156,-3.9445,0.0,0.0,0.0,0.0,0.0,0.0,0.0,0.0,0.0,0.0,0.0,0.0,0.0,0.0,0.0,0.0,0.0,0.0,0.0,0.0,0.0,0.0,0.0,0.0,0.0,0.0,0.0,0.0,0.0,0.0,0.0,0.0,0.0,0.0,-4.5535,-4.5698,-4.5942,-4.5942,-4.5942,-4.5942,-4.5942,-4.5617,-4.4964,-4.4616,-4.4123,-4.3711,-4.3711,-4.3711,-4.3711,-4.3711,-4.3711,-4.3711,-4.3711,-4.3711,-4.3711,-4.3711,-4.3711,-4.3711,0.0,0.0,0.0,0.0,0.0,0.0,0.0,0.0,0.0,0.0,0.0,0.0,0.0,0.0,0.0,0.0,0.0,0.0,0.0,0.0,0.0,-3.3418,-3.3418,-3.3418,-3.3418,-3.3496,-3.3535,-3.3535,-3.3965,-3.4219,-3.4297,-3.4297,-3.4687,-3.5391,-3.5469,-3.5703,-3.6016,-3.6016,-3.6016,-3.6016,-3.6016,-3.6016,-3.6035,-3.6094,-3.6348,-3.668,-3.6758,-3.7051,-3.7461,-3.7812,0.0,0.0,0.0,0.0,-3.8647,-3.903,-3.9373,-3.9714,0.0,0.0,0.0,0.0,0.0,0.0,0.0,0.0,0.0,0.0,0.0,0.0,0.0,0.0,0.0,0.0,0.0,0.0,0.0,0.0,0.0,0.0,0.0,0.0,0.0,0.0,0.0,0.0,0.0,0.0,0.0,0.0,-4.5779,-4.5779,-4.6104,-4.6266,-4.6266,-4.6266,-4.6266,-4.6266,-4.6185,-4.5617,-4.48,-4.4452,-4.4041,-4.3711,-4.3711,-4.3711,-4.3711,-4.3711,-4.3711,-4.3711,-4.3711,-4.3711,-4.3691,-4.3633,-4.3594,-4.3574,0.0,0.0,0.0,0.0,0.0,0.0,0.0,0.0,0.0,0.0,-3.1322,-3.1835,0.0,0.0,0.0,0.0,0.0,0.0,0.0,0.0,0.0,-3.3418,-3.3418,-3.3418,-3.3418,-3.3789,-3.3984,-3.3984,-3.4414,-3.4824,-3.5215,-3.5215,-3.5273,-3.541,-3.5781,-3.5976,-3.6016,-3.6016,-3.6016,-3.6016,-3.6016,-3.6016,-3.6055,-3.6445,-3.6621,-3.6719,-3.709,-3.748,-3.7851,-3.791,-3.8164,0.0,0.0,0.0,-3.8647,-3.8647,-3.8938,0.0,0.0,0.0,0.0,0.0,0.0,0.0,0.0,0.0,0.0,0.0,0.0,0.0,0.0,0.0,0.0,0.0,0.0,0.0,0.0,0.0,0.0,0.0,0.0,0.0,0.0,0.0,0.0,0.0,0.0,0.0,0.0,-4.6023,-4.6185,-4.6185,-4.6266,-4.6266,-4.6266,-4.6266,-4.6266,-4.6266,-4.5535,-4.4698,-4.3876,-4.3793,-4.3793,-4.3711,-4.3711,-4.3711,-4.3711,-4.3711,-4.3711,-4.3711,-4.3711,-4.3711,-4.3652,-4.3301,-4.3164,-4.3105,0.0,0.0,0.0,0.0,0.0,0.0,0.0,0.0,0.0,0.0,0.0,-3.2702,0.0,0.0,0.0,0.0,0.0,0.0,0.0,0.0,0.0,-3.3418,-3.3652,-3.3789,-3.3789,-3.4199,-3.4434,-3.4434,-3.4863,0.0,0.0,-3.5625,-3.5742,-3.5742,-3.5937,-3.6016,-3.6016,-3.6016,-3.6016,-3.6035,-3.6289,-3.623,-3.6094,-3.6758,-3.7031,-3.707,-3.75,-3.793,-3.8281,-3.8281,-3.8418,-3.8574,-3.8574,0.0,0.0,0.0,-3.8885,0.0,0.0,0.0,0.0,0.0,0.0,0.0,0.0,0.0,0.0,0.0,0.0,0.0,0.0,0.0,0.0,0.0,0.0,0.0,0.0,0.0,0.0,0.0,0.0,0.0,0.0,0.0,0.0,0.0,0.0,0.0,-4.6023,-4.6185,-4.6266,-4.6266,-4.6266,-4.6266,-4.6266,-4.6266,-4.6185,-4.5942,-4.5291,-4.4578,-4.3667,-4.3441,-4.3476,-4.3691,-4.3457,-4.3359,-4.334,-4.3086,-4.2988,-4.2988,-4.2988,-4.2988,-4.2969,-4.2773,-4.2715,-4.2695,0.0,0.0,0.0,0.0,0.0,0.0,0.0,0.0,0.0,0.0,0.0,0.0,0.0,0.0,0.0,0.0,0.0,0.0,0.0,0.0,0.0,-3.375,-3.4062,-3.4238,-3.4238,-3.4648,-3.4883,-3.4883,0.0,0.0,-3.5566,-3.5879,-3.6016,0.0,-3.6016,-3.6016,-3.6016,-3.6016,-3.6094,-3.6211,-3.6543,-3.6543,-3.6426,-3.7168,-3.7461,-3.7519,-3.793,-3.8301,-3.8574,-3.8574,-3.8574,-3.8574,-3.8574,-3.8574,0.0,0.0,0.0,0.0,0.0,0.0,0.0,0.0,0.0,0.0,0.0,0.0,0.0,0.0,0.0,0.0,0.0,0.0,0.0,0.0,0.0,0.0,0.0,0.0,0.0,0.0,0.0,0.0,0.0,0.0,0.0,0.0,0.0,0.0,-4.6266,-4.6266,-4.6266,-4.6266,-4.6266,-4.6266,-4.6266,-4.6061,-4.5757,-4.5373,-4.4764,-4.4118,-4.3376,-4.3072,-4.3086,-4.3359,-4.3047,-4.291,-4.2891,-4.2558,-4.2422,-4.2422,-4.2422,-4.2422,-4.2422,-4.2305,-4.2266,-4.2246,0.0,0.0,0.0,0.0,0.0,0.0,0.0,0.0,0.0,0.0,0.0,0.0,-3.3418,-3.3418,-3.3418,-3.3418,-3.3418,0.0,0.0,0.0,0.0,-3.4609,-3.4648,0.0,-3.4668,-3.5117,-3.5351,0.0,0.0,0.0,-3.5996,-3.6016,-3.6016,-3.6016,-3.6016,-3.6016,-3.6016,-3.6016,-3.625,-3.6641,-3.666,-3.6894,-3.7285,-3.7734,-3.7891,-3.7949,-3.8379,-3.8555,-3.8574,-3.8574,-3.8574,-3.8574,-3.8574,-3.8574,-3.8574,0.0,0.0,0.0,0.0,0.0,0.0,0.0,0.0,0.0,0.0,0.0,0.0,0.0,0.0,0.0,0.0,0.0,0.0,0.0,0.0,0.0,0.0,0.0,0.0,0.0,0.0,0.0,0.0,0.0,0.0,0.0,0.0,0.0,-4.6266,-4.6266,-4.6266,-4.6266,-4.6266,-4.6266,-4.6266,-4.549,-4.4864,-4.4482,-4.3579,-4.2961,-4.2461,-4.2461,-4.248,-4.25,-4.2461,-4.2461,-4.2461,-4.2441,-4.2422,-4.2422,-4.2422,-4.2422,-4.2383,-4.1973,-4.1836,-4.1777,0.0,0.0,0.0,0.0,0.0,0.0,0.0,0.0,0.0,0.0,0.0,0.0,0.0,-3.3418,-3.3418,-3.3418,-3.3672,0.0,0.0,0.0,0.0,-3.4687,-3.498,-3.5137,-3.5137,-3.5566,-3.5801,0.0,0.0,-3.6016,-3.6016,-3.6016,-3.6016,-3.6016,-3.6016,-3.6016,-3.6035,-3.6328,-3.6523,-3.6719,-3.7266,-3.7402,-3.7383,-3.8066,-3.8164,-3.7988,-3.8418,0.0,0.0,-3.8574,-3.8574,-3.8574,-3.8574,-3.8574,-3.8574,-3.8574,-3.8885,0.0,0.0,0.0,0.0,0.0,0.0,0.0,0.0,0.0,0.0,0.0,0.0,0.0,0.0,0.0,0.0,0.0,0.0,0.0,0.0,0.0,0.0,0.0,0.0,0.0,0.0,0.0,0.0,0.0,0.0,0.0,-4.6266,-4.6266,-4.6266,-4.6266,-4.6266,-4.6041,-4.549,-4.49,-4.4278,-4.354,-4.3221,-4.2684,-4.2031,-4.2031,-4.1875,-4.1621,-4.1621,-4.1777,-4.2012,-4.1738,-4.1621,-4.1621,-4.1621,-4.1621,-4.1601,-4.1445,-4.1387,-4.1387,0.0,0.0,0.0,0.0,0.0,0.0,0.0,0.0,-3.1322,-3.1322,0.0,0.0,0.0,0.0,-3.3181,-3.3764,-3.4121,-3.4473,-3.4902,-3.4922,-3.5,-3.5137,-3.543,-3.5605,-3.5605,-3.5742,0.0,0.0,0.0,0.0,0.0,-3.6016,-3.6016,-3.6016,-3.6016,-3.6016,0.0,0.0,0.0,-3.6953,0.0,-3.7832,-3.7793,-3.8359,-3.8398,0.0,0.0,0.0,0.0,0.0,-3.8574,-3.8574,-3.8574,-3.8574,-3.8574,-3.8574,-3.8793,0.0,0.0,0.0,0.0,0.0,0.0,0.0,0.0,0.0,0.0,0.0,0.0,0.0,0.0,0.0,0.0,0.0,0.0,0.0,0.0,0.0,0.0,0.0,0.0,0.0,0.0,0.0,0.0,0.0,0.0,0.0,-4.6266,-4.6266,-4.6184,-4.5878,-4.5857,-4.547,-4.462,-4.4035,-4.3496,-4.2942,-4.2625,-4.2171,-4.1582,-4.1582,-4.1426,-4.1172,-4.1172,-4.1328,-4.1562,-4.1289,-4.1172,-4.1172,-4.1172,-4.1172,-4.1172,-4.1172,-4.1172,-4.1172,0.0,0.0,0.0,0.0,0.0,0.0,0.0,0.0,-3.1176,-3.1258,0.0,0.0,0.0,0.0,0.0,-3.4556,-3.4726,-3.4922,-3.5391,-3.541,-3.5586,-3.5996,0.0,0.0,0.0,0.0,0.0,0.0,0.0,0.0,0.0,0.0,-3.6016,-3.6016,-3.6035,-3.6035,-3.6074,0.0,-3.6934,-3.7344,0.0,-3.8203,-3.8574,0.0,0.0,0.0,-3.8574,-3.8574,0.0,-3.8574,0.0,0.0,-3.8574,-3.8574,-3.8574,-3.8574,-3.8574,-3.872,0.0,0.0,0.0,0.0,0.0,0.0,0.0,0.0,0.0,0.0,0.0,0.0,0.0,0.0,0.0,0.0,0.0,0.0,0.0,0.0,0.0,0.0,0.0,0.0,0.0,0.0,0.0,0.0,0.0,-4.6266,-4.6246,-4.6225,-4.5857,-4.4984,-4.4963,-4.4579,-4.3777,-4.2941,-4.2486,-4.2486,-4.1601,-4.1172,-4.1172,-4.1172,-4.1172,-4.1172,-4.1172,-4.1172,-4.1172,-4.1172,-4.1172,-4.1172,-4.1172,-4.1172,-4.1172,-4.1172,-4.1172,-4.1172,0.0,0.0,0.0,0.0,0.0,-2.5644,-2.5644,-2.7153,-2.8641,0.0,0.0,0.0,-3.363,-3.3934,-3.4293,-3.5156,-3.5195,-3.5391,-3.582,-3.584,-3.5898,-3.6016,-3.6016,-3.6016,-3.6016,0.0,0.0,0.0,0.0,0.0,0.0,0.0,0.0,0.0,-3.6348,-3.6484,-3.6523,-3.6953,0.0,0.0,-3.8223,-3.8476,0.0,0.0,0.0,0.0,0.0,-3.8574,-3.8574,0.0,-3.8574,-3.8574,-3.8574,-3.8574,-3.8574,-3.8574,-3.8574,-3.8647,-3.872,0.0,0.0,0.0,0.0,0.0,0.0,0.0,0.0,0.0,0.0,0.0,0.0,0.0,0.0,0.0,0.0,0.0,0.0,0.0,0.0,0.0,0.0,0.0,0.0,0.0,0.0,0.0,-4.6266,-4.6202,-4.5892,-4.5242,-4.4678,-4.4138,-4.3814,-4.3356,-4.2842,-4.2247,-4.1873,-4.1582,-4.1308,-4.1172,-4.1172,-4.1172,-4.1172,-4.1172,-4.1172,-4.1172,-4.1172,-4.1172,-4.1172,-4.1172,-4.1172,-4.1172,-4.1172,-4.1172,-4.1172,-4.1172,0.0,0.0,0.0,0.0,0.0,-2.5779,-2.5187,-2.6769,-2.8312,0.0,0.0,0.0,-3.3482,-3.4495,-3.5176,-3.5605,-3.5664,-3.5762,-3.5996,-3.6016,-3.6016,-3.6016,-3.6016,-3.6016,-3.6016,-3.5859,0.0,0.0,0.0,0.0,0.0,-3.6016,-3.6113,0.0,0.0,0.0,0.0,0.0,0.0,0.0,-3.8398,0.0,0.0,-3.8574,-3.8574,0.0,0.0,0.0,-3.8867,-3.9062,-3.9004,0.0,0.0,-3.8574,-3.8574,-3.8574,-3.8574,-3.8574,-3.8574,-3.8793,-3.8958,0.0,0.0,0.0,0.0,0.0,0.0,0.0,0.0,0.0,0.0,0.0,0.0,0.0,0.0,0.0,0.0,0.0,0.0,0.0,0.0,0.0,0.0,0.0,0.0,0.0,-4.5731,-4.5345,-4.4918,-4.4435,-4.3875,-4.3298,-4.3038,-4.2583,-4.1935,-4.1678,-4.1405,-4.1172,-4.1172,-4.1172,-4.1172,-4.1172,-4.1172,-4.1172,-4.1172,-4.1172,-4.1172,-4.1172,-4.1172,-4.1172,-4.1172,-4.1172,-4.1172,-4.1172,-4.1172,-4.1172,0.0,0.0,-2.5119,-2.5119,-2.61,-2.6501,-2.5299,-2.7216,-2.8991,0.0,-3.0049,-3.1032,-3.3138,-3.4623,-3.5605,-3.5996,-3.6016,-3.6016,-3.6016,-3.6016,-3.6016,-3.6016,-3.6016,-3.6016,-3.6016,-3.5664,-3.5644,0.0,0.0,0.0,0.0,-3.6094,-3.6328,-3.6738,0.0,0.0,0.0,0.0,0.0,-3.8027,-3.8418,-3.8574,0.0,0.0,-3.8613,-3.8691,-3.9062,-3.9238,-3.9336,-3.9766,-3.9609,0.0,0.0,0.0,-3.8711,-3.8652,-3.8652,-3.8633,-3.8594,-3.8613,-3.8725,-3.909,0.0,0.0,-4.0843,-4.1406,-4.185,0.0,0.0,0.0,0.0,0.0,0.0,0.0,0.0,0.0,0.0,0.0,0.0,0.0,0.0,0.0,0.0,0.0,-4.5443,-4.5522,-4.4714,-4.4053,-4.3637,-4.3597,-4.3238,-4.2367,-4.2367,-4.1935,-4.1172,-4.1172,-4.1172,-4.1172,-4.1172,-4.1172,-4.1172,-4.1172,-4.1172,-4.1172,-4.1172,-4.1172,-4.1172,-4.1172,-4.1172,-4.1172,-4.1172,-4.1172,-4.1172,-4.1172,-4.1172,-4.1172,0.0,-2.5119,-2.5119,-2.5119,-2.5322,-2.5479,-2.5403,-2.5897,-2.6755,-2.8264,-3.0805,-3.2761,-3.3596,-3.4994,-3.5937,-3.6016,-3.6016,-3.6016,-3.6016,-3.6016,-3.6016,-3.6016,-3.6016,-3.6016,-3.6016,-3.5937,-3.5937,-3.6016,0.0,0.0,0.0,-3.6543,-3.6777,-3.7187,0.0,0.0,0.0,0.0,0.0,-3.8457,-3.8535,0.0,-3.8574,-3.8574,-3.8789,-3.9082,-3.918,-3.9453,-3.9766,-3.9863,-3.9844,-3.9746,0.0,0.0,0.0,-3.9199,-3.9082,-3.9004,-3.8672,-3.8828,-3.9082,0.0,0.0,0.0,-4.0543,-4.0955,0.0,0.0,0.0,0.0,0.0,0.0,0.0,0.0,0.0,0.0,0.0,0.0,0.0,0.0,0.0,0.0,0.0,0.0,-4.4156,-4.4156,-4.3672,-4.3175,-4.2802,-4.2385,-4.1991,-4.1445,-4.1445,-4.1328,-4.1172,-4.1172,-4.1172,-4.1172,-4.1172,-4.1172,-4.1172,-4.1172,-4.1172,-4.1172,-4.1172,-4.1172,-4.1172,-4.1172,-4.1172,-4.1172,-4.1172,-4.1172,-4.1172,-4.1172,-4.1172,-4.1172,-2.5119,-2.5183,-2.5286,-2.5286,-2.5432,-2.5593,-2.5754,-2.5769,-2.6429,-2.8215,-3.134,-3.3816,-3.4796,-3.5538,-3.6016,-3.6016,-3.6016,-3.6016,-3.6016,-3.6016,-3.6016,-3.6016,-3.6016,-3.6016,-3.6016,-3.623,-3.6348,-3.6348,0.0,0.0,0.0,0.0,-3.7207,-3.7617,0.0,0.0,0.0,0.0,-3.8574,-3.8574,-3.8574,0.0,-3.8594,-3.8809,-3.9023,-3.9258,-3.9707,-4.0156,-4.0508,-4.0273,-4.0215,0.0,0.0,-3.9902,-3.9844,0.0,-3.9551,-3.9512,0.0,0.0,0.0,-3.9551,0.0,0.0,0.0,-4.0859,0.0,0.0,0.0,0.0,0.0,0.0,0.0,0.0,0.0,0.0,0.0,0.0,0.0,0.0,0.0,0.0,0.0,0.0,-4.3511,-4.3132,-4.2677,-4.2266,-4.1876,-4.1601,-4.1405,-4.1172,-4.1172,-4.1172,-4.1172,-4.1172,-4.1172,-4.1172,-4.1172,-4.1172,-4.1172,-4.1172,-4.1172,-4.1172,-4.1172,-4.1172,-4.1172,-4.1172,-4.1172,-4.1172,-4.1172,-4.1172,-4.1172,-4.1172,-4.1172,-4.1172,-2.5242,-2.5447,-2.5622,-2.5622,-2.5842,-2.6032,-2.6105,-2.6105,-2.6843,-2.9071,-3.1948,-3.4333,-3.5811,-3.6016,-3.6016,-3.6016,-3.6016,-3.6055,-3.6133,-3.6152,-3.6152,-3.6152,-3.623,-3.623,-3.6152,-3.6562,-3.6797,-3.6797,0.0,0.0,0.0,0.0,0.0,0.0,0.0,0.0,0.0,0.0,0.0,-3.8574,0.0,-3.8691,-3.873,-3.9062,-3.9297,-3.9551,-4.0351,-4.0879,-4.1113,-4.0762,-4.0644,-4.0586,-4.0254,-4.0137,0.0,0.0,0.0,0.0,0.0,0.0,0.0,0.0,0.0,-4.0644,0.0,0.0,0.0,0.0,0.0,0.0,0.0,0.0,0.0,0.0,0.0,0.0,0.0,0.0,0.0,0.0,0.0,0.0,0.0,0.0,-4.2948,-4.2256,-4.185,-4.154,-4.125,-4.1172,-4.1172,-4.1172,-4.1172,-4.1172,-4.1172,-4.1172,-4.1172,-4.1172,-4.1172,-4.1172,-4.1172,-4.1172,-4.1172,-4.1172,-4.1172,-4.1172,-4.1172,-4.1172,-4.1172,-4.1172,-4.1172,-4.1172,-4.1172,-4.1172,-4.1172,-4.1172,-2.5915,-2.593,-2.5959,-2.5959,-2.5988,-2.612,-2.6398,-2.6442,-2.7616,-3.0771,-3.2683,-3.4333,-3.5811,-3.6016,-3.6016,-3.6016,-3.6016,-3.6191,-3.6562,-3.6601,-3.6601,-3.6601,-3.6953,-3.6973,-3.6601,-3.7012,-3.7226,-3.7226,-3.7266,0.0,0.0,0.0,0.0,0.0,-3.8496,0.0,0.0,0.0,-3.8574,0.0,-3.8984,-3.9141,0.0,-3.918,-3.9687,-4.043,-4.0918,-4.1133,-4.1172,0.0,-4.1094,-4.1094,0.0,-4.1035,-4.0957,-4.0566,0.0,0.0,0.0,0.0,0.0,0.0,-4.0781,0.0,0.0,0.0,0.0,0.0,0.0,0.0,0.0,0.0,0.0,0.0,0.0,0.0,0.0,0.0,0.0,0.0,0.0,0.0,0.0,0.0,0.0,-4.1327,-4.1327,-4.125,-4.1172,-4.1172,-4.1172,-4.1172,-4.1172,-4.1172,-4.1172,-4.1172,-4.1172,-4.1172,-4.1172,-4.1172,-4.1172,-4.1172,-4.1172,-4.1172,-4.1172,-4.1172,-4.1172,-4.1172,-4.1172,-4.1172,-4.1172,-4.1172,-4.1172,-4.1172,-4.1172,-4.1172,-2.6091,-2.6164,-2.6296,-2.6296,-2.6457,-2.6632,-2.6764,-2.6793,-2.7602,-2.9861,-3.1508,-3.3067,-3.454,-3.575,-3.6289,-3.6035,0.0,-3.6484,0.0,0.0,-3.6777,-3.7031,-3.7207,-3.7226,-3.7031,-3.7441,-3.7656,-3.7656,-3.791,0.0,0.0,0.0,0.0,0.0,-3.8574,0.0,-3.8574,0.0,0.0,0.0,0.0,0.0,0.0,-3.9961,-4.0351,-4.0918,-4.1113,-4.1172,-4.1172,0.0,-4.1172,0.0,0.0,0.0,0.0,0.0,0.0,0.0,0.0,0.0,0.0,0.0,0.0,0.0,-4.1172,0.0,-4.1172,0.0,0.0,0.0,0.0,0.0,0.0,0.0,0.0,0.0,0.0,0.0,0.0,0.0,0.0,0.0,0.0,0.0,0.0,0.0,0.0,-4.1172,-4.1172,-4.1172,-4.1172,-4.1172,-4.1172,-4.1172,-4.1172,-4.1172,-4.1172,-4.1172,-4.1172,-4.1172,-4.1172,-4.1172,-4.1172,-4.1172,-4.1172,-4.1172,-4.1172,-4.1172,-4.1172,-4.1172,-4.1172,-4.1172,-4.1172,-4.1172,-4.1172,-4.1172,-2.6383,-2.6471,-2.6632,-2.6632,0.0,-2.6983,-2.6983,-2.7347,-2.7985,-2.9035,-3.0601,0.0,-3.3159,-3.5014,0.0,0.0,-3.6452,-3.6894,0.0,0.0,-3.7148,-3.7461,-3.7578,0.0,-3.748,-3.7891,-3.8105,-3.8105,-3.8418,-3.8574,0.0,0.0,0.0,0.0,0.0,-3.8574,-3.8574,0.0,0.0,-3.9219,-3.9473,-4.0019,-4.0703,-4.0703,-4.0898,-4.1172,-4.1172,-4.1172,-4.1172,-4.1172,-4.1172,0.0,-4.1172,0.0,0.0,0.0,0.0,0.0,-4.1172,0.0,0.0,0.0,0.0,0.0,0.0,0.0,0.0,0.0,0.0,0.0,0.0,0.0,0.0,-4.1172,0.0,0.0,0.0,0.0,0.0,0.0,0.0,0.0,0.0,0.0,0.0,0.0,-4.1405,0.0,-4.1172,-4.1172,-4.1172,-4.1172,-4.1172,-4.1172,-4.1172,-4.1172,-4.1172,-4.1172,-4.1172,-4.1172,-4.1172,-4.1172,-4.1172,-4.1172,-4.1172,-4.1172,-4.1172,-4.1172,-4.1172,-4.1172,-4.1172,-4.1172,-4.1172,-4.1172,-4.1172,-4.1172,-2.6969,-2.6969,-2.6969,-2.6969,0.0,0.0,0.0,0.0,0.0,0.0,0.0,0.0,0.0,0.0,0.0,0.0,0.0,-3.7461,-3.7851,0.0,-3.7891,0.0,0.0,-3.834,-3.791,-3.834,-3.8555,-3.8555,-3.8574,-3.8574,0.0,0.0,0.0,0.0,0.0,-3.8574,-3.8613,-3.9004,-3.9199,-3.9277,-4.0137,-4.0742,-4.1152,0.0,-4.1172,-4.1172,-4.1172,0.0,0.0,-4.1172,-4.1172,0.0,0.0,0.0,0.0,0.0,0.0,0.0,0.0,0.0,0.0,-4.1172,0.0,0.0,0.0,0.0,-4.1172,0.0,0.0,0.0,0.0,-4.1172,-4.1172,-4.1172,-4.1172,0.0,0.0,0.0,0.0,0.0,0.0,0.0,0.0,0.0,0.0,0.0,-4.1172,-4.1172,-4.1172,-4.1172,-4.1172,-4.1172,-4.1172,-4.1172,-4.1172,-4.1172,-4.1172,-4.1172,-4.1172,-4.1172,-4.1172,-4.1172,-4.1172,-4.1172,-4.1172,-4.1172,-4.1172,-4.1172,-4.1172,-4.1172,-4.1172,-4.1172,-4.1172,-4.1172,-4.1172,-4.1172,-2.6983,-2.6983,-2.6983,0.0,0.0,0.0,0.0,-2.7598,0.0,0.0,0.0,0.0,0.0,-3.474,-3.5627,0.0,0.0,-3.7773,-3.791,-3.793,0.0,0.0,0.0,-3.8496,0.0,-3.8496,-3.8574,-3.8574,-3.8574,-3.8574,0.0,0.0,0.0,0.0,0.0,-3.873,0.0,0.0,0.0,0.0,0.0,-4.1035,-4.1172,0.0,0.0,-4.1172,-4.1172,-4.1172,0.0,-4.1172,-4.1172,-4.1172,-4.1172,-4.1172,-4.1172,-4.1172,-4.1172,0.0,0.0,0.0,-4.1172,-4.1172,0.0,0.0,0.0,0.0,0.0,0.0,0.0,0.0,0.0,-4.1172,-4.1172,-4.1172,-4.1172,-4.1172,0.0,0.0,0.0,0.0,0.0,0.0,0.0,0.0,0.0,-4.1172,-4.1172,-4.1172,0.0,-4.1172,-4.1172,-4.1172,-4.1172,-4.1172,-4.1172,-4.1172,-4.1172,-4.1172,-4.1172,-4.1172,-4.1172,-4.1172,-4.1172,-4.1172,-4.1172,-4.1172,-4.1172,-4.1172,-4.1172,-4.1172,-4.1172,-4.1172,-4.1172,-4.1172,-4.1172,-4.1172,-2.6983,-2.6983,0.0,0.0,0.0,0.0,0.0,0.0,0.0,0.0,-2.939,0.0,-3.2459,0.0,-3.5137,0.0,-3.7321,-3.8164,-3.8164,-3.8164,0.0,-3.8555,-3.8574,0.0,0.0,-3.8574,-3.8574,-3.8574,-3.8574,-3.8574,0.0,0.0,0.0,0.0,0.0,0.0,0.0,0.0,-4.0,0.0,0.0,-4.1172,0.0,0.0,-4.1172,-4.1172,0.0,-4.1172,-4.1172,-4.1172,-4.1172,-4.1172,-4.1172,-4.1172,-4.1172,-4.1172,-4.1172,-4.1172,-4.1172,-4.1172,0.0,-4.1172,-4.1172,0.0,-4.1172,0.0,0.0,0.0,0.0,0.0,0.0,-4.1172,-4.1172,-4.1172,-4.1172,-4.1172,0.0,-4.1035,0.0,0.0,0.0,0.0,0.0,0.0,-4.1172,-4.1172,-4.1172,-4.1172,0.0,0.0,-4.1172,-4.1172,-4.1172,-4.1172,-4.1172,-4.1172,-4.1172,-4.1172,-4.1172,-4.1172,-4.1172,-4.1172,-4.1172,-4.1172,-4.1172,-4.1172,-4.1172,-4.1172,-4.1172,-4.1172,-4.1172,-4.1172,-4.1172,-4.1172,-4.1172,-4.1172,0.0,0.0,0.0,0.0,-2.7042,0.0,0.0,0.0,-2.7627,0.0,-2.8256,-2.8538,-2.8754,-3.1658,-3.3658,-3.3885,-3.6682,0.0,-3.8574,-3.8574,0.0,0.0,-3.8574,-3.8574,-3.8574,0.0,-3.8574,-3.8574,-3.8574,-3.8574,0.0,0.0,0.0,0.0,-3.9004,0.0,-3.9297,-4.0156,-4.0527,-4.0586,-4.1016,-4.1172,-4.1172,-4.1172,-4.1172,-4.1172,-4.1172,-4.1172,-4.1172,-4.1172,-4.1172,-4.1172,-4.1172,-4.1172,-4.1172,-4.1172,-4.1172,-4.1172,-4.1172,-4.1172,-4.1172,-4.1172,0.0,0.0,0.0,0.0,-4.1172,0.0,0.0,0.0,0.0,0.0,-4.1172,-4.1172,-4.1172,-4.1172,-4.1172,-4.0801,-4.0527,0.0,0.0,0.0,0.0,-4.1113,-4.1113,-4.1113,-4.1113,-4.1113,0.0,0.0,-4.1113,-4.1113,-4.1133,-4.1152,-4.1152,-4.1172,-4.1172,-4.1172,-4.1172,-4.1172,-4.1172,-4.1172,-4.1172,-4.1172,-4.1172,-4.1172,-4.1172,-4.1172,-4.1172,-4.1172,-4.1172,-4.1172,-4.1172,-4.1172,-4.1172,-4.1172,-2.7656,-2.77,-2.77,0.0,-2.77,-2.773,0.0,0.0,0.0,0.0,-2.9333,-3.013,-3.3839,-3.2868,-3.3373,-3.6977,-3.6996,0.0,0.0,0.0,0.0,-3.8574,-3.8574,-3.8574,-3.8574,-3.8574,-3.8574,-3.8574,-3.8574,0.0,-3.8574,0.0,0.0,0.0,0.0,0.0,-3.9746,-4.0293,-4.0703,-4.1016,-4.1133,-4.1172,0.0,0.0,-4.1172,-4.1172,-4.1172,-4.1172,-4.1172,-4.1172,-4.1172,-4.1172,-4.1172,-4.1172,-4.1172,-4.1172,-4.1172,-4.1172,-4.1172,-4.1172,-4.1172,-4.1172,-4.1172,-4.1172,0.0,0.0,0.0,0.0,0.0,0.0,0.0,0.0,0.0,-4.1172,-4.1172,-4.1172,-4.1172,0.0,0.0,-4.0527,0.0,0.0,0.0,-4.0215,-4.0215,-4.0215,-4.0215,-4.0215,0.0,0.0,0.0,-4.0215,-4.0527,-4.0684,-4.0684,-4.1016,-4.1172,-4.1172,-4.1172,-4.1172,-4.1172,-4.1172,-4.1172,-4.1172,-4.1172,-4.1172,-4.1172,-4.1172,-4.1172,-4.1172,-4.1172,-4.1172,-4.1172,-4.1172,-4.1172,-4.1172,-2.7844,0.0,0.0,-2.8093,0.0,0.0,-2.8107,0.0,0.0,-2.9808,-2.9389,0.0,-3.2674,-3.2004,-3.2386,-3.5178,-3.5253,0.0,-3.7438,0.0,0.0,-3.8574,-3.8574,-3.8574,-3.8574,-3.8574,0.0,-3.8574,0.0,0.0,-3.8574,0.0,0.0,0.0,0.0,-3.9746,0.0,-4.0625,-4.0957,-4.1172,-4.1172,0.0,0.0,-4.1172,-4.1172,-4.1172,-4.1172,-4.1172,-4.1172,-4.1172,-4.1172,-4.1172,-4.1172,-4.1172,-4.1172,-4.1172,-4.1172,-4.1172,-4.1172,-4.1172,-4.1172,-4.1172,-4.1172,-4.1172,-4.1172,-4.1172,-4.1172,0.0,0.0,0.0,0.0,0.0,0.0,-4.1172,-4.1172,-4.1172,0.0,0.0,0.0,0.0,-3.9707,0.0,0.0,-3.9668,-3.9902,-3.9902,-3.9902,0.0,0.0,0.0,0.0,-3.9902,-4.0117,-4.0254,-4.0254,-4.0488,-4.0625,-4.0625,-4.0801,-4.0879,-4.0898,-4.1094,-4.1172,-4.1172,-4.1172,-4.1172,-4.1172,-4.1172,-4.1172,-4.1172,-4.1172,-4.1172,-4.1172,-4.1172,-4.1172,-4.1172,0.0,0.0,0.0,0.0,0.0,0.0,0.0,-2.8491,0.0,-2.8856,0.0,-2.8978,-2.9256,-3.033,-3.135,-3.1997,0.0,-3.4644,-3.6552,-3.6701,-3.7313,-3.875,-3.875,-3.875,-3.875,-3.8691,-3.8652,0.0,-3.8613,-3.8574,0.0,0.0,0.0,0.0,0.0,0.0,0.0,-4.1016,-4.1172,0.0,-4.1172,-4.1172,-4.1172,-4.1172,-4.1172,-4.1172,-4.1172,-4.1172,-4.1172,-4.1172,-4.1172,-4.1172,-4.1172,-4.1172,-4.1172,-4.1172,-4.1172,-4.1172,-4.1172,-4.1172,-4.1172,-4.1172,-4.1172,-4.1172,-4.1172,-4.1172,-4.1172,-4.1172,-4.1172,-4.1172,0.0,0.0,0.0,0.0,0.0,0.0,0.0,0.0,0.0,0.0,0.0,0.0,0.0,0.0,0.0,-3.9726,-3.9726,0.0,0.0,0.0,0.0,-3.9726,-3.9766,0.0,-3.9805,0.0,-3.9902,-3.9902,-4.0332,-4.0527,-4.0547,-4.0976,-4.1172,-4.1172,-4.1172,-4.1172,-4.1172,-4.1172,-4.1172,-4.1172,-4.1172,-4.1172,-4.1172,-4.1172,-4.1172,-4.1172,0.0,0.0,0.0,0.0,0.0,-2.8871,-2.8812,-2.8812,-2.8827,-2.8886,-2.8886,-2.9535,-3.1121,-3.0384,-3.1481,-3.5876,-3.5295,0.0,0.0,0.0,0.0,-3.9668,-3.9668,-3.9668,-3.9668,-3.9297,-3.9082,0.0,-3.875,-3.8574,-3.8574,0.0,0.0,0.0,0.0,0.0,-4.1074,-4.1152,0.0,-4.1172,-4.1172,-4.1172,-4.1172,-4.1172,-4.1172,-4.1172,-4.1172,-4.1172,-4.1172,-4.1172,-4.1172,-4.1172,-4.1172,-4.1172,-4.1172,-4.1172,-4.1172,-4.1172,-4.1172,-4.1172,-4.1172,-4.1172,-4.1172,-4.1172,-4.1172,-4.1172,-4.1172,-4.1172,-4.1172,-4.1172,-4.1172,0.0,0.0,0.0,0.0,0.0,0.0,0.0,0.0,0.0,0.0,0.0,0.0,0.0,0.0,0.0,0.0,0.0,0.0,0.0,0.0,0.0,0.0,0.0,0.0,0.0,-3.9902,-3.9902,-4.0332,-4.0527,-4.0547,-4.0976,-4.1172,-4.1172,-4.1172,-4.1172,-4.1172,-4.1172,-4.1172,-4.1172,-4.1172,-4.1172,-4.1172,-4.1172,-4.1172,-4.1172,0.0,0.0,0.0,0.0,0.0,0.0,0.0,-2.9032,0.0,-2.9134,-2.9134,-2.9582,-3.0688,-3.0956,-3.2032,-3.4535,-3.4864,-3.6047,-3.8462,-3.8633,-3.9032,-3.9902,-3.9902,0.0,-3.9902,-3.9668,-3.9551,-3.9551,-3.9355,-3.9258,-3.9258,0.0,0.0,0.0,0.0,-4.0976,0.0,0.0,0.0,-4.1172,-4.1172,-4.1172,-4.1172,-4.1172,-4.1172,-4.1172,-4.1172,-4.1172,-4.1172,-4.1172,-4.1172,-4.1172,-4.1172,-4.1172,-4.1172,-4.1172,-4.1172,-4.1172,-4.1172,-4.1172,-4.1172,-4.1172,-4.1172,-4.1172,-4.1172,-4.1172,-4.1172,-4.1172,-4.1172,-4.1172,-4.1172,-4.1172,0.0,0.0,0.0,0.0,0.0,0.0,0.0,0.0,0.0,0.0,0.0,0.0,0.0,0.0,0.0,0.0,0.0,0.0,0.0,0.0,0.0,0.0,0.0,0.0,0.0,-3.9219,-3.9883,-4.0195,-4.0215,-4.0879,-4.1172,-4.1172,-4.1172,-4.1172,-4.1172,-4.1172,-4.1172,-4.1172,-4.1172,-4.1172,-4.1172,-4.1172,-4.1035,-4.0859,0.0,-2.8886,0.0,0.0,-2.8988,0.0,-2.909,-2.931,-2.9456,-2.9383,-2.9442,-2.9603,-2.9939,-3.1243,-3.2364,-3.3065,-3.408,-3.5496,-3.7613,-3.769,-3.8093,-3.9051,-3.9452,-3.9605,-3.9605,-3.9528,-3.9641,0.0,-3.9941,-3.9746,0.0,0.0,0.0,0.0,0.0,0.0,0.0,0.0,-4.1172,-4.1172,-4.1172,-4.1172,-4.1172,-4.1172,-4.1172,-4.1172,-4.1172,-4.1172,-4.1172,-4.1172,-4.1172,-4.1172,-4.1172,-4.1172,-4.1172,-4.1172,-4.1172,-4.1172,-4.1172,-4.1172,-4.1172,-4.1172,-4.1172,-4.1172,-4.1172,-4.1172,-4.1172,-4.1172,-4.1172,-4.1172,-4.1172,-4.1172,0.0,0.0,0.0,0.0,0.0,0.0,0.0,0.0,0.0,0.0,0.0,0.0,0.0,0.0,0.0,-3.8574,-3.8574,-3.8574,0.0,0.0,0.0,-3.8574,-3.8574,0.0,-3.8574,0.0,-3.9473,-3.9902,-3.9922,-4.0781,-4.1172,-4.1172,-4.1172,-4.1172,-4.1172,-4.1172,-4.1113,-4.1035,-4.1035,-4.0976,-4.0898,-4.0898,-4.0684,-4.0449,0.0,0.0,0.0,0.0,0.0,0.0,0.0,-2.9793,-2.972,-2.9412,-2.9632,-2.9939,-3.0357,-3.0469,-3.1945,-3.5375,-3.4375,-3.4925,-3.828,-3.8517,-3.7885,-3.6452,-3.7885,-3.8693,-3.8693,-3.8324,-3.8855,0.0,-4.0078,-3.9277,0.0,0.0,0.0,0.0,0.0,0.0,0.0,-4.1172,-4.1172,-4.1172,-4.1172,-4.1172,-4.1172,-4.1172,-4.1172,-4.1172,-4.1172,-4.1172,-4.1172,-4.1172,-4.1172,-4.1172,-4.1172,-4.1172,-4.1172,-4.1172,-4.1172,-4.1172,-4.1172,-4.1172,-4.1172,-4.1172,-4.1172,-4.1172,-4.1172,-4.1172,-4.1172,-4.1172,-4.1172,-4.1172,-4.1172,-4.1172,-4.1172,0.0,0.0,0.0,0.0,0.0,0.0,0.0,0.0,0.0,0.0,0.0,0.0,0.0,0.0,-3.8574,-3.8574,-3.8574,-3.8574,-3.8574,0.0,-3.8574,-3.8574,-3.8574,0.0,-3.8594,-3.9473,-3.9902,-3.9922,-4.0781,-4.1172,-4.1172,-4.1172,-4.1172,-4.1172,-4.1172,-4.0937,-4.0586,-4.0586,-4.0351,-4.0019,-4.0019,-3.998,-3.9961,0.0,0.0,0.0,0.0,0.0,0.0,0.0,-3.0027,-3.0181,-3.0064,-3.0152,-3.0276,-3.0598,-3.1601,-3.2796,-3.4294,-3.4799,-3.5511,-3.6957,-3.7037,-3.6717,-3.5994,-3.6637,-3.7037,-3.7037,-3.6879,-3.7126,0.0,0.0,0.0,0.0,0.0,0.0,0.0,0.0,-4.1172,-4.1172,-4.1172,-4.1172,-4.1172,-4.1172,-4.1172,-4.1172,-4.1172,-4.1172,-4.1172,-4.1172,-4.1172,-4.1172,-4.1172,-4.1172,-4.1172,-4.1172,-4.1172,-4.1172,-4.1172,-4.1172,-4.1172,-4.1172,-4.1172,-4.1172,-4.1172,-4.1172,-4.1172,-4.1172,-4.1172,-4.1172,-4.1172,-4.1172,-4.1172,-4.1172,-4.1172,-4.1172,0.0,0.0,0.0,0.0,0.0,0.0,0.0,0.0,-3.9434,0.0,0.0,0.0,0.0,0.0,0.0,-3.8574,-3.8574,-3.8574,-3.8574,0.0,-3.8574,-3.8574,-3.8574,-3.8691,-3.8965,-3.959,-4.0019,-4.0293,-4.0898,-4.1172,-4.1172,-4.1172,-4.1035,-4.0781,-4.0781,-4.0527,-4.0156,-4.0156,-4.0039,-3.9902,-3.9902,-3.9726,-3.9473,-2.9471,0.0,-2.9617,0.0,-3.0093,-3.0042,-3.0129,-3.0349,-3.0495,-3.0495,-3.0495,-3.0568,-3.0803,-3.1881,-3.2854,-3.3347,-3.4066,-3.4701,-3.5187,-3.5268,-3.5025,-3.4457,-3.4944,0.0,-3.5268,-3.5268,-3.5511,-3.5994,-3.7197,0.0,0.0,0.0,0.0,0.0,-4.1172,-4.1172,-4.1172,-4.1172,-4.1172,-4.1172,-4.1172,-4.1172,-4.1172,-4.1172,-4.1172,-4.1172,-4.1172,-4.1172,-4.1172,-4.1172,-4.1172,-4.1172,-4.1172,-4.1172,-4.1172,-4.1172,-4.1172,-4.1172,-4.1172,-4.1172,-4.1172,-4.1172,-4.1172,-4.1172,-4.1172,-4.1172,-4.1172,-4.1172,-4.1172,-4.1172,-4.1172,-4.1172,-4.1172,-4.1172,0.0,0.0,0.0,0.0,0.0,0.0,-4.0254,-3.9844,-3.9258,0.0,0.0,0.0,0.0,0.0,0.0,-3.8574,0.0,0.0,0.0,0.0,0.0,-3.8574,-3.8789,-3.9199,-3.9668,-4.0117,-4.0547,-4.0976,-4.1094,-4.0976,-4.0976,-4.0742,-4.0332,-4.0332,-4.0078,-3.9687,-3.9687,-3.9609,-3.9512,-3.9512,-3.9297,-3.9023,-2.9851,-2.9851,-2.9954,-3.0372,-3.0431,-3.0451,-3.0759,-3.0817,-3.0817,-3.0817,-3.0817,-3.0817,-3.0817,-3.0817,-3.1565,-3.3265,-3.1798,-3.155,-3.3347,-3.3429,-3.269,0.0,0.0,-3.3429,-3.3429,-3.3429,-3.4311,-3.5994,0.0,0.0,-3.6694,0.0,-3.9922,-4.1172,-4.1172,-4.1172,-4.1172,-4.1172,-4.1172,-4.1172,-4.1172,-4.1172,-4.1172,-4.1172,-4.1172,-4.1172,-4.1172,-4.1172,-4.1172,-4.1172,-4.1172,-4.1172,-4.1172,-4.1172,-4.1172,-4.1172,-4.1172,-4.1172,-4.1172,-4.1172,-4.1172,-4.1172,-4.1172,-4.1172,-4.1172,-4.1172,-4.1172,-4.1172,-4.1172,-4.1172,-4.1172,-4.1172,-4.1172,-4.1172,0.0,0.0,0.0,0.0,0.0,0.0,-4.0527,-4.0176,-3.9277,0.0,0.0,0.0,0.0,0.0,0.0,0.0,0.0,-3.8574,-3.8574,0.0,-3.8574,-3.8574,-3.8789,-3.9199,-3.9668,-4.0117,-4.0547,-4.0976,-4.0937,-4.0527,-4.0527,-4.0293,-3.9902,-3.9902,-3.9629,-3.9199,-3.9199,-3.8965,-3.8594,-3.8594,-3.8594,-3.8574,-3.024,-3.0284,-3.029,-3.0612,-3.0671,-3.07,-3.0803,-3.0817,-3.0817,-3.0817,-3.0817,-3.0817,-3.0817,-3.0817,-3.0984,0.0,-3.115,-3.1067,0.0,-3.1632,-3.1399,-3.0817,-3.1316,-3.1632,-3.1632,-3.1632,-3.1881,-3.2443,0.0,0.0,0.0,-3.8542,-3.9641,-4.1172,-4.1172,-4.1172,-4.1172,-4.1172,-4.1172,-4.1172,-4.1172,-4.1172,-4.1172,-4.1172,-4.1172,-4.1172,-4.1172,-4.1172,-4.1172,-4.1172,-4.1172,-4.1172,-4.1172,-4.1172,-4.1172,-4.1172,-4.1172,-4.1172,-4.1172,-4.1172,-4.1172,-4.1172,-4.1172,-4.1172,-4.1172,-4.1172,-4.1172,-4.1172,-4.1172,-4.1172,-4.1172,-4.1172,-4.1172,-4.1172,-4.1172,0.0,0.0,0.0,0.0,0.0,-4.0703,-4.041,0.0,-3.9551,0.0,0.0,0.0,0.0,0.0,0.0,0.0,0.0,-3.8574,0.0,-3.8574,-3.8867,-3.9219,-3.9687,-4.0117,-4.0547,-4.0976,-4.1113,-4.0937,-4.0527,-4.0527,-4.0098,-3.9414,-3.9414,-3.916,-3.8769,-3.8769,-3.8691,-3.8574,-3.8574,-3.8574,-3.8574,-3.0481,-3.0525,-3.0583,-3.0788,-3.0817,-3.0817,-3.0817,-3.0817,-3.0817,-3.0817,-3.0817,-3.0817,-3.0817,-3.0817,0.0,-3.0817,-3.0817,-3.0817,-3.0817,-3.0817,-3.0817,-3.0817,-3.0817,-3.0817,-3.0817,0.0,0.0,-3.0817,-3.2541,-3.4474,-3.6637,-3.7357,-3.8566,-4.0197,-4.0197,-4.0607,-4.1172,-4.1172,-4.1172,-4.1172,-4.1172,-4.1172,-4.1172,-4.1172,-4.1172,-4.1172,-4.1172,-4.1172,-4.1172,-4.1172,-4.1172,-4.1172,-4.1172,-4.1172,-4.1172,-4.1172,-4.1172,-4.1172,-4.1172,-4.1172,-4.1172,-4.1172,-4.1172,-4.1172,-4.1172,-4.1172,-4.1172,-4.1172,-4.1172,-4.1172,-4.1172,-4.1172,-4.1172,-4.1172,-4.1172,-4.1172,-4.1172,0.0,0.0,0.0,0.0,0.0,0.0,-4.0019,0.0,0.0,0.0,0.0,0.0,0.0,0.0,-3.8574,-3.8574,0.0,-3.8809,-3.9062,-3.9512,-4.0137,-4.0566,-4.0918,-4.1172,-4.0996,-4.0684,-4.0273,-4.0098,-3.9629,-3.8965,-3.8965,-3.8809,-3.8574,-3.8574,-3.8574,-3.8574,-3.8574,-3.8574,-3.8574,-3.0817,-3.0817,0.0,0.0,-3.0817,0.0,-3.0817,-3.0817,-3.0817,-3.0817,-3.0817,-3.0817,-3.0817,-3.0817,-3.0817,-3.0817,0.0,0.0,0.0,-3.0817,-3.0817,-3.0817,-3.0817,-3.0817,-3.0817,-3.0817,-3.0817,-3.0817,-3.2458,-3.3265,-3.3429,-3.5042,-3.6717,-3.8408,-3.8408,-3.9374,-4.1016,-4.1016,-4.1016,-4.1016,-4.1016,-4.0938,-4.0841,-4.1016,-4.1016,-4.1016,-4.1172,-4.1172,-4.1172,-4.1172,-4.1172,-4.1172,-4.1172,-4.1172,-4.1172,-4.1172,-4.1172,-4.1172,-4.1172,-4.1172,-4.1172,-4.1172,-4.1172,-4.1172,-4.1172,-4.1172,-4.1172,-4.1172,-4.1172,-4.1172,-4.1172,-4.1172,-4.1172,-4.1172,-4.1172,-4.1172,-4.1172,0.0,0.0,0.0,0.0,0.0,0.0,-4.0547,-4.0351,0.0,0.0,0.0,0.0,0.0,-3.8652,-3.8613,-3.8613,-3.8828,-3.9238,-3.9277,-3.9726,-4.0566,-4.0976,-4.1152,-4.1113,-4.0703,-4.0273,-3.9824,-3.9394,-3.8965,-3.8574,-3.8574,-3.8574,-3.8574,-3.8574,-3.8574,-3.8574,-3.8574,-3.8574,-3.8574,0.0,0.0,-3.0817,-3.0817,-3.0817,-3.0817,-3.0817,-3.0817,-3.0817,-3.0817,-3.0817,-3.0817,-3.0817,-3.0817,-3.0817,-3.0817,-3.0817,-3.0817,-3.0817,-3.0817,-3.0817,-3.0817,-3.0817,-3.0817,-3.0817,-3.0817,-3.0817,-3.0817,-3.1233,-3.2128,-3.3429,-3.3838,-3.4961,-3.6637,-3.6637,-3.7596,-3.9216,-3.9216,-3.9216,-3.9216,-3.9216,-3.8408,-3.7374,-3.8724,-3.9216,-3.9374,-4.0685,-4.1172,-4.1172,-4.1172,-4.1172,-4.1172,-4.1172,-4.1172,-4.1172,-4.1172,-4.1172,-4.1172,-4.1172,-4.1172,-4.1172,-4.1172,-4.1172,-4.1172,-4.1172,-4.1172,-4.1172,-4.1172,-4.1172,-4.1172,-4.1172,-4.1172,-4.1172,-4.1172,-4.1172,-4.1172,-4.1172,-4.1172,0.0,0.0,-4.1172,-4.1133,-4.1035,-4.0723,-4.0488,0.0,0.0,0.0,0.0,-3.9629,-3.9414,-3.9062,-3.9062,-3.9277,-3.9726,-4.0039,-4.0488,-4.1016,-4.1133,-4.0996,-4.0664,-4.0566,-4.0098,-3.9355,-3.9258,-3.8965,-3.8574,-3.8574,-3.8574,-3.8574,-3.8574,-3.8574,-3.8574,-3.8574,-3.8574,-3.8574,-3.0817,-3.0817,-3.0817,-3.0817,-3.0817,-3.0817,-3.0817,-3.0817,-3.0817,-3.0817,-3.0817,-3.0817,-3.0817,-3.0817,-3.0817,-3.0817,-3.0817,-3.0817,-3.0817,-3.0817,-3.0817,-3.0817,-3.0817,-3.0817,-3.0817,-3.0817,-3.0817,-3.0817,-3.0817,-3.1316,-3.2211,-3.2211,-3.3183,-3.4799,-3.4799,-3.5753,-3.7436,-3.7436,-3.7436,-3.7436,-3.7436,-3.6877,-3.6075,-3.7037,-3.7436,-3.7675,-3.9374,-4.0021,-4.0099,-4.0919,-4.1172,-4.1172,-4.1172,-4.1172,-4.1172,-4.1172,-4.1172,-4.1172,-4.1172,-4.1172,-4.1172,-4.1172,-4.1172,-4.1172,-4.1172,-4.1172,-4.1172,-4.1172,-4.1172,-4.1172,-4.1172,-4.1172,-4.1172,-4.1172,-4.1172,-4.1172,-4.1172,-4.1172,0.0,-4.1172,-4.1172,-4.1172,-4.1172,-4.0957,-4.082,-4.082,-4.0605,0.0,-4.0195,-4.0176,-3.998,-3.9531,-3.9512,-3.9726,-4.0176,-4.0605,-4.084,-4.0879,-4.0879,-4.0644,-4.0234,-4.0019,-3.9648,-3.9199,-3.9004,-3.8789,-3.8574,-3.8574,-3.8574,-3.8574,-3.8574,-3.8574,-3.8574,-3.8574,-3.8574,-3.8574,-3.0832,-3.0817,-3.0817,-3.0817,-3.0817,-3.0817,-3.0817,-3.0817,-3.0817,-3.0817,-3.0817,-3.0817,-3.0817,-3.0817,-3.0817,-3.0817,-3.0817,-3.0817,-3.0817,-3.0817,-3.0817,-3.0817,-3.0817,-3.0817,-3.0817,-3.0817,-3.0817,-3.0817,-3.0817,-3.0817,-3.0817,-3.0817,-3.1565,-3.3019,-3.3019,-3.3985,-3.5591,-3.5591,-3.5591,-3.5591,-3.5591,-3.543,-3.5268,-3.5511,-3.5591,-3.5833,-3.7596,-3.8249,-3.8487,-4.0197,-4.0841,-4.0841,-4.1094,-4.1172,-4.1172,-4.1172,-4.1172,-4.1172,-4.1172,-4.1172,-4.1172,-4.1172,-4.1172,-4.1172,-4.1172,-4.1172,-4.1172,-4.1172,-4.1172,-4.1172,-4.1172,-4.1172,-4.1172,-4.1172,-4.1172,-4.1172,-4.1172,0.0,-4.1172,-4.1172,-4.1172,-4.1172,-4.1172,-4.1172,-4.1172,-4.1172,-4.1172,-4.1016,-4.0644,-4.0625,-4.0449,-4.0098,-4.0019,-4.0156,-4.0527,-4.0898,-4.0859,-4.043,-4.043,-4.0195,-3.9785,-3.9375,-3.916,-3.9082,-3.873,-3.8574,-3.8574,-3.8574,-3.8574,-3.8574,-3.8574,-3.8574,-3.8574,-3.8574,-3.8574,-3.8574,-3.0734,-3.0817,-3.0817,-3.0817,-3.0817,-3.0817,-3.0817,-3.0817,-3.0817,-3.0817,-3.0817,-3.0817,-3.0817,-3.0817,-3.0817,-3.0817,-3.0817,-3.0817,-3.0817,-3.0817,-3.0817,-3.0817,-3.0817,-3.0817,-3.0817,-3.0817,-3.0817,-3.0817,-3.0817,-3.0817,-3.0817,-3.0817,-3.09,-3.1233,-3.1233,-3.2211,-3.3838,-3.3838,-3.3838,-3.3838,-3.3838,-3.2936,-3.1798,-3.3265,-3.3838,-3.4066,-3.5753,-3.6396,-3.6637,-3.8408,-3.8961,-3.9295,-4.0763,-4.1172,-4.1172,-4.1172,-4.1172,-4.1172,-4.1172,-4.1172,-4.1172,-4.1172,-4.1172,-4.1172,-4.1172,-4.1172,-4.1172,-4.1172,-4.1172,-4.1172,-4.1172,-4.1172,-4.1172,-4.1172,-4.1172,-4.1172,-4.1172,0.0,-4.1172,-4.1172,-4.1172,-4.1172,-4.1172,-4.1172,-4.1172,-4.1172,-4.1172,-4.1152,-4.1074,-4.1074,-4.1035,-4.0976,-4.0605,-4.0449,-4.0527,-4.0586,-4.041,-4.0,-4.0,-3.9746,-3.9316,-3.9238,-3.9004,-3.8672,-3.8613,-3.8574,-3.8574,-3.8574,-3.8574,-3.8574,-3.8574,-3.8574,-3.8574,-3.8574,-3.8574,-3.8574,-3.0415,-3.0499,-3.0582,-3.0749,-3.0817,-3.0817,-3.0817,-3.0817,-3.0817,-3.0817,-3.0817,-3.0817,-3.0817,-3.0817,-3.0817,-3.0817,-3.0817,-3.0817,-3.0817,-3.0817,-3.0817,-3.0817,-3.0817,-3.0817,-3.0817,-3.0817,-3.0817,-3.0817,-3.0817,-3.0817,-3.0817,-3.0817,-3.0817,-3.0817,-3.0817,-3.1233,-3.1963,-3.1963,-3.1963,-3.1963,-3.1963,-3.1565,-3.09,-3.1715,-3.1963,-3.2211,-3.3985,-3.4636,-3.488,-3.6637,-3.7197,-3.7516,-3.9216,-3.9786,-3.9943,-4.0919,-4.1172,-4.1172,-4.1172,-4.1172,-4.1172,-4.1172,-4.1172,-4.1172,-4.1172,-4.1172,-4.1172,-4.1172,-4.1172,-4.1172,-4.1172,-4.1172,-4.1172,-4.1172,-4.1172,0.0,0.0,-4.1172,-4.1172,-4.1172,-4.1172,-4.1172,-4.1172,-4.1172,-4.1172,-4.1172,-4.1172,-4.1172,-4.1172,-4.0957,-4.082,-4.082,-4.0625,-4.041,-4.0195,-4.0195,-3.9961,-3.9512,-3.9512,-3.9297,-3.8867,-3.8867,-3.875,-3.8574,-3.8574,-3.8574,-3.8574,-3.8574,-3.8574,-3.8574,-3.8574,-3.8574,-3.8574,-3.8574,-3.8574,-3.8574,-2.9914,-3.0012,-3.0165,-3.0401,-3.0484,-3.0484,-3.0484,-3.0582,-3.0665,-3.0665,-3.0749,-3.0817,-3.0817,-3.0817,-3.0817,-3.0817,-3.0817,-3.0817,-3.0817,-3.0817,-3.0817,-3.0817,-3.0817,-3.0817,-3.0817,-3.0817,-3.0817,-3.0817,-3.0817,-3.0817,-3.0817,-3.0817,-3.0817,-3.0817,-3.0817,-3.0817,-3.0817,-3.0817,-3.0817,-3.0817,-3.0817,-3.0817,-3.0817,-3.0817,-3.0817,-3.0984,-3.2293,-3.2772,-3.3019,-3.4799,-3.543,-3.5672,-3.7436,-3.7993,-3.8249,-3.9629,-4.0275,-4.0685,-4.1094,-4.1172,-4.1172,-4.1172,-4.1172,-4.1172,-4.1172,-4.1172,-4.1172,-4.1172,-4.1172,-4.1172,-4.1172,-4.1172,-4.1172,-4.1172,0.0,0.0,0.0,-4.1172,-4.1172,-4.1172,-4.1172,-4.1172,-4.1172,-4.1172,-4.1172,-4.1172,-4.1172,-4.1133,-4.1035,-4.0703,-4.043,-4.0215,-4.0312,-4.0176,-3.9746,-3.9726,-3.9512,-3.9062,-3.9062,-3.8887,-3.8574,-3.8574,-3.8574,-3.8574,-3.8574,-3.8574,-3.8574,-3.8574,-3.8574,-3.8574,-3.8574,-3.8574,-3.8574,-3.8574,-3.8574,-3.8574,-2.9481,-2.9565,-2.9565,-2.9565,-2.9565,-2.9565,-2.9565,-2.9998,-3.0263,-3.0263,-3.0582,-3.0817,-3.0817,-3.0817,-3.0817,-3.0817,-3.0817,-3.0817,-3.0817,-3.0817,-3.0817,-3.0817,-3.0817,-3.0817,-3.0817,-3.0817,-3.0817,-3.0817,-3.0817,-3.0817,-3.0817,-3.0817,-3.0817,-3.0817,-3.0817,-3.0817,-3.0817,-3.0817,-3.0817,-3.0817,-3.0817,-3.0817,-3.0817,-3.0817,-3.0817,-3.0817,-3.0984,-3.0984,-3.1233,-3.3019,-3.3592,-3.3919,-3.5672,-3.6155,-3.6236,-3.6316,-3.7516,-3.9138,-4.0763,-4.1172,-4.1172,-4.1172,-4.1172,-4.1172,-4.1172,-4.1172,-4.1172,-4.1172,-4.1172,-4.1172,-4.1172,-4.1172,-4.1172,-4.1172,0.0,0.0,-4.1172,-4.1172,-4.1172,-4.1172,-4.1172,-4.1172,-4.1172,-4.1172,-4.1172,-4.1172,-4.1172,-4.0996,-4.0586,-4.0547,-4.0156,-3.9316,-3.9726,-3.9726,-3.9258,-3.9258,-3.9043,-3.8613,-3.8613,-3.8613,-3.8574,-3.8574,-3.8574,-3.8574,-3.8574,-3.8574,-3.8574,-3.8574,-3.8574,-3.8574,-3.8574,-3.8574,-3.8574,-3.8574,-3.8574,-3.8574,-2.8992,-2.9076,-2.916,-2.9481,-2.9481,-2.9481,-2.9481,-2.9663,-2.9747,-2.9747,-2.99,-3.0067,-3.0415,-3.0415,-3.0499,-3.0734,-3.0817,-3.0817,-3.0817,-3.0817,-3.0817,-3.0817,-3.0817,-3.0817,-3.0817,-3.0817,-3.0817,-3.0817,-3.0817,-3.0817,-3.0817,-3.0817,-3.0817,-3.0817,-3.0817,-3.0817,-3.0817,-3.0817,-3.0817,-3.0817,-3.0817,-3.0817,-3.0817,-3.0817,-3.0817,-3.0817,-3.0817,-3.0817,-3.09,-3.1565,-3.1798,-3.2128,-3.3822,-3.4392,-3.4636,-3.5672,-3.6477,-3.7357,-3.9138,-4.0353,-4.0919,-3.9864,-4.0431,-4.1172,-4.1172,-4.1172,-4.1172,-4.1172,-4.1172,-4.1172,-4.1172,-4.1172,-4.1172,-4.1172,0.0,-4.1172,-4.1172,-4.1172,-4.1172,-4.1172,-4.1172,-4.1172,-4.1172,-4.1172,-4.1172,-4.1172,-4.0918,-4.0703,-4.0527,-4.0,-3.9434,-3.8828,-3.8984,-3.8984,-3.8809,-3.8809,-3.873,-3.8574,-3.8574,-3.8574,-3.8574,-3.8574,-3.8574,-3.8574,-3.8574,-3.8574,-3.8574,-3.8574,-3.8574,-3.8574,-3.8574,-3.8574,-3.8574,-3.8574,-3.8574,-3.8574,-2.8571,-2.8655,-2.874,-2.9062,-2.9062,-2.9062,-2.9062,-2.923,-2.9314,-2.9314,-2.9398,-2.9649,-2.9914,-2.9998,-3.0081,-3.0401,-3.0401,-3.0484,-3.0582,-3.0749,-3.0817,-3.0817,-3.0817,-3.0817,-3.0817,-3.0817,-3.0817,-3.0817,-3.0817,-3.0817,-3.0817,-3.0817,-3.0817,-3.0817,-3.0817,-3.0817,-3.0817,-3.0817,-3.0817,-3.0817,-3.0817,-3.0817,-3.0817,-3.0817,-3.0817,-3.0817,-3.0817,-3.0817,-3.0817,-3.0817,-3.0817,-3.0984,-3.2211,-3.2623,-3.2854,-3.3985,-3.4782,-3.5349,-3.5994,-3.7852,-3.955,-3.9453,-4.0353,-4.1094,-4.0509,-4.0841,-4.1016,-4.0509,-4.0841,-4.1172,-4.1172,-4.1172,-4.1016,-4.0431,-4.0353,-4.0197,-3.9629,-3.955,-3.955,-3.955,-4.004,-4.0353,-4.0353,-4.0841,-4.1113,-4.0976,-4.0684,-4.041,-4.0117,-3.9414,-3.8867,-3.8594,-3.8574,-3.8574,-3.8574,-3.8574,-3.8574,-3.8574,-3.8574,-3.8574,-3.8574,-3.8574,-3.8574,-3.8574,-3.8574,-3.8574,-3.8574,-3.8574,-3.8574,-3.8574,-3.8574,-3.8574,-3.8574,-3.8574,-3.8574,-3.8574,-2.8221,-2.8221,-2.8221,-2.8221,-2.8221,-2.8221,-2.8221,-2.8571,-2.8824,-2.8824,-2.9244,-2.9481,-2.9481,-2.9481,-2.9481,-2.9481,-2.9481,-2.9747,-3.0179,-3.0582,-3.0817,-3.0817,-3.0817,-3.0817,-3.0817,-3.0817,-3.0817,-3.0817,-3.0817,-3.0817,-3.0817,-3.0817,-3.0817,-3.0817,-3.0817,-3.0817,-3.0817,-3.0817,-3.0817,-3.0817,-3.0817,-3.0817,-3.0817,-3.0817,-3.0817,-3.0817,-3.0817,-3.0817,-3.0817,-3.0817,-3.0817,-3.0817,-3.0817,-3.0817,-3.0817,-3.0817,-3.2046,-3.3019,-3.1316,-3.3331,-3.6797,-4.0275,-4.1172,-4.0685,-3.8961,-3.9943,-4.0685,-3.8961,-3.9943,-4.1172,-4.1172,-4.1172,-4.0607,-3.8882,-3.8566,-3.7993,-3.6236,-3.5994,-3.5994,-3.5994,-3.7516,-3.8645,-3.8645,-4.0197,-4.0996,-4.0566,-4.0508,-4.0117,-3.9238,-3.8809,-3.8574,-3.8574,-3.8574,-3.8574,-3.8574,-3.8574,-3.8574,-3.8574,-3.8574,-3.8574,-3.8574,-3.8574,-3.8574,-3.8574,-3.8574,-3.8574,-3.8574,-3.8574,-3.8574,-3.8574,-3.8574,-3.8574,-3.8574,-3.8574,-3.8574,-3.8574,-2.8221,-2.8221,-2.8221,-2.8221,-2.8221,-2.8221,-2.8221,-2.8318,-2.8403,-2.8403,-2.8473,-2.874,-2.8992,-2.8992,-2.9146,-2.9481,-2.9481,-2.9565,-2.9747,-2.9816,-2.99,-2.99,-3.0484,-3.0817,-3.0817,-3.0817,-3.0817,-3.0817,-3.0817,-3.0817,-3.0817,-3.0817,-3.0817,-3.0817,-3.0817,-3.0817,-3.0817,-3.0817,-3.0817,-3.0817,-3.0817,-3.0817,-3.0817,-3.0817,-3.0817,-3.0817,-3.0817,-3.0817,-3.0817,-3.0817,-3.0817,-3.0817,-3.0817,-3.0817,-3.0817,-3.0817,-3.115,-3.1715,-3.2458,-3.3347,-3.4392,-3.5447,-3.6654,-3.7454,-3.6877,-3.7197,-3.7374,-3.6877,-3.7197,-3.7534,-3.7534,-3.7534,-3.7374,-3.6877,-3.6797,-3.6557,-3.6075,-3.5994,-3.5994,-3.5994,-3.7516,-3.8645,-3.8645,-3.991,-4.0664,-4.0527,-3.9941,-3.9355,-3.8789,-3.8652,-3.8574,-3.8574,-3.8574,-3.8574,-3.8574,-3.8574,-3.8574,-3.8574,-3.8574,-3.8574,-3.8574,-3.8574,-3.8574,-3.8574,-3.8574,-3.8574,-3.8574,-3.8574,-3.8574,-3.8574,-3.8574,-3.8574,-3.8574,-3.8574,-3.8574,-3.8574,-2.8221,-2.8221,-2.8221,-2.8221,-2.8221,-2.8221,-2.8221,-2.8221,-2.8221,-2.8221,-2.8221,-2.8318,-2.8571,-2.8571,-2.8655,-2.8978,-2.9146,-2.923,-2.923,-2.9398,-2.9481,-2.9481,-2.9983,-3.0317,-3.0317,-3.0317,-3.0317,-3.0317,-3.0499,-3.0582,-3.0582,-3.0749,-3.0817,-3.0817,-3.0817,-3.0817,-3.0817,-3.0817,-3.0817,-3.0817,-3.0817,-3.0817,-3.0817,-3.0817,-3.0817,-3.0817,-3.0817,-3.0817,-3.0817,-3.0817,-3.0817,-3.0817,-3.0817,-3.0817,-3.0817,-3.0817,-3.0817,-3.1067,-3.2128,-3.2376,-3.2376,-3.2376,-3.4229,-3.5833,-3.5123,-3.5511,-3.5833,-3.5106,-3.5511,-3.5994,-3.5994,-3.5994,-3.5753,-3.5106,-3.4944,-3.4717,-3.405,-3.3985,-3.3985,-3.3985,-3.5511,-3.6487,-3.6348,-3.7638,-3.8394,-3.8077,-3.8047,-3.7629,-3.6701,-3.7897,-3.8282,-3.7677,-3.8282,-3.8574,-3.8574,-3.8574,-3.8574,-3.8574,-3.8574,-3.8574,-3.8574,-3.8574,-3.8574,-3.8574,-3.8574,-3.8574,-3.8574,-3.8574,-3.8574,-3.8574,-3.8574,-3.8574,-3.8574,-3.8574,-3.8574,-3.8574,-2.8221,-2.8221,-2.8221,-2.8221,-2.8221,-2.8221,-2.8221,-2.8221,-2.8221,-2.8221,-2.8221,-2.8221,-2.8221,-2.8221,-2.8221,-2.8221,-2.8571,-2.874,-2.874,-2.916,-2.9398,-2.9398,-2.9398,-2.9398,-2.9398,-2.9481,-2.9481,-2.9481,-2.9914,-3.0179,-3.0179,-3.0499,-3.0749,-3.0749,-3.0749,-3.0749,-3.0817,-3.0817,-3.0817,-3.0817,-3.0817,-3.0817,-3.0817,-3.0817,-3.0817,-3.0817,-3.0817,-3.0817,-3.0817,-3.0817,-3.0817,-3.0817,-3.0817,-3.0817,-3.0817,-3.0817,-3.0817,-3.0817,-3.0817,-3.0817,-3.0817,-3.0817,-3.3167,-3.5106,-3.351,-3.4392,-3.5106,-3.351,-3.4392,-3.5511,-3.5511,-3.5511,-3.5025,-3.3429,-3.3183,-3.2608,-3.0984,-3.0817,-3.0817,-3.0788,-3.233,-3.3254,-3.2888,-3.4409,-3.5114,-3.4393,-3.5392,-3.5327,-3.3809,-3.6534,-3.7511,-3.6015,-3.7364,-3.819,-3.819,-3.8336,-3.8428,-3.8574,-3.8574,-3.8574,-3.8574,-3.8574,-3.8574,-3.8574,-3.8574,-3.8574,-3.8574,-3.8574,-3.8574,-3.8574,-3.8574,-3.8574,-3.8574,-3.8574,-3.8574,-3.8574,-2.8221,-2.8221,-2.8221,-2.8221,-2.8221,-2.8221,-2.8221,-2.8221,-2.8221,-2.8221,-2.8221,-2.8221,-2.8221,-2.8221,-2.8221,-2.8221,-2.8305,-2.8318,-2.8318,-2.8403,-2.8473,-2.8473,-2.8473,-2.8473,-2.8473,-2.9146,-2.9481,-2.9481,-2.9565,-2.9663,-2.9663,-2.9732,-2.9998,-3.0332,-3.0332,-3.0499,-3.0817,-3.0817,-3.0817,-3.0817,-3.0817,-3.0817,-3.0817,-3.0817,-3.0817,-3.0817,-3.0817,-3.0817,-3.0817,-3.0817,-3.0817,-3.0817,-3.0817,-3.0817,-3.0817,-3.0817,-3.0817,-3.0817,-3.0817,-3.0817,-3.0817,-3.0817,-3.1399,-3.1798,-3.1482,-3.1632,-3.1798,-3.1482,-3.1632,-3.1963,-3.1963,-3.1963,-3.1798,-3.1399,-3.1399,-3.1233,-3.0817,-3.0817,-3.0729,-3.0481,-3.1976,-3.2873,-3.2619,-3.3792,-3.4444,-3.3905,-3.4087,-3.4053,-3.3734,-3.4354,-3.4579,-3.4261,-3.4579,-3.4804,-3.4804,-3.609,-3.7364,-3.8574,-3.8574,-3.8574,-3.8574,-3.8574,-3.8574,-3.8574,-3.8574,-3.8574,-3.8574,-3.8574,-3.8574,-3.8574,-3.8574,-3.8574,-3.8574,-3.8574,-3.8574,-3.8574,-2.8221,-2.8221,-2.8221,-2.8221,-2.8221,-2.8221,-2.8221,-2.8221,-2.8221,-2.8221,-2.8221,-2.8221,-2.8221,-2.8221,-2.8221,-2.8221,-2.8221,-2.8221,-2.8221,-2.8221,-2.8221,-2.8221,-2.8221,-2.8221,-2.8221,-2.8642,-2.8894,-2.8894,-2.9062,-2.9146,-2.9146,-2.9398,-2.9649,-2.983,-2.983,-2.9998,-3.015,-3.015,-3.015,-3.0234,-3.0415,-3.0499,-3.0499,-3.0749,-3.0817,-3.0817,-3.0817,-3.0817,-3.0817,-3.0817,-3.0817,-3.0817,-3.0817,-3.0817,-3.0817,-3.0817,-3.0817,-3.0817,-3.0817,-3.0817,-3.0817,-3.0817,-3.0817,-3.0817,-3.0817,-3.0817,-3.0817,-3.0817,-3.0817,-3.0817,-3.0817,-3.0817,-3.0817,-3.0817,-3.0817,-3.0773,-3.0612,-3.0598,-3.0481,-3.024,-3.0911,-3.1323,-3.1081,-3.1496,-3.166,-3.1408,-3.2157,-3.2233,-3.1469,-3.2826,-3.3373,-3.2614,-3.3297,-3.3658,-3.3658,-3.4579,-3.5402,-3.6312,-3.7824,-3.8574,-3.8574,-3.8574,-3.8574,-3.8574,-3.8574,-3.8574,-3.8574,-3.8574,-3.8574,-3.8574,-3.8574,-3.8574,-3.8574,-3.8574,-3.8574,-3.8574,-2.8221,-2.8221,-2.8221,-2.8221,-2.8221,-2.8221,-2.8221,-2.8221,-2.8221,-2.8221,-2.8221,-2.8221,-2.8221,-2.8221,-2.8221,-2.8221,-2.8221,-2.8221,-2.8221,-2.8221,-2.8221,-2.8221,-2.8221,-2.8221,-2.8221,-2.8221,-2.8221,-2.8221,-2.8571,-2.874,-2.874,-2.9062,-2.9314,-2.9398,-2.9398,-2.9398,-2.9481,-2.9481,-2.9481,-2.9565,-2.9914,-3.0081,-3.0095,-3.0415,-3.0651,-3.0665,-3.0665,-3.0749,-3.0817,-3.0817,-3.0817,-3.0817,-3.0817,-3.0817,-3.0817,-3.0817,-3.0817,-3.0817,-3.0817,-3.0817,-3.0817,-3.0817,-3.0817,-3.0817,-3.0817,-3.0817,-3.0817,-3.0817,-3.0817,-3.0817,-3.0817,-3.0817,-3.0817,-3.0817,-3.0773,-3.0656,-3.0475,-3.0387,-3.0225,-2.9822,-2.9734,-2.9588,-2.9325,-2.9047,-2.8886,-2.8886,-3.0114,-3.0346,-2.8964,-3.1392,-3.2233,-3.0947,-3.2157,-3.2902,-3.2902,-3.3146,-3.3297,-3.3373,-3.6312,-3.7751,-3.7751,-3.8044,-3.819,-3.8209,-3.8501,-3.8574,-3.8574,-3.8574,-3.8574,-3.8574,-3.8574,-3.8574,-3.8574,-3.8574,-3.8574,-3.8574,-2.8221,-2.8221,-2.8221,-2.8221,-2.8221,-2.8221,-2.8221,-2.8221,-2.8221,-2.8221,-2.8221,-2.8221,-2.8221,-2.8221,-2.8221,-2.8221,-2.8221,-2.8221,-2.8221,-2.8221,-2.8221,-2.8221,-2.8221,-2.8221,-2.8221,-2.8221,-2.8221,-2.8221,-2.8221,-2.8305,-2.8305,-2.8318,-2.8571,-2.8908,-2.8908,-2.9146,-2.9481,-2.9481,-2.9481,-2.9481,-2.9565,-2.9565,-2.9565,-2.9649,-2.9914,-3.0263,-3.0263,-3.0499,-3.0817,-3.0817,-3.0817,-3.0817,-3.0817,-3.0817,-3.0817,-3.0817,-3.0817,-3.0817,-3.0817,-3.0817,-3.0817,-3.0817,-3.0817,-3.0817,-3.0817,-3.0817,-3.0817,-3.0817,-3.0817,-3.0817,-3.0817,-3.0817,-3.0817,-3.0817,-3.0598,-3.0475,-3.0446,-3.0181,-2.9807,-2.9486,-2.9193,-2.9003,-2.8959,-2.8915,-2.8886,-2.8886,-2.9119,-2.9119,-2.8886,-2.9338,-2.9416,-2.9197,-2.9431,-2.9571,-2.9571,-3.0947,-3.1638,-3.1638,-3.3524,-3.4354,-3.4411,-3.5849,-3.6534,-3.6608,-3.797,-3.8574,-3.8574,-3.8574,-3.8574,-3.8574,-3.8574,-3.8574,-3.8574,-3.8574,-3.8574,-3.8574,-2.8221,-2.8221,-2.8221,-2.8221,-2.8221,-2.8221,-2.8221,-2.8221,-2.8221,-2.8221,-2.8221,-2.8221,-2.8221,-2.8221,-2.8221,-2.8221,-2.8221,-2.8221,-2.8221,-2.8221,-2.8221,-2.8221,-2.8221,-2.8221,-2.8221,-2.8221,-2.8221,-2.8221,-2.8221,-2.8221,-2.8221,-2.8221,-2.8318,-2.8487,-2.8487,-2.8558,-2.8726,-2.8726,-2.8726,-2.881,-2.8992,-2.9076,-2.916,-2.9663,-2.9998,-3.0263,-3.0415,-3.0665,-3.0817,-3.0817,-3.0817,-3.0817,-3.0817,-3.0817,-3.0817,-3.0817,-3.0817,-3.0817,-3.0817,-3.0817,-3.0817,-3.0817,-3.0817,-3.0817,-3.0817,-3.0817,-3.0817,-3.0817,-3.0817,-3.0773,-3.0583,-3.0554,-3.0495,-3.032,-3.0173,-3.0093,-2.9837,-2.9676,-2.9471,-2.9149,-2.8973,-2.8886,-2.8886,-2.8886,-2.8886,-2.8886,-2.8886,-2.8886,-2.8886,-2.8886,-2.8886,-2.8886,-2.8886,-2.8886,-2.8886,-2.9571,-2.9959,-2.9959,-3.0716,-3.2462,-3.5103,-3.5867,-3.6682,-3.7604,-3.8263,-3.8574,-3.8574,-3.8574,-3.8574,-3.8574,-3.8574,-3.8574,-3.8574,-3.8574,-3.8574,-3.8574]}]]